GFSSW_500_rhum_000.txt.gz
RH
52 59 27 42 59 55 38 24 21 52 66 66 70 57 38 40 45 43 38 40 46 41 33 36 35 30 28 21 18 24 33 8 25 31 22 24 26 78 72 62 48 60 71 71 74
39 38 29 31 66 61 57 51 34 22 40 62 76 74 60 38 39 42 40 48 49 43 35 33 36 31 30 21 19 19 34 10 22 31 24 21 31 61 50 52 50 60 77 70 68
31 32 39 38 69 64 57 42 43 33 23 38 64 84 73 59 34 38 42 47 56 47 40 30 32 25 27 22 19 20 34 21 15 31 26 21 38 44 48 58 56 61 61 64 65
39 47 47 80 62 39 37 36 34 36 27 23 47 74 80 70 42 44 40 50 62 55 44 30 24 24 29 23 22 21 26 36 14 31 27 29 36 42 51 75 55 58 72 74 62
48 39 48 39 36 34 42 43 32 29 25 29 27 55 72 62 58 46 41 52 60 55 46 32 25 26 29 31 25 22 26 36 15 29 30 36 39 42 62 64 66 68 61 54 49
54 46 53 52 63 60 55 56 43 75 42 30 41 34 61 54 86 50 53 55 56 56 44 36 28 28 32 27 21 25 24 38 17 29 34 33 48 44 52 53 58 56 53 48 44
55 78 61 98 71 78 93 100 75 53 97 38 46 39 44 56 87 62 52 55 57 59 46 43 34 26 29 28 25 28 25 40 20 28 36 28 50 49 47 49 49 50 45 47 42
64 64 94 99 99 74 82 94 75 71 99 72 63 43 32 53 86 67 56 61 59 60 49 44 38 33 33 28 28 27 24 37 28 23 39 25 40 45 45 45 45 44 46 43 41
72 78 93 100 100 81 79 90 93 92 78 76 74 39 25 38 65 68 59 59 62 62 53 42 44 39 35 30 28 28 25 42 30 23 40 28 34 35 36 42 44 44 42 37 36
75 96 97 99 100 100 100 100 100 96 82 96 87 38 26 30 56 67 61 62 62 63 60 57 46 39 33 29 23 31 30 38 35 19 39 39 42 45 55 48 35 29 38 47 54
93 92 99 98 100 100 100 98 100 100 90 98 64 37 31 28 39 62 67 64 66 76 60 49 61 38 30 28 42 36 27 32 38 19 40 45 48 51 47 31 16 34 39 48 58
94 95 96 98 97 99 100 98 100 98 99 98 100 50 35 23 31 45 64 63 61 58 63 52 43 37 40 54 39 40 30 33 45 16 36 51 53 37 21 24 31 35 42 48 54
95 97 98 97 96 94 100 98 86 98 76 73 81 66 29 22 27 35 45 52 53 56 49 47 44 64 50 53 29 31 31 31 51 20 15 42 51 32 20 15 35 42 46 51 48
94 98 97 98 99 98 100 100 100 99 83 72 100 92 45 26 28 30 38 50 43 46 46 44 41 52 40 35 39 29 33 31 59 21 16 35 35 30 24 18 35 46 44 45 42
94 96 97 98 97 99 99 99 79 95 99 99 100 100 73 55 38 32 68 43 41 38 43 38 41 44 48 44 48 40 44 49 67 17 15 29 30 25 28 21 26 41 44 43 39
96 97 98 97 98 98 99 100 100 89 88 99 99 99 100 92 43 62 86 87 69 53 42 43 44 48 45 44 40 48 52 70 68 16 11 20 25 25 22 18 24 30 38 35 29
93 98 97 97 98 98 98 98 98 69 56 86 96 98 100 84 80 89 90 98 71 52 62 54 65 68 51 39 47 44 47 60 50 25 8 16 25 24 24 16 20 23 27 22 10
82 95 97 97 97 98 98 98 93 65 60 68 90 98 95 92 95 99 94 68 95 66 64 55 52 88 51 48 50 48 57 56 25 10 6 12 19 17 15 12 13 14 14 8 6
88 90 96 96 96 97 97 98 92 92 96 82 81 95 93 97 86 98 98 89 88 82 59 98 90 58 56 49 58 49 54 24 7 1 4 7 7 6 5 7 10 9 8 17 19
92 82 91 96 97 98 98 97 99 98 97 92 73 82 77 79 83 94 97 79 79 98 98 95 81 71 76 78 62 41 15 7 3 0 2 4 7 8 11 10 10 15 26 35 36
63 84 91 95 96 97 98 91 94 98 95 86 72 60 82 64 76 93 96 71 90 97 80 92 87 81 74 61 35 22 4 0 3 3 5 9 10 13 19 30 34 40 42 43 43
53 71 74 84 90 95 98 96 93 95 94 76 70 90 67 82 95 77 73 76 93 94 97 93 87 46 32 15 4 0 1 3 5 10 15 25 33 42 47 47 44 42 40 35 30
60 63 64 76 80 96 95 97 98 96 88 91 93 79 77 78 82 85 94 96 93 88 77 41 17 5 8 12 2 2 5 10 18 27 31 45 53 54 44 42 38 34 32 32 33
54 69 69 69 80 85 100 93 97 96 97 96 97 96 96 97 96 96 98 94 68 40 25 24 16 8 14 14 13 14 24 31 35 44 58 52 45 40 39 38 35 30 32 35 37
50 75 66 62 72 89 97 95 97 95 97 97 97 98 96 96 97 95 96 81 62 45 38 29 36 37 35 38 41 39 36 42 55 60 56 44 43 42 39 33 40 38 32 17 15
48 75 68 64 60 83 88 99 97 97 98 96 98 97 98 95 96 94 87 91 75 74 69 64 71 74 72 65 68 74 74 67 59 46 38 35 39 44 42 31 18 16 18 20 22
51 58 79 73 70 72 81 88 98 100 94 91 93 99 98 99 97 96 94 92 86 86 91 91 92 89 92 95 95 91 79 62 46 37 37 39 36 22 15 19 21 24 27 28 28

GFSSW_500_rhum_003.txt.gz
RH
44 38 39 30 26 26 20 25 31 27 44 20 56 50 55 44 41 46 52 50 44 46 48 47 37 31 29 26 21 18 32 33 9 15 24 28 25 18 31 80 77 49 58 54 62
45 43 30 23 25 25 20 27 24 36 59 53 22 60 63 54 38 43 51 58 52 44 50 48 41 34 32 29 23 19 23 39 22 11 19 25 26 24 36 79 70 53 53 55 69
44 36 30 34 35 28 19 48 55 58 82 74 42 26 67 69 49 34 43 57 59 44 56 51 44 32 30 28 20 20 25 40 32 11 17 28 29 25 43 64 51 54 50 59 70
32 36 38 44 49 44 39 32 61 71 87 70 67 31 36 69 66 47 44 50 61 51 54 51 46 35 29 30 22 18 26 31 39 19 14 30 32 28 38 58 49 51 62 63 62
40 44 57 49 65 63 62 31 41 50 51 72 56 56 29 57 66 61 48 50 54 46 50 52 50 44 30 30 28 19 28 26 36 35 13 29 33 31 38 51 54 66 70 62 61
56 51 68 62 86 84 66 46 51 70 54 44 74 56 43 39 61 76 66 50 50 53 52 56 60 56 36 32 30 21 25 26 33 45 20 23 34 27 46 51 62 62 67 63 58
61 62 81 94 92 96 82 60 77 84 56 50 70 60 40 36 49 76 70 56 47 51 61 65 64 53 37 34 26 23 24 29 36 41 31 20 35 34 43 48 55 52 50 51 51
78 74 75 93 88 96 97 77 97 85 94 66 91 86 36 40 46 71 74 70 51 49 60 77 65 52 38 31 28 27 24 30 44 39 39 22 31 35 41 45 46 45 46 46 45
83 88 81 79 84 90 100 90 88 86 74 79 97 81 31 40 40 59 75 76 65 61 70 76 66 52 40 32 31 23 21 29 35 36 38 18 33 34 38 42 44 44 42 45 48
90 95 89 75 82 92 100 92 98 88 70 98 100 83 27 46 43 55 81 85 68 68 83 85 66 51 38 31 26 21 30 31 38 42 36 15 37 32 24 31 40 47 45 44 28
86 96 96 93 80 96 94 100 100 98 85 92 88 45 48 51 47 55 89 82 71 74 72 79 69 54 40 32 28 33 29 28 39 42 44 14 39 41 50 52 52 43 35 14 24
96 98 97 97 97 88 98 100 100 100 99 91 100 93 98 60 45 54 86 81 70 59 78 78 67 57 48 39 38 32 31 30 39 33 43 14 35 42 48 51 36 20 7 24 43
92 97 98 98 98 96 98 100 100 100 100 100 94 97 97 52 42 50 69 81 77 75 71 68 62 56 46 39 42 36 30 33 39 28 52 21 25 46 55 46 15 9 12 33 43
97 98 98 98 99 98 93 100 100 100 100 98 91 94 77 40 37 46 68 81 81 68 75 70 65 59 53 42 40 50 34 35 37 37 48 33 16 44 52 41 21 18 34 44 42
100 98 98 98 99 99 98 97 98 100 96 77 93 92 82 30 34 41 64 74 73 64 74 62 64 57 52 42 52 58 54 35 34 36 30 42 15 26 31 29 24 26 28 45 47
99 98 97 99 98 98 98 100 100 100 99 85 90 96 57 32 33 38 83 73 71 79 68 67 62 64 52 61 60 92 56 43 31 31 21 38 15 21 26 27 26 24 26 35 43
93 96 94 98 98 99 99 99 100 98 97 100 90 75 40 40 42 57 53 60 73 67 69 62 59 52 53 82 72 71 48 36 33 29 29 43 19 16 24 24 26 21 20 26 32
100 97 92 99 98 98 98 99 84 69 74 90 99 77 56 100 96 63 92 83 49 49 54 55 54 53 61 45 52 59 42 32 39 36 46 45 31 10 16 22 24 16 17 21 25
99 97 95 96 98 98 98 96 57 60 60 83 100 99 100 100 68 99 100 94 44 46 48 43 49 47 45 44 52 45 34 50 45 41 42 39 18 6 10 14 16 14 14 14 13
74 94 90 94 93 98 98 98 81 91 73 78 82 81 79 80 90 99 98 89 92 83 62 52 49 46 48 53 50 38 68 57 43 35 34 22 3 4 7 9 8 10 12 13 12
58 68 89 93 96 100 98 98 97 96 100 84 86 59 57 71 100 100 99 99 98 73 69 64 71 61 60 46 45 49 44 41 33 24 10 2 2 4 10 16 15 17 20 24 35
60 63 76 95 96 97 97 97 94 98 87 80 83 76 81 97 100 99 98 94 98 78 68 90 93 79 70 63 56 58 55 32 16 6 1 4 11 16 21 26 35 38 45 45 43
55 63 72 91 96 94 98 98 97 97 94 68 67 90 82 78 87 94 91 82 97 78 78 96 95 100 99 90 77 68 34 16 1 0 6 17 28 39 46 53 54 49 43 37 34
50 64 70 77 96 89 98 98 95 95 99 80 67 68 62 59 64 80 84 93 90 98 98 97 100 94 79 64 51 22 0 0 4 12 22 34 54 62 58 53 45 42 36 39 37
47 71 73 74 88 91 96 98 91 91 97 96 72 71 67 72 66 82 88 79 94 96 98 94 98 95 55 20 14 12 7 12 20 31 38 57 68 63 53 47 44 38 46 47 24
46 73 73 70 61 91 96 99 87 89 97 98 96 91 95 96 90 82 83 82 89 96 86 47 27 18 7 7 24 24 31 28 31 40 51 67 69 56 48 40 42 46 19 19 22
54 67 67 78 74 71 89 90 97 92 93 99 98 97 96 99 98 96 96 97 96 62 49 42 50 44 41 37 37 40 46 49 62 74 69 60 45 41 57 55 34 21 24 27 31

GFSSW_500_rhum_006.txt.gz
RH
14 16 32 28 26 25 24 22 22 21 19 20 24 36 31 36 32 40 35 51 62 63 50 44 43 44 37 30 25 18 14 30 34 16 11 15 19 24 23 27 86 83 74 65 50
17 31 30 34 33 31 28 30 33 32 25 23 23 23 47 26 39 33 42 49 65 66 59 48 48 48 42 34 28 21 15 24 39 30 15 14 17 23 28 26 61 88 90 71 66
23 41 34 46 44 41 39 44 42 31 32 35 31 25 49 46 33 33 47 51 66 71 64 53 53 44 46 34 31 23 18 23 31 36 25 17 16 23 31 32 60 64 59 62 62
44 49 45 53 45 42 55 60 47 55 61 40 31 57 72 80 30 48 48 56 68 70 65 62 52 44 48 37 34 22 22 25 27 29 32 13 15 27 31 36 52 70 53 70 70
51 55 66 60 54 46 59 59 72 74 41 33 43 82 95 88 50 36 54 57 63 58 58 70 59 55 50 41 35 24 26 25 26 24 37 20 12 22 30 37 42 65 52 63 76
62 66 70 72 50 52 48 54 73 77 48 47 66 66 99 64 69 34 60 70 60 53 64 70 68 68 53 45 36 28 29 23 22 31 32 35 14 20 34 37 40 50 58 72 71
79 67 78 70 60 50 50 58 73 88 56 64 92 78 77 68 72 40 52 82 58 51 63 85 85 69 57 51 39 27 26 21 23 36 29 32 23 16 33 28 41 48 63 58 55
76 75 73 76 69 61 53 65 81 80 67 83 95 98 58 77 74 45 50 81 62 52 58 91 87 75 62 54 43 28 25 21 27 33 34 27 30 18 32 35 45 48 54 49 45
81 79 80 84 87 80 64 72 79 92 78 84 88 92 66 79 65 49 44 71 72 63 62 100 92 77 68 59 45 32 21 23 31 29 30 28 40 22 31 36 38 47 48 45 42
81 91 86 93 97 93 85 89 91 100 87 88 88 100 90 73 64 47 41 69 82 74 84 98 99 74 68 58 48 34 20 27 36 31 29 41 46 20 33 36 36 38 43 42 49
91 94 85 96 98 95 98 99 96 97 98 86 88 96 99 89 60 45 42 69 91 78 71 78 83 53 61 64 51 33 25 30 35 28 29 35 36 16 37 33 30 36 45 48 47
88 94 98 98 98 97 95 94 100 100 100 94 82 80 100 100 61 41 44 66 93 76 80 90 80 75 77 65 49 35 25 30 32 25 30 37 36 18 40 43 48 51 48 37 18
82 95 98 96 98 99 95 95 100 100 100 98 96 100 99 98 53 38 45 65 96 96 66 75 85 84 79 65 50 36 29 31 32 29 33 41 40 12 36 43 50 53 25 11 11
59 76 98 98 98 98 98 100 100 100 95 100 84 84 95 92 48 40 46 74 97 89 76 79 92 76 86 68 52 37 44 39 33 29 34 30 38 17 20 44 57 50 26 18 27
61 92 98 98 98 98 99 99 100 100 100 99 98 100 99 82 43 42 49 86 97 88 80 78 79 93 73 69 55 53 58 50 36 31 30 39 40 25 16 41 53 39 24 25 32
78 95 99 98 99 98 98 99 100 100 100 93 74 86 92 57 46 48 51 94 100 100 87 84 82 96 84 68 62 66 60 70 44 38 26 37 32 35 16 23 27 25 22 25 27
89 93 99 98 99 98 99 99 98 100 100 93 73 93 82 44 47 47 60 95 93 86 93 95 83 76 81 76 52 65 87 80 57 38 23 32 33 35 20 18 20 22 25 23 19
83 94 96 97 99 99 98 98 100 100 100 100 67 93 59 49 60 52 69 97 91 92 77 69 73 71 74 59 51 59 77 54 42 34 26 27 27 40 28 13 18 22 20 22 21
67 67 88 96 97 100 98 98 100 90 100 90 77 75 56 96 64 72 68 82 78 78 83 66 57 66 67 67 66 85 75 71 57 38 25 26 37 41 36 15 11 15 16 19 19
56 61 75 98 96 97 98 98 99 98 99 90 60 47 86 100 100 93 78 96 87 77 78 74 63 64 71 66 60 64 96 69 50 42 30 26 30 33 23 11 9 12 14 13 13
51 62 85 99 94 96 98 98 96 91 86 83 55 58 80 70 73 81 90 83 86 74 80 72 65 63 62 49 46 52 44 43 47 40 33 30 30 20 4 5 10 13 13 12 13
48 58 91 96 98 98 98 98 98 99 75 80 75 90 100 96 99 99 70 75 80 63 59 56 56 60 54 48 59 57 54 56 47 51 46 33 20 4 4 10 18 21 19 21 31
48 50 93 95 99 98 98 97 97 99 89 74 62 69 80 75 99 98 99 95 90 79 64 57 53 56 53 58 62 53 54 57 53 56 34 18 7 8 18 28 39 31 40 53 56
44 55 91 95 97 99 97 98 97 99 96 63 70 68 59 86 96 96 98 98 90 76 68 61 54 53 50 52 58 57 62 74 67 39 18 6 8 25 36 40 45 56 62 53 44
46 49 87 94 97 100 98 96 99 98 80 63 72 84 65 69 95 92 85 95 97 97 92 96 90 95 81 77 94 95 97 80 20 3 4 18 23 36 41 50 61 62 51 47 44
54 48 75 90 78 95 95 98 98 100 97 82 82 75 89 84 69 85 100 99 84 90 98 100 99 100 100 100 99 90 72 17 2 1 3 17 41 51 50 60 66 50 43 48 50
56 53 67 95 75 90 98 93 97 97 97 97 96 94 76 78 78 85 92 93 95 94 98 97 98 97 98 95 72 37 25 16 9 15 33 34 50 65 72 56 43 56 66 60 27

GFSSW_500_rhum_009.txt.gz
RH
24 30 31 15 14 20 29 34 36 32 24 23 22 22 20 21 20 16 23 28 37 41 56 63 51 47 41 38 33 26 24 17 25 44 24 15 14 19 24 27 21 32 74 85 87
22 28 30 19 19 31 33 44 43 36 29 26 30 32 31 23 17 13 22 32 36 43 48 65 64 48 42 40 36 28 24 20 19 34 36 23 15 15 23 28 34 83 93 94 80
19 24 24 29 36 38 40 50 47 41 33 28 30 38 37 27 22 16 18 31 38 45 46 62 72 54 46 42 38 32 26 28 24 19 34 32 19 14 22 29 30 38 82 74 69
20 23 47 50 47 46 50 56 50 36 28 27 38 46 41 33 27 21 20 33 37 44 45 55 70 62 44 46 47 37 29 32 30 21 20 34 28 16 18 32 29 35 74 60 64
30 43 50 58 57 54 53 55 47 41 41 46 53 53 38 51 54 43 34 23 40 44 47 50 74 69 58 56 50 41 30 32 37 22 18 27 33 22 18 34 27 36 72 60 56
28 46 58 62 55 61 66 65 58 52 51 41 38 38 66 54 44 37 31 21 43 42 57 53 77 88 78 61 53 47 32 38 33 21 18 21 34 25 15 30 28 29 61 63 65
22 48 56 66 61 71 66 68 65 64 57 42 43 52 38 43 57 62 55 36 47 44 60 60 91 98 81 68 57 45 34 39 30 23 21 19 30 36 17 24 30 31 51 56 68
38 59 60 66 65 64 56 74 73 76 70 52 50 45 52 87 89 100 100 100 55 53 66 76 97 97 97 74 58 50 39 36 31 27 21 16 53 36 27 20 32 39 48 61 61
28 63 64 69 68 60 64 87 70 64 62 69 64 74 76 97 99 100 100 99 48 64 74 89 100 98 95 79 60 51 38 31 43 25 19 16 49 32 28 19 32 34 46 54 52
27 47 68 71 78 79 81 85 63 55 63 82 98 81 71 98 100 92 100 98 49 65 84 88 100 96 90 76 60 51 38 30 43 25 18 17 41 28 29 23 35 35 36 46 49
29 44 64 70 77 90 90 90 79 70 81 100 100 98 65 100 95 85 94 98 51 64 87 76 94 92 82 78 73 54 44 35 45 24 17 20 28 28 35 23 36 34 38 44 46
32 35 53 54 80 91 91 98 95 93 83 100 100 98 76 85 90 86 93 87 50 60 99 99 87 98 100 88 74 60 47 41 36 23 19 21 26 33 35 22 38 34 39 39 39
36 45 69 83 95 95 98 98 100 100 95 100 100 95 91 89 100 89 84 76 49 72 95 65 79 100 97 87 74 59 52 40 31 25 21 23 27 40 30 26 40 48 50 50 46
37 59 86 93 99 100 99 98 100 100 98 100 100 90 86 86 99 94 72 68 47 89 99 84 99 96 97 91 73 64 53 40 36 28 24 24 25 56 29 19 40 47 49 54 45
42 70 92 88 98 99 100 100 100 100 100 97 100 95 90 79 100 80 66 58 53 96 95 100 91 94 94 81 81 63 50 40 40 30 26 25 26 53 51 14 27 42 51 50 39
44 79 92 94 98 98 98 99 100 100 100 100 100 96 90 95 100 91 56 54 75 99 100 100 97 97 93 94 87 63 53 48 42 36 27 33 25 53 56 22 17 29 44 42 23
44 76 71 82 96 98 99 99 100 100 100 100 97 95 100 100 96 58 48 55 99 98 98 99 87 96 80 90 83 61 60 55 55 44 27 32 27 38 41 35 18 18 23 20 19
30 70 64 68 96 97 98 97 98 100 100 100 83 97 100 100 99 49 53 87 98 93 98 99 81 76 88 96 70 65 59 61 71 42 34 37 27 32 34 38 22 17 19 20 20
16 62 62 74 97 98 98 97 96 98 100 100 71 80 100 100 79 49 45 68 87 88 94 81 67 65 86 98 89 83 70 76 51 46 42 38 31 26 43 42 39 28 14 14 20
12 58 63 87 99 97 98 98 99 99 100 100 70 68 69 77 81 45 47 69 86 84 92 91 64 57 80 94 87 86 82 74 52 57 40 35 34 32 39 40 39 35 24 12 11
14 52 60 88 98 98 98 98 98 88 100 75 53 50 81 74 64 45 54 82 84 91 90 83 82 64 65 69 71 68 57 65 78 64 44 32 35 42 39 34 30 20 12 9 11
14 49 61 92 96 99 97 98 97 86 86 61 84 100 84 62 56 52 64 90 90 94 75 79 76 80 67 68 73 63 69 90 70 57 50 46 51 50 33 26 18 8 6 16 20
16 51 64 94 91 96 96 98 97 88 96 60 54 99 97 100 63 64 73 90 99 87 85 85 75 64 71 70 65 60 53 53 61 51 39 39 39 44 34 16 7 11 16 23 34
31 46 70 94 95 98 98 98 96 96 86 94 80 81 82 82 95 86 85 91 94 95 90 82 77 71 62 60 63 55 48 51 59 48 46 42 55 32 11 8 11 20 32 43 65
49 41 79 88 96 98 98 98 98 98 99 73 66 71 70 78 79 85 79 77 78 84 72 61 60 59 58 56 56 57 66 86 79 69 72 71 30 12 7 16 23 34 50 69 69
62 27 76 92 95 97 98 98 98 98 95 58 70 60 71 82 88 89 98 88 84 77 69 71 76 70 67 64 64 73 69 66 66 80 76 48 9 11 22 28 36 54 74 72 57
60 29 78 97 83 97 97 98 98 95 91 73 81 70 67 92 88 94 97 100 99 98 88 86 88 94 88 89 87 56 73 90 97 91 43 10 10 22 30 38 54 70 67 51 48

GFSSW_500_rhum_012.txt.gz
RH
17 22 22 22 22 26 30 20 14 13 22 27 36 31 26 20 17 17 15 23 18 23 30 34 43 54 58 54 46 39 30 28 25 19 36 34 16 12 16 29 29 27 18 32 78
18 23 20 20 21 29 26 20 16 19 28 34 35 34 32 27 22 18 22 22 24 20 25 34 37 50 54 57 50 40 31 32 30 21 22 36 29 14 16 26 30 27 29 68 69
18 22 16 16 20 25 31 29 27 31 37 39 41 38 30 23 20 16 25 23 23 19 22 27 39 38 52 57 52 43 32 36 34 26 19 25 37 19 14 22 30 31 65 72 79
18 22 17 33 32 41 43 41 43 47 45 37 37 35 27 25 22 20 24 28 26 23 19 23 34 38 40 54 57 47 41 36 37 33 18 18 34 26 12 20 28 28 35 54 75
20 27 17 31 46 42 42 45 52 49 43 39 38 34 34 33 30 33 32 36 31 26 26 23 33 47 36 56 65 56 46 41 38 35 22 19 26 31 20 16 29 27 25 61 61
15 34 16 22 46 45 49 56 58 46 35 34 37 39 41 44 43 40 34 34 42 31 25 30 28 48 58 58 68 64 53 44 40 38 28 21 25 17 30 13 20 27 26 59 61
16 37 23 30 57 55 58 57 49 44 42 50 49 46 42 41 33 32 37 36 35 41 32 29 34 59 68 63 72 69 57 46 43 41 29 25 23 22 44 20 15 25 29 33 66
14 29 39 26 65 69 65 55 53 59 49 54 54 36 27 45 38 41 38 32 24 34 51 26 31 45 64 70 81 78 59 42 53 43 30 26 26 37 28 29 19 26 30 33 64
14 24 45 31 35 54 66 60 65 62 54 66 52 39 32 54 69 65 48 39 40 38 45 34 28 43 88 75 87 87 54 42 55 43 33 23 31 33 22 30 25 24 30 44 54
14 23 46 35 33 49 53 60 68 65 70 73 60 54 54 58 85 91 54 93 87 52 39 32 38 46 89 82 65 78 59 49 51 44 32 22 32 30 20 25 32 22 32 41 50
14 23 48 36 51 54 76 80 77 73 86 84 77 71 69 71 96 88 69 96 100 93 56 62 54 50 84 78 84 87 76 53 53 46 32 21 33 25 19 32 25 26 34 35 46
15 23 47 41 76 91 95 85 85 86 88 97 90 99 94 95 100 75 74 72 100 100 100 100 62 57 92 95 91 91 71 54 60 46 30 26 27 26 20 29 30 26 35 32 35
16 25 44 42 99 99 99 95 90 99 99 90 98 100 100 100 89 79 78 82 97 100 99 84 43 90 94 98 92 89 68 59 66 44 28 29 30 26 23 24 33 26 32 34 40
17 30 40 42 92 97 100 96 98 100 98 83 100 100 100 100 76 76 95 83 97 94 100 81 98 98 100 96 93 89 69 71 66 45 31 29 29 31 29 24 31 27 35 42 46
18 37 33 61 79 90 97 98 99 100 95 98 100 100 100 95 78 76 100 85 98 99 100 92 100 98 99 82 97 88 72 77 62 48 32 33 28 32 27 26 30 25 44 50 50
19 42 26 67 74 84 98 100 100 100 97 100 100 100 100 75 81 100 87 95 100 99 100 100 100 99 98 97 97 90 80 68 60 48 35 32 30 43 36 45 38 20 35 44 43
20 47 23 63 70 96 99 99 99 98 99 100 100 100 100 84 96 100 91 94 100 75 98 98 99 93 96 98 95 95 80 70 59 49 34 34 29 45 42 44 48 27 16 24 42
20 48 28 52 76 97 98 99 99 99 100 100 100 100 97 86 100 100 98 100 100 74 99 98 100 94 68 98 76 83 78 67 58 51 36 40 30 38 48 57 52 39 22 17 20
22 53 28 54 95 98 99 100 99 98 100 100 88 82 80 96 98 98 94 100 100 83 94 100 91 91 78 82 91 88 75 67 66 52 35 46 35 40 36 34 35 36 30 17 17
22 52 29 55 97 99 98 99 98 98 100 100 48 56 80 95 99 65 89 95 83 94 98 100 87 88 72 93 90 85 88 74 58 52 47 53 45 43 39 30 30 36 38 38 30
22 49 26 54 98 96 98 98 98 98 100 100 41 50 69 87 57 56 94 90 60 88 99 100 99 83 90 88 93 74 82 73 66 53 46 53 46 35 35 39 39 36 35 35 32
23 48 24 64 98 95 98 97 98 90 80 52 38 45 69 88 48 60 85 84 60 68 82 94 69 71 50 68 97 98 98 97 78 53 48 48 52 46 39 41 40 35 30 23 18
23 42 26 86 97 98 98 98 97 83 65 80 53 56 96 98 44 47 63 77 67 74 72 81 74 70 78 76 70 75 76 74 65 58 58 64 50 46 46 56 49 30 16 11 7
22 41 31 91 97 93 99 98 98 75 74 76 81 78 84 59 46 52 61 100 91 91 90 81 80 79 63 56 63 66 65 72 66 60 51 47 54 60 71 84 45 30 20 14 17
24 49 31 92 98 97 99 97 98 94 84 59 71 76 93 72 48 46 55 77 82 81 95 94 83 86 75 70 72 71 78 76 72 63 51 67 71 64 63 53 30 12 10 13 33
22 39 38 76 98 97 98 98 98 98 98 96 77 78 60 78 62 80 78 74 83 64 74 76 79 74 80 70 67 60 60 63 62 60 50 53 48 85 62 30 19 10 14 33 51
23 37 50 51 100 97 98 99 97 98 98 86 81 67 65 65 81 99 90 95 98 97 93 85 77 79 80 75 68 63 57 61 56 50 52 50 72 66 41 14 11 16 36 48 59

GFSSW_500_rhum_015.txt.gz
RH
6 7 8 11 14 20 22 23 24 26 26 18 14 14 16 20 23 27 24 20 14 12 26 18 20 26 26 32 56 60 46 36 38 37 28 21 43 26 16 22 26 32 33 27 20
7 7 8 10 15 17 12 14 22 27 32 34 20 14 18 22 24 23 31 25 21 15 16 23 15 23 28 28 39 60 51 41 41 40 34 24 22 38 16 15 21 30 31 25 19
7 8 9 10 18 19 14 18 31 32 30 23 19 17 25 27 30 30 33 32 28 23 20 22 21 18 24 30 27 47 54 50 43 41 40 31 21 30 27 13 17 27 27 22 24
8 8 10 11 18 24 20 30 40 47 38 36 30 29 36 36 28 19 30 30 26 25 24 22 27 21 22 27 30 26 52 59 46 40 43 35 25 17 33 14 14 22 28 27 40
9 9 10 10 14 28 17 39 46 48 45 39 40 41 37 31 30 25 23 26 26 25 29 28 24 27 20 27 34 33 34 63 50 42 46 39 27 18 27 21 12 17 25 40 52
10 10 10 10 14 28 23 24 45 51 52 52 50 42 34 30 41 31 28 27 30 29 29 30 28 33 29 27 36 39 37 58 55 42 45 39 30 18 22 34 15 13 22 27 33
10 11 11 11 12 20 37 24 56 62 60 54 48 46 39 49 38 34 27 33 34 36 32 37 33 31 31 28 31 41 43 54 56 48 48 40 29 23 30 27 34 17 21 27 28
10 10 13 12 13 20 34 34 35 67 68 59 57 52 44 47 35 34 31 29 28 27 27 34 38 37 30 33 30 46 47 46 53 54 52 42 30 27 22 21 34 26 16 28 29
11 10 12 13 12 18 33 38 31 54 63 63 64 58 50 53 46 42 37 32 27 22 18 21 35 36 36 38 46 56 36 34 59 55 58 39 32 33 30 22 23 29 18 26 30
11 10 12 15 14 18 33 38 36 48 66 79 72 63 62 66 63 55 47 43 36 33 34 34 28 32 43 43 51 36 38 44 56 63 56 46 34 35 35 24 22 30 24 25 31
12 11 10 16 16 26 37 34 70 81 82 83 68 82 73 80 76 74 67 57 44 42 51 63 36 31 38 43 44 61 61 57 61 66 62 48 33 38 32 23 26 27 31 22 32
14 11 9 16 17 36 38 38 86 91 76 84 78 84 83 86 89 91 84 73 70 62 63 71 62 34 28 44 47 58 99 70 85 71 61 54 34 42 30 21 29 30 29 21 31
14 11 9 16 18 37 34 77 92 93 82 70 76 71 96 94 98 92 84 95 74 65 82 96 74 56 47 51 73 85 70 72 86 76 64 50 34 41 32 24 25 34 32 24 34
15 12 10 17 21 35 46 76 80 97 80 56 73 82 96 100 94 100 100 91 70 69 100 95 99 88 77 50 66 67 69 82 99 81 71 49 38 43 35 25 24 28 35 27 31
15 15 11 18 23 36 46 76 87 100 91 80 88 97 99 100 100 99 99 66 75 80 100 62 100 92 69 79 70 89 72 72 99 83 69 48 40 36 32 24 26 27 35 30 30
16 22 13 18 29 38 33 65 96 99 96 97 98 99 100 100 100 100 82 59 85 96 100 91 100 84 50 99 62 98 92 92 97 83 65 51 44 36 34 33 30 30 32 28 29
19 28 13 18 29 33 34 88 99 98 98 97 99 100 100 99 100 94 71 60 71 94 99 100 93 77 81 100 96 97 86 81 96 76 58 56 43 55 32 32 34 32 36 29 23
26 29 14 19 40 30 53 96 97 98 98 100 100 100 100 100 92 69 97 82 92 97 100 100 100 70 100 97 97 95 90 97 78 68 59 53 40 40 38 36 36 36 46 40 20
34 25 16 20 44 32 77 97 99 99 98 100 100 97 98 98 74 93 87 78 95 100 100 91 96 88 94 94 98 93 95 96 68 59 78 50 44 34 38 43 46 47 54 48 32
34 21 18 27 39 31 85 98 96 99 98 100 100 61 62 70 93 91 76 81 95 96 100 93 89 80 97 99 97 95 95 83 75 58 60 59 49 54 41 39 48 57 52 48 39
34 17 21 42 31 35 96 98 98 99 100 100 100 50 58 88 100 68 93 90 71 97 100 100 94 71 91 96 65 98 88 78 66 62 78 86 66 54 48 42 40 34 33 34 37
31 14 23 42 31 63 98 98 97 99 82 96 100 52 53 81 71 85 99 95 56 98 99 99 97 95 89 54 95 97 96 88 70 65 62 50 57 60 59 46 39 35 33 34 35
27 14 21 47 38 94 98 99 98 99 68 56 51 47 48 56 61 90 89 64 62 91 94 99 95 96 85 83 72 88 83 85 88 67 58 59 62 61 61 57 51 51 46 39 34
22 15 25 47 37 96 97 99 98 97 75 56 37 38 51 47 57 99 98 62 82 91 100 95 98 100 94 81 69 75 97 93 87 78 66 56 72 52 75 75 64 55 46 40 35
19 16 28 43 38 96 97 99 97 98 92 62 82 82 56 45 54 84 95 69 76 91 90 70 58 62 69 56 69 96 94 91 81 85 66 70 66 71 93 67 54 47 43 50 35
14 18 31 49 38 97 97 98 98 98 96 82 69 94 87 43 47 65 76 63 67 64 71 83 82 82 81 77 80 76 73 65 67 61 64 58 63 88 63 63 55 46 47 46 23
16 18 29 52 34 90 98 98 99 99 98 100 97 81 98 55 53 50 93 94 88 79 87 83 83 81 85 75 74 60 58 52 52 52 51 55 65 65 57 72 52 58 52 28 13

GFSSW_500_rhum_018.txt.gz
RH
5 5 5 5 6 6 8 10 14 15 14 15 24 27 16 14 12 13 16 19 24 24 23 20 13 19 26 17 25 26 28 45 43 49 45 41 28 25 34 23 22 32 31 27 28
5 5 6 6 6 7 8 9 14 15 12 12 18 24 28 25 15 13 14 18 24 28 27 22 16 14 21 23 19 24 22 23 52 54 49 43 31 30 24 32 18 22 29 29 32
6 6 6 6 6 7 8 10 15 21 15 16 26 35 31 24 28 16 14 29 31 33 34 27 22 17 13 24 20 20 21 24 37 57 53 42 35 37 25 34 24 16 23 22 23
8 7 6 6 7 8 10 10 16 24 19 23 29 38 42 34 27 21 30 46 40 39 36 33 30 24 21 19 25 17 20 30 29 53 53 40 45 32 31 24 33 16 14 16 28
9 8 7 7 8 8 10 11 16 22 23 20 36 39 42 35 45 27 30 39 38 33 33 30 22 22 20 22 28 19 15 25 30 38 52 41 45 38 31 24 32 30 14 15 23
10 9 8 7 8 9 10 11 14 18 33 25 29 39 44 43 58 42 39 38 34 32 29 28 27 26 22 22 23 25 21 21 29 31 41 45 47 39 36 28 23 40 20 14 19
10 10 9 9 8 9 10 11 11 16 27 36 33 49 39 59 51 48 40 42 34 31 29 27 24 25 27 27 26 24 21 22 22 29 25 46 43 34 40 28 24 42 30 13 16
13 11 10 10 9 8 10 12 12 14 21 32 30 37 49 66 49 57 47 43 40 34 29 29 32 33 34 29 30 31 24 14 16 26 24 33 38 45 40 32 29 22 33 22 16
17 14 11 11 10 9 9 12 13 14 26 33 30 26 33 64 57 48 49 51 45 40 37 34 34 38 40 38 40 32 23 14 17 23 28 24 38 48 45 39 32 23 29 30 17
18 17 15 12 11 11 9 12 16 15 30 33 31 36 41 64 65 66 64 60 56 48 43 35 32 31 28 26 26 28 27 21 15 25 31 24 36 47 46 39 33 22 22 25 20
19 17 17 15 13 12 9 13 20 19 30 36 46 72 73 84 80 75 68 62 65 61 55 46 40 35 27 20 17 28 42 36 28 22 32 32 46 51 50 44 34 28 22 22 28
15 18 18 17 14 12 10 15 25 23 28 34 70 74 84 79 73 71 72 68 75 70 74 69 49 41 37 26 23 19 29 44 40 36 38 42 38 52 45 49 38 31 26 23 30
13 20 18 19 16 13 12 15 28 32 31 31 64 70 78 66 71 87 94 97 87 86 86 84 53 72 57 43 32 26 26 35 60 62 40 48 39 53 48 48 38 32 26 26 28
15 21 20 19 16 14 14 16 34 34 29 37 51 64 87 85 77 100 96 97 79 75 99 94 78 70 59 48 40 24 20 31 90 97 59 55 36 54 54 51 39 36 31 25 36
18 20 21 19 16 18 17 21 42 39 34 47 75 88 95 100 96 96 100 100 93 100 100 76 64 62 66 64 69 35 47 56 53 62 98 56 48 52 49 48 36 34 28 23 36
34 21 20 18 17 22 18 23 44 43 39 82 98 94 87 91 95 98 87 99 100 100 92 68 71 84 72 90 60 40 95 84 97 98 76 74 58 52 58 41 37 34 26 22 30
45 23 20 18 20 24 18 29 41 39 85 96 98 95 96 95 88 90 100 100 100 96 79 84 82 92 100 93 43 44 94 97 99 90 82 63 66 64 63 45 32 33 23 24 29
41 23 19 18 25 23 17 32 40 60 100 99 98 97 97 97 78 87 100 100 98 88 93 81 82 97 95 64 46 46 96 97 96 69 79 52 82 57 57 45 32 30 25 27 29
30 21 18 22 27 18 17 34 39 98 99 99 98 99 100 56 60 93 100 93 89 70 80 89 93 98 76 77 85 83 96 97 96 75 62 51 72 59 57 42 36 27 29 32 32
26 21 20 25 22 18 19 39 57 98 99 98 99 99 98 47 58 75 75 84 76 82 100 100 100 83 99 100 98 99 100 97 99 88 76 83 75 57 52 42 35 33 34 36 36
26 20 26 27 23 17 43 37 97 98 98 98 100 92 63 64 90 98 99 98 87 96 100 100 100 97 94 93 96 98 98 98 98 81 88 88 73 52 44 42 37 37 43 54 54
24 21 30 28 22 32 44 85 95 98 99 87 74 53 52 62 79 78 82 65 62 96 99 100 100 99 88 88 98 97 98 96 91 96 88 81 58 51 50 46 47 40 38 41 40
23 25 31 27 18 60 42 99 96 99 98 59 40 41 37 43 71 79 88 83 90 99 98 99 87 98 74 99 95 97 96 96 82 78 85 63 57 49 56 58 56 48 42 41 36
24 28 26 20 26 58 46 98 98 99 97 52 30 35 34 42 82 98 92 88 91 100 100 100 100 74 80 92 98 94 89 100 95 79 70 66 58 60 70 65 59 56 51 45 42
24 30 25 24 39 64 44 98 99 99 97 66 35 40 40 45 78 79 100 95 91 99 99 95 97 97 94 72 94 98 95 95 88 82 76 85 66 57 62 68 64 62 57 49 42
26 30 22 33 57 59 52 98 99 99 99 81 79 44 35 39 66 99 100 97 89 92 91 93 97 99 98 96 84 74 65 74 80 94 91 84 78 72 54 54 74 70 58 49 45
38 27 24 42 62 72 62 98 98 98 98 94 80 60 34 35 51 96 98 98 99 97 97 100 100 90 61 65 75 76 75 78 71 70 69 82 82 92 76 72 70 57 53 57 56

GFSSW_500_rhum_021.txt.gz
RH
8 8 7 6 6 6 5 5 6 7 7 9 12 12 11 14 23 14 11 11 12 15 17 22 24 27 25 25 25 30 16 13 17 35 64 58 45 35 32 28 30 26 30 30 28
11 9 8 6 5 6 6 6 6 7 8 8 13 14 12 13 14 22 20 13 12 13 16 20 26 26 24 22 16 14 13 13 22 23 50 68 56 34 36 32 33 30 26 27 21
11 10 9 8 6 6 6 6 6 6 6 7 11 18 15 14 15 28 28 28 19 14 14 16 28 26 28 25 18 15 9 19 19 24 27 56 56 39 39 38 35 32 27 22 21
11 10 10 9 7 6 6 6 6 7 7 8 10 17 16 17 30 34 38 32 30 25 17 15 23 22 27 27 23 15 13 17 21 22 23 23 48 44 35 42 31 25 33 28 16
11 10 10 9 8 7 6 6 6 7 8 9 11 12 19 20 39 27 38 40 36 33 29 28 27 32 33 33 30 19 18 18 19 16 21 22 20 44 44 40 38 29 24 34 21
12 10 9 8 9 8 7 6 7 7 8 9 10 10 18 35 31 23 36 52 49 40 36 34 36 33 28 30 24 20 13 12 15 14 14 19 19 22 50 50 36 36 27 27 34
16 12 10 9 8 9 9 8 8 8 8 10 10 10 14 34 29 30 35 53 50 48 42 38 34 30 26 24 21 17 14 14 12 17 12 21 14 14 44 54 39 38 34 22 30
20 18 16 12 11 10 10 9 9 9 8 7 10 10 18 24 28 31 37 56 49 47 49 48 43 38 33 28 25 19 18 14 15 20 18 19 7 16 25 52 43 41 37 21 31
19 19 20 20 17 14 13 11 11 9 10 8 9 10 20 31 31 30 32 58 62 56 54 47 42 42 39 34 30 24 19 17 19 25 23 23 12 17 30 42 48 42 40 26 22
54 22 18 19 20 17 16 15 13 10 10 10 9 12 24 38 38 46 41 50 47 51 55 56 51 48 45 37 31 35 40 37 26 34 31 26 14 18 32 35 47 44 41 28 22
52 61 43 17 20 19 17 17 14 12 10 11 10 17 27 38 50 65 64 67 68 64 67 70 53 48 57 48 40 36 35 28 28 27 36 27 20 17 30 35 46 48 40 29 23
30 55 62 45 15 20 19 17 16 13 11 12 12 21 34 35 52 66 70 67 70 72 75 61 45 72 69 55 40 33 29 25 27 36 51 34 24 18 31 34 39 52 43 33 25
7 45 61 63 22 16 19 20 18 15 12 12 24 31 33 38 53 84 76 74 73 72 80 73 72 91 81 69 54 41 33 27 22 24 30 56 29 18 21 25 48 52 46 35 28
6 22 60 72 42 15 20 22 18 15 14 16 18 37 48 68 66 88 73 81 74 82 100 74 91 89 94 78 71 52 49 39 27 21 18 39 29 19 15 21 44 56 47 46 30
15 19 58 65 76 19 20 22 17 16 18 19 30 41 72 78 68 87 84 88 85 95 100 84 83 100 86 64 95 56 62 44 32 28 20 29 55 19 20 17 36 52 47 42 31
52 53 63 61 80 20 20 29 18 19 19 27 40 64 79 85 86 85 86 93 99 100 99 92 96 84 76 81 76 62 63 55 46 27 23 19 96 72 23 25 30 51 49 45 30
64 82 59 60 72 23 23 21 19 20 35 36 68 78 83 92 95 98 94 88 90 100 100 99 88 95 93 75 68 56 46 46 45 29 16 67 94 51 54 38 34 50 46 41 29
91 74 52 68 75 24 21 19 20 27 44 54 84 89 95 96 92 84 45 42 60 100 100 100 99 92 68 63 71 59 59 51 40 24 13 28 84 80 65 44 43 51 47 40 32
100 72 65 93 47 23 23 19 26 47 49 85 91 95 95 100 100 57 51 58 95 100 89 84 71 87 90 100 93 96 72 64 31 18 49 72 88 84 69 62 59 44 42 33 31
96 78 62 100 30 33 19 23 42 44 99 97 97 96 100 100 76 75 63 66 86 86 86 80 94 99 100 100 97 81 56 94 69 98 72 96 73 42 40 61 53 42 40 32 29
95 84 96 74 34 21 22 32 50 68 100 98 98 100 98 67 78 92 99 90 87 83 92 98 100 100 100 97 68 94 84 94 94 91 99 88 57 47 70 69 55 44 36 33 32
100 88 94 38 35 22 28 54 52 85 99 98 99 71 53 52 62 86 57 66 67 98 99 98 100 100 97 58 94 99 100 98 95 97 99 73 53 51 79 62 49 40 36 37 41
98 95 79 34 27 27 38 62 58 100 99 97 84 35 31 47 51 48 26 37 70 99 100 100 100 70 69 93 93 95 99 99 97 100 98 88 69 80 68 52 43 46 44 43 44
86 100 52 31 28 38 47 62 90 99 97 86 35 27 30 35 58 39 42 63 86 96 99 100 99 89 97 95 92 100 97 95 96 98 98 83 78 65 56 61 53 54 55 50 46
93 88 37 26 37 44 47 60 76 99 98 66 31 30 26 39 63 60 89 75 91 96 99 99 98 100 74 86 96 98 97 97 99 100 98 88 87 71 64 63 63 64 57 51 48
100 62 25 40 52 45 65 59 90 100 98 63 33 36 24 18 60 76 91 74 91 100 99 98 99 100 87 70 88 96 97 98 96 93 91 97 93 86 75 62 62 56 58 60 58
97 31 35 41 60 86 84 50 98 99 98 93 42 36 37 37 49 76 74 87 88 100 95 97 99 98 100 90 84 83 92 98 98 98 97 97 89 89 80 74 67 60 53 61 61

GFSSW_500_rhum_024.txt.gz
RH
13 12 11 10 10 8 8 7 7 7 7 6 7 7 8 9 11 12 16 19 13 10 11 13 15 18 20 22 21 22 17 9 12 16 26 46 51 45 41 40 36 31 24 23 24
15 14 12 11 10 8 8 8 7 6 6 7 7 7 7 8 12 16 13 14 21 12 10 12 14 16 18 22 24 23 16 10 15 18 21 38 39 49 41 39 38 32 25 24 23
15 14 12 11 10 10 9 8 7 6 6 7 6 5 5 7 13 19 16 19 19 23 16 12 12 14 16 21 23 22 13 15 15 18 15 25 24 35 45 40 44 38 27 28 25
15 13 12 11 11 10 10 9 8 7 6 6 6 6 6 8 12 21 26 28 26 24 21 24 20 13 14 16 22 14 19 20 18 20 17 16 25 20 30 44 49 44 32 23 31
17 15 13 11 11 10 10 9 8 7 7 6 6 6 7 8 10 12 25 24 29 30 26 23 25 23 15 14 16 14 17 20 20 17 16 15 14 17 16 32 57 49 40 30 25
20 18 16 15 12 11 10 9 9 8 7 7 7 6 7 9 7 8 18 28 26 29 35 31 29 27 21 15 14 16 22 26 19 23 19 16 10 10 14 19 42 52 50 42 33
21 20 19 17 16 13 11 10 8 8 8 8 8 8 7 7 8 10 13 23 26 28 36 41 41 29 25 22 20 21 22 24 20 22 24 23 14 9 12 23 25 46 50 44 41
21 19 20 20 18 16 15 11 10 9 9 8 8 9 9 8 8 10 14 20 23 26 38 51 48 47 42 34 32 29 25 20 20 19 19 27 9 14 12 17 24 39 55 48 44
63 43 21 19 20 20 20 20 17 14 11 9 9 9 10 12 10 12 16 22 25 27 27 43 56 52 49 43 40 33 26 23 24 33 35 31 14 18 16 15 22 29 55 52 45
41 52 60 43 22 19 20 20 20 19 13 12 11 11 10 14 12 13 21 25 29 37 41 39 44 57 56 52 37 40 40 37 31 34 30 26 14 19 23 20 21 24 39 53 46
23 16 33 48 60 39 20 18 20 20 18 14 12 13 12 14 13 14 24 31 43 47 61 66 43 38 49 51 44 40 36 33 36 34 30 23 18 16 20 20 16 23 28 42 48
19 23 12 18 40 61 59 32 18 19 19 18 14 14 13 12 17 30 29 32 38 48 58 57 50 60 75 66 55 55 48 44 42 36 30 29 18 15 17 17 15 20 28 37 51
3 5 16 11 10 37 60 62 40 18 19 18 18 17 18 18 18 38 35 41 48 54 62 62 59 63 67 68 62 62 54 54 46 40 34 31 22 19 18 22 16 17 25 28 46
21 8 5 7 11 23 52 60 57 22 17 18 23 28 25 28 26 35 45 62 62 60 70 55 63 69 78 78 96 71 75 67 53 40 34 33 22 23 22 16 14 19 24 25 35
88 66 7 6 15 27 42 58 63 36 21 22 27 33 32 28 29 48 72 74 72 73 70 65 73 86 81 100 98 78 98 86 68 53 41 35 26 17 22 14 13 17 23 27 38
90 100 40 10 34 42 46 56 65 47 20 24 36 33 31 29 33 75 89 86 85 88 83 88 84 89 95 100 98 93 99 100 96 80 58 38 35 18 21 16 21 18 23 29 53
100 86 96 70 75 65 56 49 63 56 35 34 36 33 33 31 64 92 96 96 98 99 96 95 91 95 100 100 100 100 100 100 100 88 45 39 40 17 17 23 24 20 21 29 54
75 100 84 80 89 68 52 48 63 45 26 28 28 30 32 69 97 100 93 90 67 50 43 98 99 93 99 100 100 100 100 100 98 78 53 42 28 15 16 60 61 23 20 30 61
100 84 100 75 93 63 52 58 58 28 26 27 37 32 67 99 94 74 61 59 57 45 78 75 90 99 100 100 99 79 83 63 72 66 60 44 19 14 16 54 65 28 23 30 54
97 73 81 90 76 79 68 76 52 26 36 33 49 60 95 100 58 38 33 48 56 53 75 69 67 84 80 67 69 57 78 83 69 41 36 26 24 13 17 59 52 51 35 46 48
98 100 99 100 85 70 69 78 31 36 42 44 84 92 100 76 32 26 29 31 34 47 58 74 78 76 62 76 91 100 92 48 68 67 42 22 16 12 26 74 82 70 66 55 48
100 100 100 100 79 97 94 38 35 41 47 54 94 98 95 38 25 19 22 22 32 54 92 96 78 99 100 100 100 100 96 100 78 44 63 68 56 31 54 79 85 94 81 53 43
99 86 100 67 79 100 78 39 35 50 62 96 99 98 59 34 30 17 20 26 50 88 99 100 100 100 100 89 64 46 86 100 92 93 96 100 83 88 80 75 83 70 57 50 51
77 97 92 67 82 88 99 34 50 66 94 100 99 87 29 38 35 50 27 36 70 97 98 100 100 98 99 96 96 77 86 92 97 97 99 98 99 89 61 82 67 54 50 54 51
100 92 97 58 89 98 48 44 77 86 100 98 99 53 21 29 47 48 32 57 97 100 99 100 100 96 93 94 98 95 98 96 95 99 99 98 98 96 84 94 74 73 68 62 58
92 100 88 68 88 61 40 50 86 78 94 100 97 34 19 26 40 41 44 83 97 94 99 98 99 99 96 98 98 99 99 96 96 99 98 92 98 91 93 78 76 75 71 69 68
100 100 95 100 100 51 47 61 82 78 98 99 94 33 22 26 39 36 66 62 90 96 98 100 100 98 88 89 97 99 99 97 98 98 98 98 98 98 97 91 85 80 79 81 78

GFSSW_500_rhum_027.txt.gz
RH
19 16 15 13 12 10 9 10 13 10 8 6 8 8 7 7 10 9 10 9 11 13 15 15 12 12 10 13 16 17 13 11 14 18 19 24 23 29 46 48 43 36 29 27 23
20 17 17 16 15 13 11 11 11 12 10 8 8 7 6 6 9 13 6 9 10 12 14 15 12 10 10 14 15 18 14 13 20 26 26 24 20 20 30 49 51 42 33 29 24
20 19 18 16 15 14 12 11 10 11 10 8 7 6 6 7 8 14 8 11 13 12 13 15 17 11 11 13 15 16 14 19 23 26 23 25 16 15 16 30 54 55 40 31 26
21 20 18 16 13 13 13 12 11 11 10 9 8 8 8 8 8 13 8 10 13 15 17 21 18 20 14 11 12 13 15 19 23 28 24 19 19 10 10 15 36 55 52 38 29
19 22 20 17 13 11 11 12 12 10 9 8 8 8 8 8 7 7 9 11 12 16 15 18 25 20 18 20 19 12 13 14 15 21 26 21 14 12 7 10 18 40 57 50 32
22 20 22 20 17 14 11 12 12 11 10 8 8 7 8 7 7 9 9 9 9 11 14 19 22 23 25 19 20 23 14 13 12 15 20 26 18 15 11 10 14 19 43 55 47
59 21 21 22 20 18 16 14 13 11 10 10 9 8 8 7 8 8 8 8 9 9 10 14 18 20 27 33 23 23 25 14 13 13 23 33 21 13 16 17 13 17 20 52 54
55 63 25 20 21 21 20 18 17 14 12 11 9 10 9 9 9 9 9 9 8 9 10 12 15 18 23 40 36 28 27 20 17 20 23 32 12 19 19 22 16 13 22 33 66
28 48 66 51 20 20 21 21 19 19 16 13 11 12 11 10 10 11 10 10 10 12 14 15 19 20 21 28 44 43 35 32 26 29 28 27 14 21 20 16 18 17 17 24 47
28 21 39 63 65 35 19 20 20 21 20 19 18 16 14 12 11 11 11 11 11 11 13 18 20 18 22 28 35 58 52 45 39 44 43 29 16 16 19 15 13 17 14 20 24
15 34 33 25 49 65 59 40 19 19 20 20 18 19 17 14 13 12 12 12 12 12 18 20 17 19 45 50 32 43 53 50 46 46 45 31 21 16 16 18 15 13 14 15 19
3 5 23 33 24 38 52 62 62 36 19 19 20 20 20 17 16 15 15 14 13 14 16 19 21 31 50 57 54 41 45 53 50 46 38 37 24 22 18 16 16 14 12 13 15
3 6 3 7 27 27 17 35 53 60 53 27 18 19 20 19 18 24 20 18 16 17 21 27 33 48 50 58 59 59 47 51 54 60 44 28 19 24 22 21 20 16 12 12 12
3 88 58 4 4 19 19 14 20 42 55 53 38 20 20 20 21 24 26 25 22 24 28 25 47 66 66 63 78 68 73 76 74 72 56 44 16 23 22 23 21 19 14 9 12
35 100 100 17 7 4 33 22 16 21 35 39 43 38 26 23 26 28 30 29 24 27 46 57 68 72 61 67 87 61 92 86 85 79 64 56 43 20 30 25 21 19 17 14 12
66 100 100 100 51 10 12 22 30 30 30 37 41 44 37 30 28 31 32 26 25 51 72 73 69 69 71 82 83 79 94 100 100 98 61 58 59 22 28 28 24 23 23 18 17
100 100 98 95 92 48 17 30 34 27 30 36 48 48 38 31 31 31 26 29 62 80 75 67 61 64 83 94 99 100 100 100 100 98 53 62 74 29 30 34 28 24 21 21 19
98 100 100 85 100 100 74 46 31 26 38 47 53 51 37 31 33 30 44 80 76 42 25 25 26 41 50 97 100 100 100 100 100 85 84 95 54 25 32 39 30 24 24 23 19
100 100 99 100 100 85 67 38 42 43 44 58 57 35 30 31 32 63 88 57 18 16 17 19 20 48 59 99 90 97 99 97 100 100 100 90 46 33 38 36 32 22 25 26 23
100 100 100 100 99 100 97 50 57 53 55 57 38 35 40 39 63 89 47 18 16 18 20 28 30 56 66 85 80 100 100 100 100 92 87 54 40 31 40 33 29 26 29 34 25
100 93 89 100 100 92 60 58 64 57 65 40 32 36 42 54 89 71 18 16 15 25 31 45 41 58 50 39 62 76 86 84 82 93 66 48 39 33 39 25 17 20 81 56 34
71 96 100 100 100 70 44 91 65 76 61 43 43 50 56 75 95 22 16 16 24 28 47 69 92 91 69 77 82 87 55 59 68 60 63 47 27 31 34 25 17 21 74 52 50
97 100 100 100 90 60 72 88 75 99 54 49 64 65 83 95 57 20 13 16 26 32 46 89 82 96 100 100 100 100 100 100 100 100 80 61 42 29 20 17 14 39 85 78 72
100 100 100 100 89 97 77 92 97 65 64 88 83 92 93 75 31 25 20 26 35 48 90 94 97 100 100 100 100 100 98 94 99 80 76 69 99 30 33 26 39 74 80 93 65
100 100 100 92 99 76 93 100 77 62 71 100 96 94 99 43 33 28 24 29 54 97 90 96 100 99 100 92 99 96 100 95 98 100 98 100 100 99 80 84 94 97 98 81 57
100 100 99 100 87 80 92 100 99 58 86 100 97 98 96 28 27 35 35 31 84 97 97 98 99 100 92 96 100 98 98 97 100 96 97 98 87 80 96 99 84 96 89 75 83
100 88 96 100 89 84 100 100 59 61 96 93 98 100 53 23 33 51 39 77 96 98 99 100 99 100 92 98 98 97 98 94 100 98 98 96 99 99 92 96 92 99 93 85 78

GFSSW_500_rhum_030.txt.gz
RH
43 42 31 19 18 16 14 12 10 9 8 7 7 10 11 10 10 8 9 6 10 10 10 10 12 14 14 16 15 14 11 8 13 14 16 22 18 16 16 21 33 42 40 36 33
48 41 30 19 18 16 15 14 13 11 9 10 10 10 11 9 6 9 8 8 9 10 11 10 10 12 13 13 13 12 9 12 17 18 20 25 22 16 13 16 21 41 50 41 36
52 44 26 21 19 18 18 16 15 13 11 11 12 13 15 14 9 11 7 10 11 13 12 10 11 12 13 13 13 12 10 14 15 19 20 26 26 24 15 12 15 22 44 46 39
50 54 29 21 21 19 17 16 16 16 13 11 11 12 15 13 10 13 9 10 13 11 12 12 12 13 14 14 15 13 12 13 14 16 19 26 26 20 10 10 12 15 18 41 45
41 57 42 20 21 19 17 15 16 16 15 13 12 12 13 12 10 9 10 9 10 12 13 12 12 12 14 15 14 12 16 13 11 12 16 24 26 25 16 9 11 12 14 24 47
20 46 57 22 22 21 18 14 13 15 15 13 13 12 11 10 7 10 10 8 8 8 8 9 11 10 13 16 17 17 17 17 18 14 12 15 20 21 23 21 12 11 12 16 41
20 26 50 51 20 23 20 17 13 13 14 13 12 10 10 9 10 10 9 9 9 8 8 8 8 8 10 15 13 15 17 21 20 26 20 14 14 13 21 27 18 14 14 15 19
43 25 31 57 44 20 22 20 18 15 13 13 13 12 10 9 9 9 9 8 8 8 8 8 8 8 7 11 11 12 14 19 27 23 25 20 10 14 16 26 21 15 15 17 16
36 42 24 34 60 44 20 22 21 20 18 16 14 14 12 11 10 10 10 10 10 10 10 9 9 9 8 10 13 15 16 19 30 36 28 24 14 14 17 25 24 16 11 14 14
5 50 46 24 39 64 51 20 21 22 21 19 19 17 14 12 12 11 11 12 12 12 10 10 10 10 11 15 15 17 15 16 18 37 40 26 18 16 16 19 22 17 11 12 12
3 9 45 46 24 38 65 64 25 20 21 21 20 20 19 16 16 14 14 13 13 12 12 11 11 11 16 16 15 15 16 18 23 25 43 42 21 20 15 12 16 14 12 11 12
2 3 4 25 32 26 33 57 66 47 24 20 20 21 21 20 19 19 18 15 14 13 13 12 13 15 16 16 17 19 20 22 32 39 30 44 24 24 20 13 15 16 17 15 14
2 2 3 23 55 37 30 30 49 64 59 42 27 19 19 20 20 20 19 18 18 18 20 20 20 19 20 21 22 24 30 40 47 59 49 29 17 35 32 18 19 19 20 16 16
2 2 3 98 68 37 31 25 26 36 56 60 57 48 34 22 19 20 19 19 19 20 21 20 22 24 24 23 28 30 46 60 61 62 49 62 18 23 36 28 20 22 20 19 19
2 3 3 58 65 58 54 41 25 26 35 39 46 51 51 48 40 29 22 19 20 24 26 27 29 27 22 32 54 51 66 68 64 62 58 51 49 12 22 33 26 20 21 24 25
3 3 4 9 100 100 100 43 20 36 31 27 25 31 38 42 42 42 37 30 28 28 29 30 28 27 38 66 69 71 71 74 80 78 54 47 56 20 26 22 26 24 20 23 26
5 4 4 99 100 100 100 70 49 27 34 34 28 24 24 29 37 40 38 31 30 32 32 33 36 46 45 44 54 67 84 94 94 82 48 49 46 22 25 32 38 41 33 32 30
10 4 20 100 100 100 91 79 32 17 28 38 34 30 30 35 40 45 40 33 33 35 38 45 32 15 16 18 38 51 100 100 100 94 87 92 43 21 30 34 46 42 42 33 27
6 4 100 100 100 100 100 86 50 24 24 38 38 36 33 30 37 44 35 33 43 55 31 12 12 20 22 18 26 27 46 91 100 100 100 75 50 34 32 41 45 50 46 38 32
5 60 100 100 100 100 94 80 75 48 30 38 38 34 35 37 52 42 36 53 62 18 13 17 20 34 36 30 36 44 61 68 79 100 98 66 52 34 33 47 50 53 45 38 30
29 100 100 100 100 100 94 95 100 87 52 48 46 47 46 53 44 35 50 81 20 15 24 26 25 38 54 92 81 68 49 56 88 94 100 82 50 46 35 42 45 47 47 35 28
89 100 100 100 100 100 74 81 95 65 66 60 53 52 53 40 33 43 87 44 14 15 20 25 32 40 67 94 100 100 99 100 91 66 82 86 43 41 43 50 51 56 47 51 50
100 100 100 100 65 57 83 100 92 77 66 62 61 58 47 40 51 89 73 18 14 15 24 50 46 54 60 90 99 100 100 100 100 100 93 100 36 60 44 49 58 39 30 40 73
100 100 100 95 92 92 100 86 94 75 89 88 71 45 50 64 97 80 27 15 17 25 55 52 71 97 94 100 100 100 99 100 100 98 99 96 88 87 61 41 46 25 22 61 74
100 89 76 88 82 95 100 98 100 81 89 83 61 78 76 99 99 32 16 21 29 52 72 73 94 92 91 100 97 94 99 100 99 99 100 100 51 41 35 46 20 18 21 76 68
100 92 63 100 99 100 92 84 100 100 86 57 82 92 99 100 64 21 22 33 37 46 78 93 96 98 99 99 98 98 98 98 100 100 99 100 91 25 22 23 15 14 51 88 86
99 100 100 100 98 99 100 100 100 100 98 56 91 100 100 91 27 22 34 35 77 87 87 95 98 99 96 98 98 99 89 96 76 99 100 100 74 66 19 36 39 29 44 97 96

GFSSW_500_rhum_033.txt.gz
RH
10 14 32 42 37 36 26 20 18 18 16 16 13 10 7 6 6 6 12 9 12 12 12 11 11 10 11 11 12 11 9 10 13 16 15 18 18 18 16 16 16 18 31 37 38
13 14 34 46 44 34 21 19 18 15 14 13 12 10 8 7 6 9 10 13 13 10 9 9 10 10 9 10 10 10 9 14 16 13 12 13 11 12 11 13 15 15 16 24 38
38 8 37 48 48 36 22 20 18 16 15 14 13 12 11 9 7 12 12 13 11 7 7 10 10 10 9 10 10 10 12 12 12 12 14 17 16 14 12 10 13 13 14 15 20
53 8 37 44 52 32 22 21 19 19 18 16 14 14 15 14 11 13 11 12 11 7 8 10 11 12 11 10 11 10 12 13 13 12 13 18 18 17 14 15 16 13 11 12 13
43 29 20 39 52 39 22 23 20 19 18 17 15 15 16 17 16 13 12 14 12 9 11 12 12 13 11 12 12 11 14 13 14 13 12 13 16 17 17 20 18 13 9 11 13
7 38 34 31 47 54 22 23 21 18 17 18 17 16 18 19 17 17 16 15 14 11 12 11 12 12 12 15 13 12 15 17 16 16 16 15 12 13 16 25 23 17 13 15 13
6 8 33 39 25 54 35 22 23 19 15 16 18 18 18 16 16 15 13 14 13 10 10 9 8 8 11 12 11 12 13 14 17 18 13 14 12 10 13 18 20 17 14 14 13
4 5 9 47 27 34 57 21 23 21 15 14 16 17 18 17 15 14 13 14 13 10 9 8 8 8 8 8 7 8 9 12 13 14 16 15 11 16 18 14 15 15 12 13 15
4 3 4 18 48 23 50 47 21 22 18 14 13 16 15 14 13 12 12 12 12 11 9 8 9 8 7 8 9 10 9 10 12 12 13 13 11 15 16 18 14 15 12 9 14
2 3 3 4 44 33 24 58 34 22 21 18 17 15 14 14 14 13 12 11 11 10 10 10 9 8 8 11 10 10 10 11 12 14 14 13 11 14 15 16 17 13 14 11 11
2 2 3 3 10 53 28 26 63 23 22 22 20 19 18 16 15 14 13 13 12 12 12 11 10 11 12 11 11 11 12 13 18 17 17 15 13 12 15 15 16 18 14 12 12
2 2 3 4 52 71 47 30 47 62 26 21 22 21 21 20 18 17 17 16 15 14 13 12 12 12 12 13 13 15 17 17 18 19 18 18 15 15 15 16 17 20 20 15 13
5 2 3 3 36 87 59 43 31 57 66 36 21 21 21 21 21 21 20 19 18 18 17 16 15 17 18 19 19 19 19 19 19 21 20 20 15 17 18 18 18 22 24 21 15
6 3 3 4 65 99 98 54 36 34 61 68 48 29 20 20 20 21 20 20 20 19 19 18 19 19 18 17 21 19 22 25 24 23 21 25 15 15 19 24 22 26 32 31 30
5 5 4 4 100 100 99 97 77 37 46 54 65 54 39 32 28 24 21 19 19 18 18 19 20 21 22 25 26 27 29 29 28 26 24 23 26 11 16 24 36 32 40 40 37
63 9 5 4 96 92 76 100 100 72 39 36 43 58 58 53 49 48 44 40 40 38 35 32 30 28 28 32 33 35 37 41 46 53 39 32 36 16 20 26 39 48 40 42 37
91 35 6 4 55 100 100 100 87 68 58 45 35 33 44 46 44 44 42 38 39 38 36 34 31 32 37 40 37 30 18 15 16 18 26 43 52 22 23 30 38 46 55 42 41
100 80 7 4 100 100 100 100 92 55 57 53 41 33 28 26 24 24 23 29 36 37 35 31 35 39 31 22 16 15 17 20 23 18 16 22 18 18 28 35 46 47 51 54 42
86 54 7 4 100 100 100 100 92 94 77 53 39 39 34 29 26 25 28 36 42 38 33 34 40 26 15 16 24 31 48 54 40 34 32 25 16 14 21 35 42 57 55 62 53
58 8 5 4 86 100 100 100 98 76 74 53 46 38 35 31 28 28 31 39 40 37 36 44 22 19 23 30 41 49 50 65 82 83 80 58 40 25 42 51 40 37 48 50 59
30 5 50 99 100 99 100 99 87 90 74 47 36 35 29 31 26 25 37 34 36 35 56 16 17 23 29 45 56 59 66 84 95 84 97 90 52 60 50 60 55 50 36 50 53
11 8 100 100 98 99 100 100 98 100 66 54 39 32 28 24 22 34 42 37 36 65 24 14 20 39 56 61 70 72 99 100 100 96 98 83 36 70 79 76 60 58 44 55 52
11 42 100 100 100 92 98 97 97 100 99 68 53 37 29 32 37 36 39 38 61 36 13 23 44 45 47 68 71 78 99 99 100 100 91 100 38 98 99 87 46 50 66 62 57
87 100 100 100 99 85 96 100 100 86 82 71 64 53 48 49 44 42 46 70 42 17 28 53 59 54 67 88 98 96 90 100 100 99 97 86 92 91 88 73 44 57 70 67 61
100 100 100 100 94 100 100 100 100 90 79 79 84 77 62 55 43 48 79 35 22 33 52 61 75 68 99 94 99 99 99 100 100 100 90 98 90 76 26 31 51 70 79 64 58
100 100 100 100 100 100 100 88 81 86 79 98 97 76 52 53 63 88 43 28 34 55 55 73 83 91 99 97 98 99 99 72 76 92 76 20 25 22 29 52 97 74 40 46 67
100 100 100 100 97 82 88 77 100 97 99 94 72 55 64 81 90 75 29 41 76 64 82 87 93 96 97 97 100 100 72 61 71 49 60 25 31 49 79 53 58 31 54 67 94

GFSSW_500_rhum_036.txt.gz
RH
40 40 44 23 37 21 35 37 38 29 24 21 20 18 15 13 10 8 6 5 6 6 6 10 11 12 12 12 11 10 8 8 12 14 13 14 14 14 12 13 14 14 14 20 32
45 31 39 37 10 23 35 41 37 28 22 20 19 18 16 13 12 9 6 6 6 6 8 14 12 11 12 13 10 10 9 11 14 14 13 14 14 14 12 11 12 15 16 15 18
22 25 23 51 15 13 43 45 39 31 20 18 16 15 15 14 11 10 7 7 6 6 9 16 14 11 9 10 10 10 11 12 13 13 12 13 14 11 8 8 10 14 13 15 15
5 13 19 55 23 10 43 50 41 33 21 18 16 15 14 12 13 14 9 7 7 7 9 17 14 10 7 8 10 10 12 12 13 12 12 12 10 9 9 12 11 10 10 11 11
7 7 10 20 41 11 44 48 47 27 22 19 18 17 16 14 15 17 14 10 10 10 14 14 13 9 7 8 10 9 11 12 13 13 12 11 10 9 9 15 14 12 13 15 17
9 6 7 7 30 39 25 44 53 27 24 21 20 19 18 18 17 21 19 17 14 13 12 11 16 10 9 10 11 10 12 13 15 15 14 13 13 10 12 15 15 14 13 15 16
7 6 5 6 7 40 41 50 57 35 25 22 20 20 20 22 23 26 24 24 20 16 13 12 16 13 13 13 12 11 12 13 19 19 13 14 12 11 13 12 11 11 13 15 15
7 6 5 4 5 10 51 38 52 52 24 24 20 18 20 23 22 24 27 28 25 21 16 14 16 15 13 12 12 11 11 10 16 14 13 12 11 14 16 15 14 13 10 11 14
3 4 4 3 4 5 26 47 41 54 25 25 21 17 18 21 22 22 22 25 24 21 18 16 15 14 13 12 9 9 8 8 9 9 10 10 9 13 16 14 13 14 15 13 11
2 2 2 3 3 4 11 48 27 42 38 25 25 19 16 18 20 20 20 20 21 18 16 15 13 10 12 11 9 8 7 8 10 10 12 11 8 10 12 12 11 12 13 15 15
2 3 2 2 3 3 90 86 39 30 55 23 26 21 18 16 17 17 16 15 15 15 13 12 10 12 13 12 11 10 9 8 9 10 11 11 6 10 14 15 14 13 13 16 19
4 4 4 2 3 16 100 61 44 46 67 36 24 24 19 17 16 15 16 15 14 13 12 12 13 13 12 13 12 11 10 10 9 10 8 7 5 9 11 14 17 16 14 15 19
26 6 4 3 3 46 100 38 100 60 52 77 23 24 23 19 19 18 17 16 15 14 14 14 14 14 14 13 13 14 12 14 13 13 12 11 6 12 12 14 16 19 17 18 20
72 48 4 5 3 88 100 100 100 100 53 78 51 21 23 22 21 21 20 19 18 18 18 17 17 16 16 16 17 16 17 16 16 15 15 15 12 12 12 12 13 20 24 21 24
100 83 16 8 3 81 100 100 100 100 84 57 80 39 22 21 21 22 21 20 20 20 20 18 19 19 18 19 17 18 17 20 23 24 23 20 22 10 12 14 18 21 24 32 30
87 80 56 32 3 96 100 100 100 100 86 57 60 66 41 24 21 21 20 20 20 20 20 20 22 29 32 32 32 30 28 28 28 30 25 23 24 10 18 19 21 23 25 42 39
100 100 86 31 4 97 100 100 100 99 75 72 44 62 66 55 36 31 29 30 33 34 39 42 39 36 33 31 28 29 34 31 26 20 19 18 19 14 15 16 19 28 33 34 51
59 78 87 10 4 100 100 100 96 89 99 74 59 40 55 63 59 55 48 49 48 46 41 30 31 31 37 35 39 36 25 20 19 17 23 26 17 21 24 21 20 14 29 48 48
94 51 60 5 10 99 98 100 97 100 100 88 66 45 36 37 48 51 45 37 33 29 28 28 31 36 44 39 25 20 19 22 26 35 36 31 24 21 37 35 44 41 27 36 61
87 76 7 28 94 100 100 100 100 100 100 88 76 64 46 35 28 27 25 25 26 28 28 28 34 48 36 19 20 18 23 39 63 54 51 39 34 35 57 58 52 60 74 37 48
39 37 9 16 100 100 100 100 100 99 100 92 68 43 49 38 34 31 31 30 30 27 23 33 38 38 18 23 25 34 51 74 88 98 98 76 54 71 94 58 77 53 49 54 32
38 45 7 51 96 100 100 98 100 100 100 71 58 42 30 33 36 34 33 29 26 21 31 37 47 18 25 38 46 58 82 98 100 100 96 97 44 100 100 78 69 52 48 58 38
95 41 13 100 100 98 100 100 100 98 87 70 51 37 24 25 29 27 26 26 21 28 36 46 18 30 53 67 68 73 100 99 100 100 79 100 78 99 100 100 100 55 46 57 44
99 38 11 91 100 100 97 94 100 95 94 76 58 38 30 23 24 30 32 24 25 37 47 18 51 53 71 73 86 93 95 98 100 96 99 73 34 100 100 97 82 50 38 50 56
100 99 76 94 83 89 92 94 100 93 94 94 66 51 37 38 38 34 24 28 39 46 21 49 72 78 93 92 100 98 79 94 98 77 86 36 25 44 78 65 33 51 41 43 56
96 100 96 94 56 85 96 100 99 82 77 78 71 65 57 50 40 43 36 42 54 20 42 78 100 100 95 98 98 95 87 67 70 43 36 36 35 32 36 47 47 42 42 55 68
100 100 98 99 100 94 98 90 86 88 74 80 80 73 67 59 52 48 50 56 26 53 82 90 95 91 88 96 95 89 78 65 74 19 24 37 56 55 60 78 93 92 84 78 76

GFSSW_500_rhum_039.txt.gz
RH
16 32 37 41 38 41 43 54 30 37 41 35 26 22 18 19 17 14 12 9 9 10 11 11 11 10 9 9 12 13 12 11 11 12 14 12 10 13 11 12 11 12 14 10 11
6 9 23 40 38 30 36 33 41 40 37 34 30 25 22 19 17 16 15 11 8 8 8 8 7 6 6 10 12 12 12 11 12 12 13 12 11 13 10 11 11 12 13 14 14
13 10 7 8 16 17 36 30 34 44 42 36 32 27 25 21 17 17 14 14 11 7 6 6 5 6 6 14 13 12 10 13 12 12 13 11 8 12 10 10 10 12 13 12 14
17 14 11 9 6 9 23 51 12 24 46 38 30 23 20 19 15 16 14 13 11 8 6 6 6 7 9 15 14 10 11 11 12 13 12 12 9 9 8 11 12 10 7 7 15
19 16 12 10 8 6 6 52 10 24 48 41 30 22 20 17 15 15 15 13 12 9 7 7 7 7 10 15 12 11 10 9 12 13 14 12 11 11 9 12 11 9 10 10 10
16 16 12 9 7 7 5 21 27 33 54 45 29 24 20 18 17 14 14 15 12 10 8 8 9 8 10 13 12 10 9 10 11 12 12 10 11 9 9 12 10 9 9 11 12
14 13 11 10 8 6 6 5 50 29 52 52 28 26 21 18 19 17 15 15 15 13 10 11 10 13 12 13 11 9 13 12 10 12 12 12 10 9 12 12 11 10 10 10 11
10 9 7 8 8 7 4 5 15 48 46 56 34 26 22 20 20 20 19 19 20 17 16 16 16 16 14 11 13 15 14 12 11 14 12 11 11 12 12 13 12 12 12 12 11
7 5 4 3 4 6 6 4 12 48 42 56 40 27 24 20 20 22 21 24 26 27 23 25 23 20 17 18 15 18 18 14 12 14 11 10 10 14 12 15 12 12 13 13 12
3 2 2 2 2 3 5 6 84 38 42 62 58 29 26 20 20 23 24 26 32 34 32 32 30 25 26 22 21 21 18 17 14 13 10 8 7 9 10 11 10 10 12 12 13
3 4 4 4 3 2 3 31 100 90 41 46 69 35 30 22 21 24 26 26 28 30 30 31 27 31 31 23 21 19 18 15 10 9 8 8 6 6 8 9 11 11 12 13 13
18 51 24 9 4 3 3 94 100 88 59 53 82 60 30 25 20 22 24 25 25 29 26 26 25 25 21 17 15 13 12 11 12 12 10 11 7 7 9 9 9 11 11 14 16
97 100 100 32 6 4 18 68 100 100 77 66 64 67 28 27 20 19 20 21 21 19 19 18 18 18 17 15 14 13 12 12 12 12 11 10 5 8 5 5 6 8 11 14 15
100 100 100 76 8 6 11 100 100 100 88 84 57 75 25 27 23 19 17 18 18 20 16 15 17 16 15 15 14 13 13 14 13 11 10 8 5 5 7 6 8 11 14 14 14
63 77 98 94 70 7 28 100 100 100 100 90 64 69 26 26 23 22 19 18 18 18 17 16 16 18 18 18 16 16 15 16 16 16 15 14 16 5 12 13 15 14 14 15 16
88 98 100 78 70 5 44 100 100 100 100 85 59 72 40 23 25 25 22 21 21 19 19 18 19 19 20 19 18 18 20 26 27 24 17 17 21 10 12 14 14 13 13 12 15
100 97 98 100 28 4 83 100 100 100 96 90 75 60 68 26 22 23 23 22 22 21 20 20 19 20 21 28 33 30 28 24 22 20 15 21 18 9 14 16 13 22 18 16 13
84 100 76 83 7 6 99 100 100 98 97 98 81 54 88 48 23 22 21 22 21 20 23 25 27 32 40 32 26 23 23 36 26 24 19 19 13 11 16 21 20 32 30 21 17
98 95 86 41 7 27 99 100 100 88 99 100 84 54 58 78 47 31 24 24 28 33 36 41 42 39 28 28 28 32 29 26 24 20 17 15 16 22 28 30 47 51 41 32 27
82 95 100 25 22 85 100 100 93 94 100 99 96 76 44 79 73 63 59 52 50 49 47 40 34 27 27 32 40 35 27 22 21 26 29 28 34 59 53 61 64 82 82 67 57
81 100 89 48 34 100 100 100 100 100 100 98 98 89 50 41 56 62 58 55 52 40 29 28 26 26 35 41 34 24 19 24 32 46 74 60 35 78 96 96 96 96 100 70 44
80 97 61 36 83 100 100 95 100 100 100 95 86 91 69 46 36 33 36 34 29 28 30 27 20 34 44 29 19 19 24 40 60 93 96 74 38 88 100 94 83 96 99 78 46
54 75 35 55 100 100 98 100 100 100 94 92 79 62 66 72 51 37 32 32 33 33 28 20 28 46 22 18 24 31 68 90 95 72 65 96 57 97 79 66 67 87 99 88 50
88 44 47 100 100 100 100 100 100 100 93 78 63 57 43 37 43 41 37 36 33 27 18 26 43 20 21 46 52 76 100 100 91 70 83 54 23 68 37 28 50 100 94 67 53
42 79 96 89 100 100 100 100 100 100 91 78 62 48 42 35 27 28 30 26 19 19 32 45 24 21 60 76 94 99 99 91 95 82 33 22 32 41 37 32 34 68 74 84 53
47 98 100 85 86 80 94 96 100 96 91 83 63 54 40 34 25 26 23 19 23 35 52 21 34 68 96 90 98 98 89 86 83 44 19 22 39 66 77 62 44 40 37 60 50
60 80 74 70 68 78 88 87 88 74 60 64 68 49 44 35 32 32 33 28 36 49 26 31 77 92 98 100 88 90 83 89 85 51 40 23 28 41 83 94 100 89 63 41 38

GFSSW_500_rhum_042.txt.gz
RH
13 10 6 8 13 38 40 41 44 46 52 30 50 27 21 26 23 19 16 13 11 14 14 15 15 15 14 14 14 13 8 8 12 13 13 13 14 9 9 11 12 10 14 12 9
20 17 15 11 7 10 34 39 30 41 44 44 36 44 25 23 25 22 20 15 11 11 12 14 14 14 14 15 13 12 10 8 12 13 14 12 12 11 9 12 10 10 12 11 12
25 24 18 17 13 10 7 27 21 18 40 34 36 37 61 36 21 24 20 19 16 12 10 10 11 12 12 12 11 11 8 10 13 14 13 10 10 12 11 12 12 11 11 10 12
30 24 22 22 18 13 9 7 9 12 43 22 44 39 36 40 31 23 19 18 19 16 12 9 9 9 10 9 8 6 6 9 14 13 11 9 11 9 9 10 11 9 9 8 8
26 25 24 22 21 18 12 8 7 8 47 33 36 46 34 30 29 24 20 18 18 16 15 13 9 8 7 7 6 5 5 11 14 13 11 12 10 11 8 9 11 10 9 9 9
20 22 22 20 18 18 15 10 6 6 32 22 36 48 38 30 35 22 20 18 18 16 15 14 11 8 6 6 5 5 5 11 14 13 12 10 10 10 9 12 11 9 9 10 8
14 12 16 17 17 16 14 11 9 5 6 39 37 55 38 30 28 23 19 17 16 16 15 14 11 9 7 7 6 6 10 16 14 14 11 10 9 8 10 11 10 9 9 8 8
15 11 12 9 11 12 12 12 9 7 5 44 45 63 35 41 26 22 21 17 15 16 16 14 12 10 10 8 13 14 13 15 14 12 11 10 8 11 9 10 9 9 9 10 10
5 7 8 8 10 8 7 8 8 7 8 52 48 65 44 34 28 23 21 19 17 16 17 17 14 13 11 12 17 17 15 15 14 12 11 10 8 12 10 10 10 9 9 10 10
3 2 3 3 3 2 3 4 5 50 17 100 66 55 50 38 29 25 22 21 20 23 21 20 19 15 15 17 18 24 18 16 14 11 14 12 9 10 10 10 12 11 11 10 9
3 13 33 63 15 9 3 3 4 100 48 86 54 51 52 38 32 24 22 23 23 24 27 23 22 20 38 24 28 19 17 20 22 15 13 17 11 10 11 9 12 11 9 10 10
26 100 92 100 90 16 5 4 49 100 100 100 73 48 64 43 32 25 22 22 25 29 29 30 33 38 31 30 32 27 29 29 30 26 17 18 13 11 9 7 7 8 9 10 10
48 100 100 100 100 37 6 6 100 100 100 100 100 58 90 69 34 26 25 28 31 30 32 34 36 34 30 30 33 28 26 23 20 18 15 12 10 9 7 7 8 9 10 10 11
66 100 89 84 85 68 7 8 100 100 100 99 99 58 77 72 34 28 24 27 26 30 30 31 33 30 27 26 22 18 17 16 15 14 12 11 8 8 8 8 8 9 10 8 7
85 72 89 91 80 94 6 30 100 100 99 100 98 76 64 72 34 26 23 25 26 24 22 25 24 22 23 20 17 16 15 15 14 13 11 11 10 6 7 6 6 8 9 9 12
95 89 86 92 90 59 5 88 100 100 100 100 83 73 62 72 31 28 22 22 22 19 19 18 19 21 19 19 18 18 17 18 15 13 9 10 13 5 7 9 13 13 12 12 12
71 95 97 83 82 59 8 93 100 98 100 94 65 71 61 70 27 26 23 21 21 20 21 20 22 20 20 19 19 18 19 20 20 16 13 16 12 9 12 13 15 14 15 15 14
90 100 87 94 100 27 59 100 100 100 100 100 95 95 66 75 26 28 24 23 22 22 22 21 19 20 21 21 21 25 27 31 20 16 14 16 12 12 12 12 12 13 18 23 26
74 75 100 94 98 15 84 100 100 100 100 99 89 84 62 86 29 24 25 26 24 24 22 22 20 23 31 34 35 31 28 26 23 23 17 16 15 14 25 23 33 42 40 38 57
100 86 100 96 64 19 94 100 100 100 100 100 98 82 53 78 44 23 23 23 23 23 22 26 27 31 41 40 32 25 25 25 26 24 20 14 14 18 41 64 60 55 47 46 51
95 98 98 39 30 89 100 100 99 99 98 100 92 89 55 76 71 38 33 28 25 27 30 40 38 42 38 30 24 23 26 31 26 19 29 20 23 58 87 94 96 100 83 72 66
69 86 99 91 86 100 98 100 100 98 100 100 89 90 54 62 98 75 63 53 50 52 54 51 45 30 27 23 22 27 34 21 22 48 38 54 27 76 41 37 43 57 53 86 74
45 48 76 94 98 100 99 100 100 100 100 99 100 93 51 47 67 88 77 65 60 56 50 38 30 29 22 22 31 28 21 39 46 54 58 66 42 35 36 43 58 46 46 47 78
26 30 98 99 100 100 100 100 100 100 98 97 88 92 69 52 46 43 48 48 44 36 34 33 28 21 22 32 23 26 64 75 69 62 80 65 29 27 24 28 48 85 77 53 56
60 100 90 99 100 100 100 100 100 98 92 77 69 64 64 76 66 55 42 37 36 35 33 26 15 18 37 22 26 53 68 67 83 89 75 63 29 30 34 50 82 91 91 50 46
100 75 94 96 91 100 100 100 100 100 82 70 62 53 50 44 48 52 49 40 37 30 15 15 35 35 27 38 70 83 82 89 100 100 96 77 74 44 61 69 95 100 93 63 56
93 92 82 94 95 94 93 75 59 74 66 60 50 42 41 37 37 32 28 23 22 15 14 28 35 26 67 79 75 88 97 98 100 96 90 91 87 54 49 94 99 90 92 53 40

GFSSW_500_rhum_045.txt.gz
RH
14 19 29 25 18 9 7 11 35 39 50 90 58 30 25 22 26 23 18 20 14 15 18 17 17 16 16 15 15 15 10 10 12 13 13 15 13 12 9 9 12 11 10 9 8
9 14 16 26 26 19 14 8 10 33 40 41 58 42 31 24 20 19 25 20 18 14 16 19 19 18 16 17 16 14 11 10 12 15 14 14 12 10 9 9 13 12 11 11 10
10 12 17 16 22 26 19 16 10 8 28 32 33 50 43 34 46 34 26 24 21 17 13 16 18 18 16 16 15 14 11 12 13 14 12 11 12 10 9 9 9 15 12 11 11
12 12 14 18 18 21 26 22 17 10 8 14 13 33 48 36 55 47 25 27 24 20 17 13 14 16 17 15 15 13 13 13 14 13 9 9 11 10 10 10 8 13 12 7 9
12 13 13 15 19 20 23 26 23 17 9 6 6 22 36 39 40 52 33 26 28 24 21 17 13 12 14 15 16 13 12 12 12 10 7 8 12 11 11 11 11 11 12 9 7
12 12 10 10 16 19 20 26 24 21 14 8 6 15 42 47 36 38 55 39 25 23 24 21 16 13 10 11 11 11 11 10 9 7 5 8 12 10 9 9 11 10 9 9 7
10 6 6 10 12 19 19 21 23 20 17 10 6 19 46 35 47 33 34 37 26 22 19 20 20 17 13 10 9 8 8 8 7 7 6 12 11 8 10 9 8 9 9 7 7
7 8 9 8 6 10 23 21 22 18 14 17 9 8 37 33 42 36 31 27 25 23 22 19 17 16 15 13 10 8 7 7 15 9 10 10 8 11 11 8 7 8 8 8 7
10 14 12 8 6 4 5 21 22 19 13 27 29 10 40 33 40 35 30 31 31 21 20 20 58 30 15 14 12 9 8 10 13 14 10 9 8 10 10 7 7 8 8 8 8
11 8 8 20 44 20 3 5 19 19 14 100 82 9 25 41 44 36 30 27 52 22 20 22 36 28 19 14 12 16 12 10 9 11 9 7 7 10 9 7 8 9 9 8 8
9 24 82 98 100 95 51 3 6 15 34 74 15 13 52 54 49 38 44 26 24 26 21 19 19 18 27 22 18 13 11 11 15 14 10 10 9 10 10 8 8 9 10 10 10
11 83 100 100 94 94 88 18 5 9 64 17 23 26 86 85 56 41 60 45 26 23 22 18 18 35 27 19 18 12 13 18 19 14 6 10 9 10 10 9 10 12 12 12 12
27 94 98 93 86 100 100 18 5 18 100 63 29 58 100 69 56 42 34 28 32 26 26 28 36 33 25 22 31 24 18 21 19 18 16 9 7 12 13 14 14 15 13 11 11
62 64 67 70 68 92 54 9 16 100 100 99 48 99 88 61 65 40 35 31 26 29 30 30 36 34 37 36 34 27 26 26 26 24 19 15 8 13 15 14 13 11 8 8 9
69 81 82 92 76 81 54 5 55 100 100 100 83 100 75 61 63 52 31 26 27 29 32 39 36 42 43 38 33 27 25 24 20 17 15 14 10 8 11 11 10 9 9 9 9
100 96 90 100 72 61 22 28 100 100 100 100 100 98 71 57 91 55 28 26 33 28 32 32 42 41 34 29 25 21 20 18 16 14 12 12 11 8 9 9 8 7 7 8 9
79 93 76 84 81 48 9 82 100 100 100 100 94 84 81 58 95 45 32 25 26 27 29 32 32 29 24 22 19 18 19 18 15 13 12 10 9 8 11 12 11 10 12 12 12
71 81 92 94 99 27 39 100 100 100 100 100 87 96 70 76 96 36 34 26 28 25 25 27 26 23 22 22 20 19 21 19 15 13 12 12 9 10 13 14 15 15 15 14 15
79 72 82 91 87 29 83 100 100 99 98 95 100 84 67 75 90 33 31 25 23 26 28 23 24 24 22 20 21 30 25 24 23 20 15 16 14 14 14 18 23 19 19 27 30
82 69 77 74 46 81 100 100 100 100 84 90 82 64 69 71 81 28 29 26 25 27 25 24 24 22 23 24 26 30 32 27 23 20 16 13 11 13 48 48 36 33 28 25 29
57 47 49 27 71 100 100 100 100 100 100 97 97 82 74 71 69 27 27 27 27 26 24 23 22 28 33 32 35 36 28 21 18 19 19 15 14 45 61 56 32 23 24 33 38
42 13 71 99 100 100 100 100 100 100 100 90 82 90 82 72 65 28 24 25 25 24 23 24 26 38 40 42 34 23 16 14 24 21 19 29 18 70 65 43 26 28 41 39 53
23 17 67 95 100 100 100 100 100 100 96 87 87 74 56 73 90 59 30 25 24 24 27 38 45 51 41 30 22 15 23 26 23 32 57 42 68 71 45 41 46 48 62 74 100
66 84 99 96 97 100 100 100 100 100 94 79 78 85 50 65 85 85 64 60 52 56 58 56 50 37 29 24 13 27 26 23 43 61 61 73 52 67 59 54 50 56 99 97 86
96 80 96 75 100 98 86 97 99 100 97 87 82 89 51 49 71 90 92 79 70 64 54 42 33 29 25 12 20 26 38 73 75 76 58 68 72 52 63 55 57 64 98 85 97
47 64 69 86 90 98 100 100 100 85 76 69 67 76 85 59 48 47 50 54 47 40 33 33 29 20 13 34 28 54 71 83 78 72 76 75 65 57 68 74 66 35 72 85 52
42 69 72 69 67 73 71 65 68 70 67 62 59 57 55 59 63 65 62 51 44 39 34 26 13 31 41 28 76 94 95 90 85 79 86 69 66 62 62 69 58 32 37 39 37

GFSSW_500_rhum_048.txt.gz
RH
10 9 10 10 10 11 29 26 15 7 25 38 70 97 44 34 21 32 23 25 21 18 18 20 20 18 13 10 11 13 8 8 9 10 14 16 12 12 9 7 8 6 6 6 6
15 12 11 12 10 11 13 29 24 16 8 17 36 62 89 29 27 20 36 26 22 22 17 20 24 20 16 16 15 12 6 7 10 14 16 17 13 13 9 8 8 9 10 8 8
22 15 14 13 11 9 11 15 29 21 17 9 12 38 87 72 29 32 28 29 25 24 21 17 22 21 16 18 13 12 7 12 14 17 16 15 13 12 10 9 9 8 10 10 7
17 15 13 14 14 13 15 16 22 30 21 18 8 16 50 84 55 37 28 31 29 26 23 19 16 20 20 16 16 13 13 14 16 17 14 12 12 11 9 9 10 10 10 10 9
13 10 8 8 12 12 12 15 21 29 30 23 16 7 29 34 73 48 36 31 34 27 26 22 18 16 20 20 21 15 14 15 16 17 14 11 10 9 9 11 12 12 10 8 7
9 8 8 8 9 12 21 25 26 30 31 30 24 12 11 18 42 64 42 43 41 34 29 24 22 17 16 19 20 16 17 15 15 15 13 13 12 11 8 10 12 13 9 6 5
8 8 9 8 9 11 10 23 31 38 35 32 28 19 8 11 30 57 51 62 93 33 34 29 24 20 16 14 16 17 17 16 15 16 14 13 10 8 7 11 10 10 9 7 6
8 8 9 8 12 15 14 9 29 40 38 31 22 23 10 11 28 46 62 44 91 43 30 31 27 24 20 16 13 12 14 14 15 15 13 12 7 7 6 8 9 10 10 8 7
13 12 14 10 46 56 16 11 9 36 40 28 43 44 15 10 32 47 92 39 41 88 32 38 29 24 23 20 17 13 11 10 11 11 11 9 6 8 6 6 9 11 9 8 8
26 17 18 85 100 100 98 25 6 26 38 27 17 29 22 16 57 46 71 68 42 92 89 50 75 60 22 21 18 17 15 12 10 8 8 7 5 6 7 8 10 10 10 8 8
65 34 79 88 100 100 90 72 7 8 35 26 51 100 43 26 68 48 51 83 50 84 56 34 44 55 39 39 30 18 14 13 12 10 8 7 5 7 12 8 10 12 10 10 10
97 56 52 64 76 92 88 67 12 7 31 27 35 45 80 51 78 48 52 52 54 51 78 44 24 28 100 98 71 21 12 13 13 10 8 8 6 8 10 9 10 11 11 11 11
84 94 67 62 61 57 59 64 18 10 25 100 100 100 99 48 61 56 49 53 46 35 56 58 37 36 35 42 30 22 17 16 14 11 9 8 7 9 11 10 11 12 11 10 11
49 68 100 94 95 90 80 52 7 13 64 100 100 89 27 76 93 61 47 54 59 32 38 70 38 30 26 23 22 18 17 18 16 14 10 11 9 11 10 12 13 16 14 17 16
66 47 98 98 100 88 77 24 8 21 100 100 95 69 65 100 81 77 48 62 85 58 38 43 29 34 34 34 30 28 26 28 25 18 13 14 11 11 14 14 15 16 16 15 14
77 68 73 78 100 79 46 9 19 84 100 100 47 54 97 100 74 72 55 54 39 33 34 33 38 36 40 36 36 38 39 32 26 23 16 16 12 11 12 12 12 12 12 12 11
91 87 78 90 76 30 13 55 68 100 92 43 30 68 100 88 60 67 44 49 34 31 32 46 44 41 41 39 37 35 30 24 20 17 14 14 12 13 13 13 12 10 10 9 9
100 84 78 85 17 55 88 99 100 97 98 57 65 98 100 68 61 69 72 37 32 40 50 53 42 41 37 33 29 25 20 18 16 15 14 13 10 15 17 20 17 14 12 10 10
70 60 45 26 51 99 100 100 100 100 94 76 89 100 84 61 60 92 74 34 32 42 41 37 36 32 28 25 24 23 20 19 20 16 13 14 14 19 18 16 13 12 11 12 12
21 22 38 76 92 100 100 98 100 94 78 97 91 84 69 58 80 90 49 30 34 36 34 33 32 27 24 25 22 20 26 28 28 22 18 17 15 19 22 21 21 22 30 35 29
21 56 92 96 98 100 100 98 100 82 78 79 74 72 68 71 88 47 36 32 29 31 30 29 28 26 24 22 23 28 31 32 29 23 18 15 16 24 31 36 39 44 37 32 40
71 85 98 100 100 99 100 100 76 80 84 86 88 88 82 81 95 42 31 30 30 26 29 28 26 27 25 27 31 36 35 25 19 18 17 15 50 53 41 43 41 36 41 54 50
93 90 99 96 90 96 100 94 91 81 83 79 81 83 86 90 96 46 28 30 28 26 26 27 26 30 32 37 42 33 23 17 17 20 26 33 58 56 44 54 55 51 61 59 50
45 48 68 78 84 99 100 100 100 90 79 78 81 83 71 79 82 40 26 25 26 25 25 27 34 42 41 39 31 23 15 20 22 28 47 82 57 70 59 47 41 49 40 30 21
39 55 31 60 68 89 80 86 90 82 85 90 80 64 59 68 77 53 31 33 27 31 37 47 54 52 45 30 25 14 23 25 41 72 61 68 58 46 40 32 42 35 23 20 24
30 27 26 34 46 55 71 72 77 76 77 75 79 90 50 80 98 95 76 71 65 64 65 62 49 39 27 25 13 33 28 57 76 70 66 62 55 50 39 34 34 21 26 27 34
44 25 20 21 48 54 50 58 60 54 53 55 58 75 92 55 56 80 96 88 81 71 60 42 32 29 23 21 31 35 75 84 78 76 77 65 54 50 51 44 30 33 39 36 48

GFSSW_500_rhum_051.txt.gz
RH
28 33 34 35 30 18 13 12 12 11 23 18 7 33 86 67 87 78 48 30 27 27 22 23 23 20 14 12 19 27 20 14 17 22 25 19 13 10 8 6 5 5 6 5 5
28 31 28 23 20 18 16 15 14 11 13 27 15 10 40 87 84 69 64 31 27 29 24 21 25 24 18 14 10 10 11 14 23 28 23 16 13 10 8 6 5 6 7 6 6
25 24 18 13 11 12 14 16 14 16 13 28 21 14 13 46 92 64 61 34 30 28 29 26 21 22 21 18 12 8 6 7 14 20 17 13 11 9 8 8 7 7 7 8 7
20 11 8 7 9 10 11 13 18 20 19 24 31 19 11 17 53 93 54 39 32 34 29 29 23 18 20 20 15 11 8 9 17 16 15 13 11 9 9 10 9 9 8 8 10
10 8 8 14 15 12 11 14 17 19 22 26 37 30 22 9 19 79 71 77 35 37 32 28 26 21 18 22 22 15 12 15 18 19 14 13 12 12 10 13 10 9 8 8 9
8 11 20 18 12 13 10 8 12 25 27 32 40 41 32 12 20 42 98 63 42 36 38 30 27 25 20 20 24 18 17 18 19 18 15 14 14 15 13 13 12 10 9 8 8
10 22 26 17 18 23 19 10 13 16 36 42 47 44 38 30 18 28 91 90 54 40 39 37 28 27 23 18 19 21 20 19 17 18 16 16 13 11 12 13 13 11 8 7 8
27 39 28 22 22 78 62 28 20 15 36 50 52 45 31 49 16 28 52 99 89 71 67 47 32 26 26 22 17 17 21 21 19 20 18 17 9 12 11 14 11 9 8 7 9
48 56 41 28 93 100 100 100 28 16 27 48 53 44 36 96 15 24 32 86 99 97 86 66 40 33 26 23 20 15 15 17 20 21 19 14 9 13 13 11 10 8 6 6 9
59 66 54 50 82 94 100 99 61 12 22 46 51 35 47 47 33 31 35 72 99 98 100 98 78 39 32 25 21 19 16 15 14 15 15 14 9 13 12 10 8 8 6 6 9
63 71 68 65 61 66 84 75 78 13 25 49 46 34 48 100 48 30 39 60 98 98 95 96 93 72 39 32 26 22 19 16 15 12 11 11 10 10 11 10 8 7 8 9 11
71 89 80 100 75 67 59 57 62 12 31 48 42 49 100 91 67 62 47 54 96 98 94 98 93 94 95 74 28 23 20 19 19 16 12 10 8 9 8 7 7 7 8 11 12
81 100 92 75 100 92 90 64 53 13 39 45 35 92 75 85 74 78 50 54 96 100 94 100 88 69 99 98 96 44 22 21 22 18 14 12 10 10 10 8 7 7 7 9 13
92 100 100 87 95 100 87 66 32 22 42 40 26 60 98 80 56 91 63 66 95 98 92 96 80 52 43 67 94 90 86 58 30 16 11 11 9 12 10 10 9 9 10 8 8
100 100 99 96 91 88 84 42 11 32 45 29 82 100 97 69 54 56 55 64 90 95 51 68 95 83 37 28 65 64 32 23 20 16 13 12 10 15 15 15 13 13 11 12 12
100 86 96 87 81 77 43 12 26 95 100 51 68 66 89 100 54 60 50 58 75 96 43 48 86 79 59 39 28 25 24 22 20 18 13 16 13 18 15 15 14 15 14 14 13
69 73 90 69 46 25 24 17 91 100 83 100 97 92 67 78 94 66 60 52 67 72 48 45 83 71 36 29 31 39 36 28 25 21 18 20 17 18 16 14 14 13 13 13 12
18 15 13 30 33 16 18 59 100 100 100 99 99 64 98 100 87 76 65 50 86 97 62 51 70 44 38 41 46 44 40 33 27 23 19 17 16 17 18 17 14 12 11 11 10
24 26 64 87 50 93 92 88 97 84 67 31 80 55 77 95 73 84 81 92 96 58 48 41 43 45 50 49 46 39 33 26 20 18 16 16 18 22 19 19 16 13 11 10 10
78 98 100 100 100 86 100 100 90 57 73 57 34 63 90 76 70 80 81 78 76 44 45 45 50 49 47 40 32 26 23 21 20 18 17 19 23 21 17 16 14 13 11 11 18
79 84 70 67 60 79 86 69 61 48 50 32 52 80 78 62 64 79 99 61 36 37 42 42 44 38 33 27 25 24 24 26 28 25 23 20 23 19 16 14 13 18 28 30 27
48 64 52 51 57 50 48 45 37 39 52 57 97 100 83 74 100 100 60 46 39 38 38 37 36 30 27 26 25 28 32 34 32 26 21 20 26 20 18 19 29 32 29 39 28
48 59 82 67 38 40 52 59 54 60 74 83 92 88 77 93 98 83 47 35 33 34 37 33 29 28 26 28 34 40 38 34 26 20 19 19 34 37 30 37 39 35 36 30 25
32 49 62 85 43 61 49 55 75 75 85 79 68 77 80 80 88 51 32 33 33 33 33 29 28 27 33 39 40 38 34 26 19 16 19 38 58 51 50 50 48 38 29 20 19
25 33 39 40 71 88 81 65 78 77 81 82 84 88 96 99 81 52 28 28 29 29 29 28 28 32 40 44 40 31 26 21 17 22 48 76 64 58 51 42 40 29 18 22 28
22 25 20 32 32 30 52 64 65 63 65 69 93 68 72 86 98 55 32 29 30 29 28 29 39 49 52 45 31 27 19 19 27 45 80 74 67 51 50 43 42 30 46 34 40
27 24 19 22 26 41 48 47 43 39 41 44 60 78 60 79 92 80 59 50 49 45 49 59 57 53 44 33 28 22 30 39 68 81 70 62 55 52 57 51 45 49 49 40 47

GFSSW_500_rhum_054.txt.gz
RH
29 23 21 23 22 21 21 26 26 29 21 13 12 18 15 13 61 72 58 56 35 34 30 27 26 23 34 46 42 39 29 18 17 17 22 23 21 18 14 13 11 9 7 6 5
31 23 19 14 9 7 8 8 11 21 22 18 14 13 24 10 25 82 69 75 48 35 31 29 26 27 19 20 29 40 28 21 24 24 27 22 22 18 15 13 12 9 7 5 6
28 23 13 8 7 8 10 12 12 14 20 22 21 16 23 30 12 56 90 91 65 50 47 33 30 26 26 21 15 15 19 26 31 32 34 26 23 20 17 14 12 9 7 8 8
23 16 8 8 10 15 22 27 25 18 18 28 28 21 22 28 13 25 95 98 88 76 66 36 32 24 23 20 16 14 11 11 17 27 31 32 22 18 17 15 12 10 7 8 9
22 10 8 14 26 31 24 16 16 20 19 21 37 30 33 31 22 22 59 99 97 96 89 39 31 28 23 22 23 17 15 13 16 13 11 15 19 19 16 14 12 9 8 7 9
13 9 16 36 57 38 20 49 57 25 14 18 43 42 38 27 41 43 29 94 98 96 98 45 33 29 30 23 22 21 18 19 19 16 11 9 10 10 13 13 12 10 9 9 8
10 15 38 63 63 35 67 100 100 63 23 19 44 54 42 28 54 85 19 85 99 88 89 69 42 32 30 28 22 19 20 21 19 17 13 10 9 6 15 14 12 13 12 10 9
11 34 64 78 65 50 85 91 100 97 34 21 48 62 37 39 50 99 23 70 100 98 92 51 47 36 31 29 25 19 19 21 22 18 15 13 9 9 13 14 16 14 12 9 8
25 58 73 89 76 68 72 99 85 91 57 26 59 57 45 48 64 89 25 71 100 95 98 88 59 41 32 29 27 22 16 17 23 24 18 13 9 12 13 14 15 14 12 9 8
36 77 81 100 98 74 66 83 74 89 37 23 62 54 47 51 74 70 24 50 99 96 99 97 96 47 35 28 24 22 19 18 19 22 22 15 8 12 14 14 13 13 15 14 12
27 82 95 100 100 100 76 71 66 66 36 35 60 45 50 53 89 79 31 48 95 98 99 100 95 61 33 30 26 25 23 21 18 16 17 17 11 13 15 15 15 14 14 13 11
29 99 100 99 97 80 84 87 85 59 25 47 62 52 40 53 100 79 33 54 93 98 99 95 75 73 56 37 31 26 23 22 21 18 14 14 13 15 15 14 14 14 13 12 10
68 100 100 97 100 76 92 85 64 37 37 60 57 45 38 100 79 32 40 35 74 100 98 99 99 99 100 57 37 31 28 26 24 20 16 14 11 12 12 11 10 9 9 9 8
76 100 97 93 100 100 85 71 50 22 56 58 48 57 52 51 100 74 63 58 70 100 99 95 96 99 100 99 89 73 37 29 25 22 18 16 12 16 15 13 10 9 8 7 6
39 72 91 84 80 98 70 46 20 46 56 53 45 69 100 98 65 73 67 62 69 96 98 88 94 97 90 100 100 97 100 64 44 26 18 16 14 18 14 12 11 10 9 8 8
8 9 25 42 47 35 24 20 40 58 77 47 59 100 100 72 80 82 66 68 80 99 99 97 98 99 90 84 92 97 100 99 84 56 29 21 15 16 14 13 13 14 13 12 11
29 28 11 13 12 16 23 73 100 85 44 36 76 95 100 97 55 86 58 63 66 88 90 75 87 93 81 55 44 38 57 58 27 19 17 20 18 18 18 17 16 16 14 13 12
19 78 99 24 29 91 100 100 83 38 37 58 100 88 80 93 76 66 57 53 64 78 89 56 58 76 88 70 48 40 30 25 24 22 23 26 24 22 19 17 16 15 14 13 12
36 18 46 53 82 87 99 91 47 87 44 50 64 94 100 98 73 66 71 57 67 98 93 70 57 94 90 54 45 38 30 33 32 30 29 23 21 20 20 17 14 13 11 11 10
32 33 27 41 64 62 68 66 86 100 100 90 70 66 70 89 87 73 67 57 69 96 94 81 74 84 67 45 40 43 45 37 32 27 23 22 22 22 18 15 12 10 11 12 11
37 59 44 34 31 31 36 54 68 76 59 62 61 89 98 94 76 96 85 88 91 75 65 57 59 62 59 56 58 51 41 32 25 21 23 28 26 22 18 14 14 13 13 13 15
55 46 46 48 48 39 41 25 26 30 34 36 59 95 100 78 77 97 91 72 93 65 50 53 53 52 54 49 39 32 27 25 29 28 28 28 23 19 16 15 14 15 19 22 24
54 48 35 43 45 47 38 39 23 31 39 80 92 84 70 67 74 89 99 62 48 54 50 46 47 43 39 32 29 30 32 32 29 30 28 22 20 18 15 21 23 27 31 28 21
26 45 49 50 35 42 60 42 45 57 66 75 75 72 71 87 96 100 54 55 61 48 43 40 38 35 30 30 31 33 34 37 34 27 21 19 20 16 30 45 42 32 29 26 25
21 32 33 68 35 31 51 64 71 75 72 69 73 77 85 92 96 76 38 39 36 36 39 35 32 29 29 32 37 38 37 35 28 22 19 22 42 56 63 54 48 42 34 37 31
21 25 25 28 34 36 51 58 59 58 60 70 71 83 82 88 92 62 31 31 34 33 33 30 29 29 32 39 44 42 34 28 21 16 31 63 76 68 58 49 47 43 43 37 28
20 20 21 21 24 34 31 22 32 36 42 48 70 71 69 74 84 76 47 30 30 27 26 26 28 34 43 48 48 38 30 23 22 30 68 80 70 72 56 57 48 52 45 36 33

GFSSW_500_rhum_057.txt.gz
RH
94 88 69 42 29 26 20 13 11 9 12 23 21 24 18 11 16 20 60 74 62 42 40 33 31 62 89 73 48 41 30 27 24 24 26 26 28 22 19 16 15 13 11 12 12
89 59 40 35 33 24 14 10 9 10 11 11 24 32 31 15 12 16 46 85 79 53 41 36 30 31 70 90 61 49 32 24 25 25 27 26 27 25 20 18 16 14 13 13 12
58 50 48 41 25 14 10 11 12 17 22 15 28 33 36 25 15 14 10 74 96 69 52 38 37 31 30 46 83 56 38 32 32 28 30 25 24 25 20 18 17 14 14 13 11
61 59 52 29 14 10 14 30 51 59 49 37 33 24 42 34 28 18 18 16 98 74 72 46 36 32 27 26 32 67 51 39 39 34 37 26 24 26 23 19 16 15 15 14 10
75 58 21 12 15 28 55 64 67 37 48 30 29 28 41 42 25 20 34 15 74 88 76 59 39 33 29 26 22 28 52 33 42 41 40 31 24 25 28 20 17 16 16 14 11
73 18 12 20 56 81 76 74 52 90 100 100 61 34 29 45 31 72 77 29 34 100 92 65 46 37 33 29 25 22 18 20 21 20 25 29 28 23 28 23 20 18 17 15 12
12 11 16 66 100 84 90 59 89 94 94 91 95 38 32 44 36 75 50 46 40 100 98 91 66 58 41 33 29 24 24 22 23 18 13 11 12 16 25 25 19 20 18 14 12
9 11 20 84 100 100 95 75 85 88 91 100 88 35 34 48 35 28 100 54 45 97 96 97 84 60 44 34 32 24 21 20 23 21 16 13 11 8 8 12 15 15 14 12 10
16 16 48 100 100 99 100 97 78 86 74 86 100 28 47 45 44 41 73 62 38 88 100 93 99 85 54 35 32 28 24 20 20 21 19 16 14 13 10 10 14 15 13 12 12
21 25 92 100 100 89 100 100 89 75 78 82 90 28 45 50 43 49 100 58 59 98 100 99 100 98 71 48 29 25 24 22 19 20 20 16 13 14 14 13 16 16 16 15 14
18 45 98 86 100 100 57 71 86 83 76 77 41 52 61 50 47 72 100 59 97 96 97 96 87 71 73 57 42 29 28 26 23 19 18 17 11 12 14 16 16 17 17 17 16
10 78 100 100 94 100 94 74 84 68 52 81 45 67 54 44 81 52 72 64 93 93 99 99 88 94 77 45 36 32 29 27 25 21 16 15 14 19 19 18 15 15 15 15 15
6 47 94 83 95 100 96 79 54 46 42 58 77 62 49 67 100 93 79 80 98 99 98 100 84 88 80 55 38 32 29 27 26 23 20 16 14 16 18 18 16 14 14 14 14
5 18 42 61 73 79 69 45 32 38 71 73 75 52 60 84 95 98 51 69 99 98 99 99 100 100 98 75 47 34 30 28 26 24 21 18 16 17 14 13 14 14 13 13 12
8 8 8 18 46 47 28 29 55 89 69 68 60 45 52 83 100 80 36 84 100 100 100 99 99 99 97 97 97 58 38 32 29 25 23 20 17 19 16 13 12 12 11 10 9
35 62 62 15 42 76 46 56 80 74 95 68 52 86 95 99 60 47 26 47 92 100 100 100 100 99 100 100 100 100 79 45 31 26 21 22 20 22 17 16 15 13 12 10 10
36 30 87 85 66 77 51 59 58 64 92 69 99 97 97 84 66 50 32 40 86 100 100 100 98 96 96 95 100 100 100 98 76 51 36 38 32 26 19 16 14 12 11 10 10
26 46 46 70 40 45 42 45 49 76 88 96 100 92 100 95 93 72 59 45 70 100 97 100 99 100 93 96 96 96 96 94 92 83 49 31 27 23 19 17 14 12 12 12 13
28 19 31 43 36 34 35 38 43 60 81 77 81 74 62 64 54 73 68 58 61 77 98 94 82 91 100 96 92 89 61 42 43 41 26 27 25 26 23 18 16 14 16 16 15
38 36 31 42 39 32 33 31 48 76 82 84 83 74 67 61 62 66 60 62 60 74 99 83 59 61 87 90 90 81 63 43 34 32 34 31 28 23 21 19 18 17 15 14 12
39 40 53 39 33 51 61 41 38 41 53 61 79 89 94 93 76 68 67 58 62 72 96 75 68 68 92 83 58 57 51 45 44 39 36 26 24 21 19 18 16 15 13 11 11
48 34 47 27 37 25 32 58 39 48 57 47 65 78 94 85 88 95 81 67 83 99 95 94 92 91 93 72 55 51 49 46 39 29 26 26 24 21 18 16 16 15 14 14 13
40 54 35 49 56 38 19 22 22 21 28 36 59 81 72 72 76 90 75 94 100 92 82 83 68 87 71 63 63 54 45 35 29 29 35 31 23 20 17 17 15 15 14 16 21
30 33 54 45 58 26 23 23 36 39 68 71 74 71 62 64 71 78 98 79 74 78 72 75 59 63 58 44 38 33 28 27 31 39 34 27 23 20 17 16 16 26 33 34 26
20 27 44 49 45 49 59 63 61 64 69 68 66 72 75 85 93 98 81 62 69 82 54 53 46 42 36 33 31 31 36 40 41 36 28 22 17 15 15 26 44 41 36 31 28
26 22 20 33 25 35 57 66 46 50 66 75 81 79 86 93 84 79 58 70 53 40 39 40 35 31 32 34 38 42 42 41 34 28 22 16 15 28 46 60 50 48 42 34 36
18 26 18 19 20 28 28 38 46 40 38 60 80 76 82 86 91 71 37 33 34 33 34 33 31 30 33 39 47 45 43 36 30 23 17 21 47 70 71 63 52 51 49 50 42

GFSSW_500_rhum_060.txt.gz
RH
37 78 99 98 78 57 51 49 48 38 34 28 26 26 20 18 24 12 10 19 45 65 79 39 34 47 65 94 85 59 42 56 41 44 34 35 36 29 26 22 19 18 16 14 13
49 79 91 92 89 84 78 68 52 37 26 18 13 12 16 19 13 20 12 14 48 57 78 53 37 37 44 88 84 71 43 40 44 37 33 37 40 32 27 24 19 18 17 15 14
74 87 81 58 38 26 22 17 16 14 13 13 13 13 12 19 18 14 16 14 20 64 72 73 41 38 36 47 86 71 56 35 33 35 33 34 40 35 29 26 20 16 16 15 16
60 25 11 12 10 10 12 27 40 41 36 38 32 20 15 20 30 37 26 18 14 60 84 81 43 40 53 37 66 82 64 43 37 38 35 33 33 35 31 26 23 18 15 15 15
11 11 14 14 18 27 86 100 96 92 75 71 63 52 42 34 20 37 41 26 21 56 90 95 47 40 45 35 44 82 78 64 52 52 40 43 33 32 32 27 23 20 18 16 16
12 18 20 14 23 86 100 100 98 94 63 70 65 63 57 48 39 31 67 68 29 27 68 97 63 42 40 37 34 45 70 82 77 65 50 40 39 28 30 28 24 21 18 17 18
17 17 11 17 100 100 100 100 99 70 75 91 98 90 99 48 44 33 63 100 43 18 27 100 88 50 40 36 34 31 41 60 78 77 60 44 32 28 33 33 23 20 19 17 19
9 7 26 73 93 99 98 91 100 91 80 90 100 100 95 61 44 50 60 75 40 38 24 100 97 73 44 39 34 30 30 30 42 61 57 41 35 27 33 32 28 23 21 20 20
6 12 80 81 77 89 99 90 100 100 73 73 100 96 99 44 61 70 100 68 72 34 27 97 98 82 51 40 38 32 28 29 27 41 36 23 21 21 25 28 29 26 22 22 24
6 19 100 94 87 84 90 74 69 82 73 78 92 96 64 52 68 100 99 86 58 40 34 100 99 95 53 42 35 33 32 31 24 25 22 18 17 16 13 11 11 12 13 13 14
15 12 96 89 100 100 100 94 75 72 69 72 100 96 71 72 79 48 91 69 69 44 48 99 100 93 55 50 40 33 31 28 26 25 24 19 17 18 18 16 16 14 11 8 8
13 9 20 54 95 90 100 75 56 54 55 100 100 78 87 85 53 56 95 96 66 38 92 98 95 100 98 67 51 37 32 30 29 25 29 23 17 17 17 17 17 18 17 13 10
34 59 59 27 76 80 57 43 40 55 86 85 92 74 73 51 86 100 71 99 97 72 90 95 100 99 100 83 64 41 32 30 30 28 25 30 22 17 17 17 16 15 16 16 14
48 43 79 15 21 27 29 33 80 97 98 99 73 61 57 61 96 90 98 88 87 97 93 99 100 99 93 95 61 47 38 32 29 28 26 23 21 18 16 16 16 16 14 14 14
46 29 54 24 23 60 44 49 95 100 100 100 68 52 62 49 84 100 100 90 99 100 97 100 100 100 100 91 69 48 38 35 32 29 26 23 22 20 18 15 14 14 15 14 14
42 26 37 30 35 48 57 73 83 72 73 63 56 100 100 99 59 99 100 96 100 100 100 100 99 99 99 99 84 63 41 35 31 37 29 25 23 21 20 17 15 13 12 12 12
31 26 29 34 40 45 48 53 48 46 57 50 82 76 97 100 94 65 90 100 100 100 100 100 100 100 99 100 100 92 54 38 33 36 42 31 25 22 20 18 16 14 12 11 11
33 26 25 27 32 35 36 36 54 87 72 68 79 93 82 87 76 87 39 84 97 100 100 100 96 100 99 99 99 100 89 51 40 36 39 34 26 24 22 19 17 15 13 12 12
35 32 22 25 29 46 60 45 59 69 70 66 61 49 74 51 34 37 33 47 88 100 94 100 98 99 97 98 100 100 100 96 92 85 81 69 50 40 33 28 23 16 13 12 12
35 29 28 36 30 42 60 52 49 63 64 69 75 73 82 70 51 50 49 47 73 87 97 95 97 96 95 95 94 96 95 96 96 90 87 56 35 25 25 22 18 15 15 16 16
31 32 25 26 40 37 46 38 46 50 59 63 60 60 48 40 45 52 58 63 69 67 83 100 92 76 89 95 98 89 89 84 58 40 42 34 29 24 22 21 20 19 18 18 17
25 44 34 21 29 48 34 39 38 40 50 57 66 62 62 48 57 55 62 56 54 65 81 90 75 61 62 81 92 90 84 82 71 50 36 35 30 27 23 21 20 19 17 15 13
30 26 48 33 17 19 26 20 19 20 22 42 52 53 59 65 68 73 75 66 72 75 89 90 78 68 67 83 80 62 61 58 57 47 34 31 30 27 24 21 20 17 15 14 13
23 40 30 49 29 17 18 28 25 45 56 57 58 56 56 58 66 72 72 78 80 86 78 84 76 74 83 72 66 52 50 50 45 33 32 32 27 25 24 21 19 18 16 14 15
18 25 39 36 41 60 66 61 55 56 67 68 64 63 64 66 67 74 86 78 81 79 80 84 74 81 88 71 51 47 40 31 29 35 32 31 28 25 22 19 17 15 21 33 37
20 18 26 37 32 28 58 70 70 69 74 80 78 75 74 86 88 89 89 77 60 80 68 71 66 59 68 56 36 32 32 37 41 41 36 30 24 19 16 14 19 42 42 39 36
73 22 16 21 25 28 26 33 49 45 44 56 79 82 87 90 96 89 66 60 68 58 48 54 50 39 39 35 37 39 44 43 40 35 29 24 21 20 22 40 53 54 50 46 42

GFSSW_500_rhum_063.txt.gz
RH
29 53 64 74 78 78 81 87 87 81 63 51 45 40 31 24 18 24 13 11 12 20 42 69 55 43 39 77 50 51 90 74 51 52 57 70 47 33 28 26 24 21 19 18 17
56 28 19 20 16 16 18 18 34 71 90 81 57 47 40 30 21 15 18 18 12 14 29 48 74 43 52 49 73 71 75 73 72 53 50 63 47 39 32 27 26 23 21 18 17
16 12 10 10 10 12 15 19 16 14 17 43 77 75 54 52 32 18 27 34 18 13 20 40 72 72 41 44 66 85 75 66 56 83 49 67 48 42 37 29 26 24 21 19 16
12 12 6 5 6 7 14 19 25 29 29 29 23 24 41 46 46 30 24 44 40 18 14 23 53 84 61 47 41 73 91 67 58 52 73 62 47 46 43 36 28 22 22 21 17
11 6 8 7 12 36 85 100 100 90 84 85 78 56 32 23 22 24 22 35 43 26 16 19 55 70 74 49 41 58 91 93 77 53 87 75 73 44 44 35 31 26 23 20 18
11 6 8 27 55 100 100 98 100 100 100 100 97 92 80 54 26 16 16 26 37 40 30 16 58 68 72 46 50 50 87 92 89 72 74 90 78 50 40 38 34 31 26 22 19
9 8 32 82 61 80 89 68 78 99 96 95 53 81 78 58 57 38 18 23 39 58 40 15 69 80 83 58 40 59 85 68 95 83 68 80 85 70 45 38 36 31 27 23 21
12 32 30 100 62 73 61 54 61 77 99 83 77 100 97 87 57 54 54 55 62 66 49 32 86 90 83 69 44 50 91 67 95 97 96 77 72 77 55 41 33 29 26 24 22
16 26 13 99 99 68 62 65 78 68 90 70 65 95 78 82 69 54 59 80 52 87 86 43 86 92 96 94 46 44 87 71 89 96 96 88 72 66 60 52 41 33 29 23 21
17 21 11 34 98 100 99 98 94 72 76 64 72 92 79 98 76 53 99 97 61 57 65 54 57 87 100 98 70 40 73 71 65 86 94 89 76 66 50 51 42 36 32 27 23
16 15 9 20 68 87 98 97 72 85 62 89 86 88 83 67 67 51 83 88 99 100 56 33 51 72 94 82 61 45 46 69 54 58 74 90 80 66 49 41 43 43 37 31 25
21 15 12 12 22 38 46 40 49 50 72 83 88 66 97 100 89 100 85 98 87 56 42 36 48 95 100 100 62 41 40 57 44 43 43 37 62 66 29 21 19 17 15 15 14
18 17 14 57 28 34 45 58 83 99 100 80 61 94 100 100 100 100 86 62 59 47 37 23 69 100 100 98 64 41 39 40 38 41 37 38 29 34 23 19 19 20 17 14 11
20 20 17 55 84 99 97 94 100 81 77 73 95 100 100 100 95 69 67 84 77 63 52 72 97 100 100 100 70 44 39 39 35 40 39 42 27 26 23 21 19 19 16 15 14
22 27 28 36 44 47 60 88 76 74 94 97 100 82 58 67 71 100 100 100 82 46 71 90 98 100 100 100 83 48 42 38 36 35 47 36 30 40 38 30 18 17 18 17 13
20 27 29 29 37 41 35 44 53 59 72 83 93 91 98 100 98 98 99 100 93 100 100 100 100 100 99 94 94 70 55 44 38 34 33 35 40 54 42 30 29 18 15 15 14
18 23 23 28 34 45 35 37 44 59 86 98 65 93 100 100 100 98 88 100 100 100 99 100 100 97 97 100 99 97 64 46 42 38 32 29 28 28 29 35 25 20 16 14 13
19 20 33 25 40 44 68 31 40 64 68 83 89 72 51 89 100 100 100 100 100 100 98 100 97 100 99 96 94 94 86 73 46 42 46 45 37 30 26 24 21 18 16 15 13
16 23 27 34 32 45 59 39 36 44 49 32 42 78 86 70 61 80 100 96 100 100 100 100 100 100 100 99 99 100 91 79 58 44 38 37 45 48 41 32 30 26 20 16 14
20 19 19 36 39 41 46 38 26 29 33 46 48 45 49 50 45 44 27 45 96 97 100 100 97 100 100 99 98 100 100 100 86 72 61 44 38 39 43 43 33 26 25 22 18
31 23 18 23 30 33 34 38 40 41 41 45 54 46 46 42 39 35 35 42 66 84 96 99 95 91 98 99 98 99 90 99 99 92 92 88 67 54 51 41 35 32 28 24 19
25 34 26 18 26 23 29 36 37 42 47 41 33 28 22 25 25 39 42 51 61 59 63 76 88 83 79 93 94 93 91 90 88 87 85 82 71 56 38 26 24 23 21 20 18
19 27 44 19 18 28 31 32 21 26 32 50 52 48 45 41 37 30 38 46 52 55 66 82 86 81 69 70 77 78 84 88 94 93 59 41 40 34 30 26 24 22 20 20 19
30 21 34 42 21 15 18 25 26 34 31 42 45 43 47 52 60 66 65 64 61 64 69 80 90 78 67 64 66 76 80 82 80 90 78 60 47 37 31 27 24 21 20 18 16
78 32 25 35 45 58 54 46 40 49 58 57 56 56 51 50 53 60 69 72 69 66 74 77 79 79 80 75 76 77 63 50 56 64 69 50 37 31 29 28 24 21 19 18 16
62 82 28 26 37 36 54 68 66 64 66 70 69 67 67 69 72 73 74 77 76 80 75 76 76 72 73 86 64 62 54 52 53 79 53 34 30 28 29 26 23 20 18 21 32
27 75 89 39 24 32 32 33 51 55 50 47 61 78 74 80 86 88 88 93 80 65 75 75 72 72 74 82 59 41 37 33 38 36 38 37 34 29 25 20 18 21 24 43 44

GFSSW_500_rhum_069.txt.gz
RH
12 5 5 5 5 4 4 5 8 14 17 23 97 96 97 100 98 98 39 37 20 12 20 47 90 51 60 81 97 95 98 95 92 94 96 100 88 82 76 66 59 56 50 52 54
8 5 6 6 6 5 13 29 73 37 19 23 28 92 96 100 99 96 80 53 37 16 13 29 74 96 46 66 86 92 87 95 99 98 97 96 96 75 88 76 60 55 54 54 52
6 5 6 7 7 19 56 98 100 100 86 38 26 28 89 100 100 100 96 67 60 36 15 18 43 98 91 65 95 91 69 92 97 98 96 96 96 98 73 82 62 47 42 43 39
6 6 6 10 8 84 47 99 98 97 90 100 79 26 31 87 99 99 100 99 78 58 48 13 23 50 93 80 81 93 90 97 100 93 98 95 97 95 82 83 67 51 40 38 33
7 7 8 18 12 100 53 41 92 64 82 93 100 55 25 32 65 99 99 100 86 58 58 38 13 22 46 90 70 90 100 98 98 82 97 98 98 97 85 89 75 54 39 34 30
9 8 11 24 29 97 70 45 42 53 56 99 100 94 57 42 31 88 100 100 99 69 69 52 27 13 31 66 88 65 88 99 93 86 84 92 96 98 90 95 87 61 43 33 30
10 10 14 40 89 75 86 61 52 56 70 55 100 100 100 60 37 32 97 100 100 66 90 95 37 15 15 42 72 83 71 93 88 91 83 51 87 94 97 83 95 74 51 36 34
11 10 14 37 65 53 86 85 77 88 89 64 99 100 100 97 55 32 61 100 100 79 84 100 65 21 14 19 56 83 80 73 78 82 89 81 71 89 96 83 81 86 57 44 37
12 11 15 27 26 33 37 74 90 79 64 69 83 100 86 85 78 50 27 91 100 93 66 100 84 41 16 14 35 65 92 83 68 73 85 98 82 100 95 87 77 80 64 49 43
13 15 14 18 17 19 22 42 72 62 75 60 53 51 62 70 67 60 30 42 100 94 83 93 92 56 30 14 12 28 47 76 85 61 67 91 94 97 93 92 83 78 66 50 44
13 16 22 32 42 53 63 56 52 63 63 64 68 67 76 59 54 62 48 29 97 100 98 88 90 56 46 18 14 39 62 71 92 85 60 81 97 97 96 91 89 83 76 57 44
13 14 27 28 36 54 73 99 100 100 100 100 82 90 71 58 58 64 54 38 80 98 89 86 79 85 66 37 22 31 46 49 82 82 70 61 81 94 96 88 87 93 91 72 53
16 15 20 31 40 54 86 98 100 86 70 78 73 84 72 62 53 57 64 99 70 99 94 86 79 78 65 51 46 40 46 58 67 68 75 55 60 83 82 92 91 80 87 84 72
21 18 18 24 32 48 66 74 87 76 99 100 97 100 100 100 100 92 100 96 70 85 77 100 83 56 57 55 42 31 56 93 52 47 66 55 47 55 83 90 99 96 83 77 71
16 18 17 21 27 36 46 39 56 75 94 92 58 75 94 89 75 64 93 91 97 94 84 82 65 49 51 54 38 47 86 95 69 83 75 56 48 50 77 72 75 88 93 69 61
14 21 19 13 22 32 42 49 28 47 95 98 86 89 61 99 98 99 100 78 100 88 79 85 79 44 43 40 35 61 82 90 77 93 77 55 47 48 60 63 84 82 76 75 70
29 11 18 18 18 25 31 34 42 27 52 78 85 100 100 57 97 81 77 72 50 61 49 94 85 50 54 35 52 70 98 88 100 98 58 57 47 42 66 58 60 67 87 67 71
27 20 15 16 20 26 26 26 40 22 40 46 55 92 99 100 74 72 99 100 60 61 55 57 80 59 42 54 78 100 89 96 80 73 63 54 44 46 62 54 54 43 33 61 49
11 34 16 17 16 24 26 23 26 32 24 32 34 27 58 89 85 97 99 95 85 62 48 58 53 44 62 89 100 100 95 84 100 92 80 50 42 41 55 57 60 60 35 36 44
4 14 28 19 16 18 21 21 24 33 41 34 31 35 24 59 49 73 94 85 93 90 93 98 94 95 99 90 92 100 99 100 100 100 89 58 42 40 44 49 43 60 79 64 47
3 7 28 32 18 16 21 19 18 27 34 42 38 24 26 30 28 36 70 91 100 84 86 85 75 77 70 71 83 89 87 97 100 98 99 73 50 42 41 45 43 40 42 40 51
3 3 11 48 32 14 17 21 21 25 30 39 35 30 20 20 27 32 25 66 80 94 88 86 93 93 92 85 92 91 97 94 100 99 98 84 70 70 61 56 53 51 49 48 45
4 3 4 21 54 29 14 22 28 29 20 28 40 48 34 27 33 22 26 26 31 47 69 69 77 74 71 76 86 95 95 97 95 91 90 95 80 82 72 60 50 43 40 38 38
5 4 4 5 33 55 32 17 16 20 21 22 42 44 41 37 46 55 56 43 35 35 38 39 46 62 78 76 90 94 92 93 100 99 98 95 83 100 96 88 81 73 65 59 50
3 4 4 6 7 35 72 35 36 21 32 34 41 49 52 47 40 43 44 56 62 64 58 54 52 52 64 76 72 82 95 87 88 96 86 95 79 84 78 54 57 53 45 37 30
5 4 3 4 6 8 20 52 37 55 63 47 49 60 62 57 62 52 54 57 55 65 73 73 70 67 68 74 73 69 70 67 77 78 76 77 72 71 92 97 77 47 38 33 29
5 5 4 3 4 7 11 46 90 34 44 60 68 68 62 67 74 72 71 70 75 68 71 78 82 79 72 72 72 67 69 69 62 68 65 51 73 68 82 83 76 83 46 33 29

GFSSW_500_rhum_072.txt.gz
RH
14 6 6 6 8 11 14 53 76 62 52 16 21 30 99 62 41 59 100 100 66 19 14 35 74 65 50 50 83 95 97 97 92 95 91 78 62 54 42 27 32 25 24 25 24
10 6 7 8 17 29 64 91 98 100 100 97 47 34 57 100 73 67 100 99 82 29 14 22 59 81 53 52 82 84 92 84 95 100 96 89 80 83 57 37 38 34 32 32 28
7 7 7 12 23 46 99 64 83 95 100 100 100 50 34 97 99 100 96 100 93 46 15 16 38 87 77 63 75 87 81 95 100 97 96 98 96 88 79 49 51 52 38 42 50
8 7 7 8 19 46 94 48 60 94 66 73 90 98 35 47 94 99 99 100 100 72 29 13 24 57 85 60 72 93 95 97 98 97 97 97 98 88 82 65 55 62 53 51 53
9 9 16 13 10 33 97 64 46 58 67 92 97 100 70 31 58 96 100 100 100 83 37 26 17 32 82 75 64 96 96 99 98 95 95 96 97 97 93 84 68 61 60 50 52
10 10 17 25 44 20 78 79 64 49 60 61 93 98 91 38 38 86 100 100 100 90 52 57 14 25 46 97 82 60 98 96 88 91 97 94 97 96 97 82 80 73 71 58 53
10 16 19 62 60 58 36 51 73 75 84 90 88 94 79 46 30 77 93 100 100 99 71 97 39 14 25 60 100 95 90 94 98 99 94 97 97 98 96 92 99 93 87 61 51
12 15 30 58 80 59 70 50 54 48 55 52 92 94 98 61 38 36 77 100 100 97 84 86 83 16 15 27 66 97 99 89 98 95 93 94 97 98 99 99 99 97 96 73 48
10 18 31 48 32 38 65 71 63 55 47 56 70 80 87 90 45 33 47 99 100 100 100 90 90 35 14 15 27 53 94 79 96 96 100 89 97 99 92 91 96 97 89 85 56
10 19 34 53 34 33 57 71 67 77 64 54 52 67 68 88 51 69 38 83 99 100 99 100 96 55 27 12 12 18 41 72 62 94 94 95 98 98 89 69 85 96 86 85 72
11 25 33 42 66 27 64 72 78 89 86 96 59 57 55 67 70 45 48 62 100 90 100 100 83 56 32 15 13 17 42 68 81 75 88 96 100 96 94 78 78 92 92 84 84
12 23 33 41 49 64 72 100 77 76 86 100 56 53 53 50 54 42 35 53 97 92 92 91 85 93 54 24 15 16 22 41 57 73 81 80 95 99 90 90 90 94 92 87 86
13 15 28 34 37 39 59 99 70 76 76 93 98 94 54 52 45 49 31 42 99 96 93 80 74 99 76 50 28 15 14 23 47 53 56 78 74 82 67 71 80 84 92 84 74
17 12 22 26 29 35 36 76 64 61 93 100 97 87 94 55 63 58 77 69 100 100 100 92 98 98 93 72 44 26 19 25 36 37 36 56 52 64 72 59 89 78 75 85 82
17 13 11 24 23 27 29 34 62 54 71 100 98 66 65 52 89 58 70 85 100 99 83 77 88 89 92 76 56 42 32 32 36 36 31 29 39 43 57 60 64 84 70 75 79
4 21 12 14 18 27 28 25 34 46 67 79 92 97 97 85 83 100 64 99 100 100 100 99 90 88 75 69 59 55 40 34 34 26 24 40 40 27 50 46 56 78 90 71 62
3 8 20 14 14 16 24 25 25 23 35 56 75 76 90 98 100 98 85 49 88 96 95 95 100 90 73 55 54 52 46 43 49 35 18 39 62 24 48 44 47 79 83 84 76
4 3 23 20 15 15 21 22 26 21 22 39 38 71 82 81 87 99 100 99 100 97 96 86 90 77 50 44 46 48 47 45 54 42 56 65 32 31 46 42 51 76 77 80 76
5 4 6 18 20 15 20 19 25 26 30 23 38 40 64 70 64 92 69 60 55 53 54 43 52 74 60 51 50 36 34 67 62 67 68 57 46 37 46 43 49 71 65 65 82
5 4 4 4 29 23 15 18 20 23 32 35 25 30 57 48 68 77 75 61 46 47 47 39 55 82 81 72 52 33 93 92 69 70 63 56 55 46 45 45 50 68 56 55 52
7 4 4 4 5 31 23 15 19 21 26 33 35 24 32 40 46 62 79 81 86 78 53 72 79 66 52 48 36 49 84 87 92 85 83 68 66 61 49 44 44 74 96 95 93
10 6 5 3 4 10 44 26 19 24 27 25 31 30 23 23 33 35 47 93 96 95 100 98 92 82 78 71 73 78 83 94 97 87 71 81 70 71 61 46 43 51 91 83 88
10 7 6 5 4 5 16 43 30 21 28 26 21 34 39 29 24 22 25 45 54 92 87 90 91 89 98 88 64 59 64 77 87 77 62 77 72 86 78 73 70 62 80 86 88
11 8 6 6 5 3 5 17 52 39 20 19 22 28 44 43 44 48 40 27 31 40 56 66 69 75 73 75 81 82 95 97 85 78 74 64 82 100 99 96 98 94 87 82 82
12 10 8 8 8 6 4 6 12 67 45 31 26 29 36 46 55 51 45 49 48 46 44 45 43 43 50 61 70 71 75 72 75 82 73 77 76 99 100 100 100 100 97 93 79
17 11 8 8 9 8 5 4 6 33 53 44 74 50 38 48 56 68 56 54 53 58 56 60 56 53 50 51 57 69 65 64 81 73 64 77 70 98 98 96 91 82 82 74 48
19 13 9 9 9 8 8 6 4 7 49 68 40 70 69 53 63 64 72 68 68 65 65 63 64 61 55 59 56 53 76 69 67 86 91 68 90 72 88 92 100 88 70 55 42

GFSSW_500_rhum_075.txt.gz
RH
9 8 6 7 7 13 24 94 90 93 91 100 84 35 38 48 68 100 100 100 88 79 89 13 14 15 34 34 45 56 47 49 82 99 94 80 61 46 31 23 16 16 14 16 17
9 8 8 9 8 15 59 76 50 99 85 100 100 74 45 39 87 83 100 100 99 86 95 16 14 18 34 41 43 95 69 33 66 98 98 82 75 56 38 25 20 23 16 17 19
9 10 14 14 16 12 40 51 52 72 88 90 93 90 78 42 58 100 100 100 100 98 98 20 15 23 34 54 42 39 66 59 83 96 96 97 85 65 46 31 30 37 23 23 22
10 12 12 20 25 28 18 53 53 53 59 61 71 76 93 63 43 100 99 100 100 97 98 22 15 18 26 51 54 39 82 100 99 96 95 98 96 77 57 45 32 36 34 27 27
10 14 15 34 49 39 46 29 55 65 50 62 67 91 90 93 38 85 99 99 100 99 94 41 16 17 23 51 61 43 80 99 98 96 96 98 96 94 72 63 45 40 49 41 34
14 15 18 30 51 51 51 56 46 39 60 67 64 81 96 100 43 57 100 98 100 100 98 45 19 16 24 72 72 57 81 84 90 98 96 97 98 95 94 76 58 49 49 46 47
17 17 17 19 54 54 53 68 59 56 31 41 65 86 86 90 63 51 100 100 96 100 97 53 15 14 23 67 88 69 70 96 98 98 97 98 95 97 96 94 76 73 67 55 42
15 27 21 24 50 58 59 62 68 59 46 29 78 84 81 100 63 45 96 100 100 98 99 84 40 14 23 45 86 85 77 83 84 97 97 97 97 100 98 99 92 93 90 80 62
13 23 35 33 37 58 65 68 78 75 55 35 60 71 74 85 72 43 91 100 99 100 100 99 70 16 19 36 56 62 67 72 91 94 97 93 98 98 97 98 98 97 100 96 87
13 21 26 38 38 38 71 82 92 94 84 62 46 53 55 63 85 42 93 99 100 100 100 100 80 34 16 24 20 34 48 74 94 93 91 89 98 98 98 97 98 100 99 98 97
13 19 23 29 32 30 47 72 88 97 84 92 43 46 44 51 57 39 70 99 100 98 98 100 84 43 18 15 21 31 54 77 90 92 97 98 98 96 97 97 98 95 96 97 97
6 12 19 22 28 27 29 59 71 84 81 82 90 37 48 44 80 38 50 100 94 98 98 94 80 78 53 16 15 26 33 46 67 98 97 98 97 95 95 91 94 94 88 90 95
4 7 13 15 20 27 25 29 62 67 79 82 53 57 35 39 100 58 67 100 96 98 100 93 81 93 63 41 19 14 18 38 54 58 76 93 96 88 88 80 68 67 63 67 67
6 4 11 14 17 21 24 26 33 53 60 84 62 45 28 31 97 46 83 96 100 100 100 100 100 99 68 47 24 14 14 17 24 45 51 61 57 71 74 91 83 59 57 74 72
9 5 4 12 14 16 22 25 23 43 48 82 81 76 27 28 36 32 86 99 100 99 100 99 93 92 83 57 32 22 16 16 18 17 27 28 38 44 55 50 64 66 63 64 81
13 7 4 7 16 16 20 21 23 25 44 75 79 82 89 29 24 41 96 100 100 100 100 92 91 81 91 75 56 44 26 18 16 21 20 26 22 19 34 41 46 55 66 81 74
14 11 6 4 6 21 16 16 23 21 24 39 72 75 46 85 38 96 100 100 100 100 99 100 87 87 94 91 83 72 47 31 26 20 17 26 22 11 19 28 35 42 55 71 75
15 14 9 5 4 8 22 17 22 26 26 25 53 63 61 66 69 29 99 100 100 100 90 90 78 81 86 82 72 69 55 40 31 26 24 29 17 11 20 32 31 40 50 55 70
16 16 11 7 5 4 22 24 17 23 28 28 30 56 57 60 55 58 79 99 99 97 98 94 96 98 91 76 66 51 45 42 39 32 31 21 16 20 21 32 45 50 51 51 53
16 16 12 10 8 5 4 19 32 20 26 33 26 50 56 62 74 74 60 60 71 73 73 74 80 78 77 68 49 44 52 46 33 28 28 27 40 40 43 54 35 47 48 50 73
15 16 15 13 9 8 6 4 25 28 26 28 32 29 40 63 66 74 75 66 47 42 38 37 50 42 40 56 53 48 44 40 41 40 43 39 38 53 65 60 53 52 48 50 76
16 18 17 14 10 8 6 4 4 27 31 28 25 30 29 30 44 40 59 79 89 94 85 53 41 36 38 62 70 74 62 46 34 39 48 44 39 72 75 74 60 50 48 50 87
18 19 18 14 12 9 8 9 6 4 27 38 23 23 32 38 34 35 34 66 90 96 91 79 86 90 82 70 48 40 42 33 42 66 40 50 40 73 89 82 70 50 47 50 79
21 20 20 16 14 9 10 9 6 6 4 27 44 22 27 46 46 54 38 40 48 85 100 100 99 100 100 97 100 95 91 81 70 56 58 45 60 81 99 93 92 86 70 69 66
24 22 22 18 17 14 12 14 8 6 4 6 46 49 28 43 59 58 56 60 54 45 48 67 80 87 90 94 93 89 92 77 59 68 65 66 78 90 91 95 98 97 91 81 77
28 28 26 21 18 18 15 16 10 5 5 5 12 52 64 42 58 68 65 53 51 64 59 54 52 51 51 51 54 67 74 75 75 73 60 74 69 100 92 89 93 100 97 100 97
38 42 43 40 29 23 19 20 15 6 6 6 6 33 51 78 78 66 72 72 62 53 55 51 54 58 54 56 50 34 51 60 69 68 80 59 90 74 85 96 100 100 90 85 88

GFSSW_500_rhum_078.txt.gz
RH
5 6 12 12 18 21 23 24 15 31 80 83 98 100 48 46 78 46 100 100 98 98 99 69 14 15 21 26 47 22 13 13 23 68 94 95 94 61 47 34 25 19 16 15 13
5 7 10 14 24 28 35 36 23 19 56 72 77 100 100 92 100 55 94 100 98 99 66 98 60 14 16 28 43 56 20 22 35 74 98 94 95 87 52 41 30 22 23 18 14
6 10 10 16 26 36 43 47 41 20 42 49 49 75 90 100 100 78 100 100 100 99 98 91 62 28 14 26 28 41 27 32 50 52 84 94 93 90 62 48 35 25 25 30 22
6 9 10 14 23 42 46 50 46 32 20 55 61 61 64 100 100 100 99 100 100 99 100 99 68 47 14 12 18 20 37 58 71 62 61 92 96 75 70 56 41 29 30 37 28
6 8 13 14 20 43 45 52 47 53 20 16 51 56 72 70 99 73 98 98 100 100 97 84 88 77 14 12 13 22 25 63 89 81 56 65 97 78 69 61 47 36 30 40 59
6 6 14 19 18 31 48 56 56 66 45 19 32 45 83 89 87 85 78 100 100 100 99 80 86 88 15 15 14 23 23 36 100 95 98 58 95 95 77 62 56 42 40 35 68
8 6 15 23 24 23 49 57 67 71 66 39 56 70 84 89 100 61 65 100 100 100 100 100 96 82 25 17 25 18 36 40 50 78 98 93 87 96 99 70 65 57 50 46 52
10 5 11 21 25 24 27 47 73 66 71 60 46 70 89 93 100 81 65 100 100 99 84 99 99 63 19 18 31 61 38 42 56 80 100 100 92 99 97 87 74 63 62 53 57
12 7 6 14 19 23 24 31 63 63 59 58 46 60 84 100 100 86 65 100 99 100 94 100 97 63 21 18 29 40 25 31 33 66 94 97 100 93 98 97 76 68 70 72 68
15 11 5 12 14 18 22 22 44 60 60 48 40 46 68 92 100 58 66 100 97 99 100 100 100 74 26 15 14 12 18 43 48 48 87 98 98 97 97 98 97 83 88 90 89
16 14 8 7 13 20 22 20 30 56 65 54 30 42 54 88 77 66 80 100 86 89 79 100 82 71 22 15 15 20 36 76 69 68 86 92 94 97 96 97 97 94 93 95 98
18 15 9 7 8 17 24 23 19 47 60 62 29 28 41 50 58 70 97 99 91 70 98 97 76 80 22 14 20 25 36 71 91 84 79 79 87 90 93 99 96 97 98 92 92
18 17 13 7 6 14 21 25 21 24 51 61 44 19 34 37 57 65 100 91 82 99 100 100 96 86 47 16 17 23 35 66 92 94 89 77 87 82 90 98 96 98 97 92 93
19 17 14 10 7 7 20 19 20 21 39 64 51 18 23 36 48 65 96 80 98 100 100 100 100 96 79 42 18 16 25 40 53 68 77 70 60 82 98 94 92 95 95 100 100
19 17 14 12 8 5 15 23 19 22 30 57 57 29 17 41 38 62 86 93 100 100 96 100 96 94 86 64 30 16 15 16 24 29 28 34 40 56 67 89 81 95 95 97 98
20 17 16 14 10 7 6 16 19 22 26 46 55 51 14 28 51 57 88 96 100 99 100 97 97 95 90 83 54 33 20 14 15 21 20 33 30 30 40 40 48 84 95 96 94
20 18 17 15 12 9 6 7 15 20 25 29 52 52 38 14 40 84 95 95 100 94 92 96 99 97 100 73 55 41 24 17 15 13 11 11 13 13 20 33 46 52 55 80 82
23 22 19 16 15 12 10 7 7 26 23 26 50 61 55 22 20 85 97 97 93 98 99 97 80 76 83 88 78 55 43 33 22 16 13 14 13 12 19 29 33 42 43 46 55
25 24 21 20 17 17 15 13 6 18 26 24 27 56 64 52 54 88 97 100 98 97 99 87 90 100 97 89 95 85 80 67 51 34 22 18 17 18 19 22 21 25 21 22 32
33 26 24 23 20 19 19 20 8 4 21 26 28 31 60 75 46 78 88 94 100 100 83 82 97 92 89 85 81 81 79 74 62 46 30 22 19 20 24 34 25 23 26 28 35
39 31 29 25 24 26 23 22 15 7 5 18 25 27 30 54 86 64 65 82 80 78 81 88 82 76 78 79 85 74 60 56 54 44 33 24 22 22 38 53 42 37 27 28 34
46 35 33 32 34 39 34 26 23 14 6 5 28 25 26 28 38 76 82 68 54 54 55 76 63 56 80 88 62 64 68 63 51 38 35 29 17 35 48 68 68 47 38 37 50
50 44 38 39 40 48 43 28 23 18 11 6 4 19 23 25 29 24 43 64 88 76 82 72 50 43 39 43 34 31 49 68 50 40 28 29 18 34 52 77 81 82 71 59 57
57 51 46 42 46 47 52 35 25 25 16 12 13 7 36 22 22 39 36 37 63 99 98 91 84 63 52 63 68 57 72 82 72 49 31 24 38 55 76 89 94 92 77 58 49
59 54 46 43 50 52 52 42 31 29 26 14 9 7 9 58 34 37 58 59 39 51 79 100 100 79 89 95 98 99 99 84 42 40 30 41 54 68 91 91 84 100 95 81 64
62 56 45 49 54 58 51 45 38 33 32 15 9 5 6 39 68 60 72 71 70 59 38 57 97 100 100 96 89 84 92 96 98 91 53 68 50 99 85 86 93 88 98 100 93
64 57 51 53 56 53 44 47 44 42 32 19 12 6 6 34 92 85 60 81 83 74 66 59 49 51 50 55 50 44 57 62 66 73 77 60 83 73 79 81 95 94 92 99 96

GFSSW_500_rhum_081.txt.gz
RH
12 11 8 8 14 17 15 24 40 37 25 22 49 90 99 38 45 100 54 80 100 100 99 98 62 46 15 30 38 70 93 49 13 10 13 30 64 91 91 59 35 29 22 19 22
13 12 8 7 14 22 18 19 42 46 28 20 32 74 92 87 64 100 94 60 100 100 100 97 58 70 16 21 57 75 65 41 19 14 20 30 70 88 96 76 48 33 27 20 17
14 13 10 7 12 22 22 16 43 49 34 18 30 34 91 100 80 100 100 52 93 100 96 99 68 48 26 19 44 68 48 20 29 34 25 28 66 94 100 80 72 39 28 26 20
14 14 11 7 9 14 20 18 37 54 43 23 17 33 51 89 100 100 99 46 99 93 100 98 72 54 23 32 25 49 46 25 13 21 26 30 57 85 99 88 75 47 36 30 29
14 14 12 7 7 13 20 18 30 60 55 33 28 29 44 68 100 100 100 85 85 97 100 100 100 84 19 15 21 41 53 29 26 16 28 51 60 93 100 93 76 63 42 36 29
16 16 13 9 6 12 19 21 25 58 64 38 44 50 44 51 99 100 100 87 73 100 100 99 100 94 36 19 16 33 39 43 45 47 34 51 50 93 100 76 81 63 54 40 34
16 16 13 9 7 9 18 24 27 55 71 37 45 64 71 54 82 100 100 96 69 100 95 99 100 94 84 51 27 19 29 28 33 50 53 59 43 65 89 92 90 66 61 43 40
17 15 13 10 7 7 17 23 23 51 69 43 35 66 81 75 63 100 100 79 74 100 87 100 99 96 62 85 43 29 17 17 24 39 57 65 41 55 76 95 85 88 66 51 53
19 15 14 11 9 6 13 21 23 43 59 47 27 60 95 99 93 92 100 96 94 100 91 100 98 99 81 84 41 93 25 11 19 25 81 81 74 77 62 100 78 81 77 62 45
20 16 15 13 11 7 10 19 22 39 48 47 24 53 87 100 100 79 98 100 100 99 97 97 94 84 99 84 57 38 18 13 13 24 38 72 65 99 64 83 97 66 72 69 66
23 18 16 15 15 10 8 18 20 31 44 42 20 44 82 100 100 51 96 100 100 89 80 94 92 94 94 72 34 36 22 20 27 35 36 52 78 91 92 92 100 79 67 73 81
26 20 18 18 19 17 10 11 18 28 36 37 16 34 58 65 75 42 99 100 100 86 94 94 75 98 93 54 22 22 22 26 30 36 39 45 55 75 98 100 97 95 84 82 96
27 26 21 20 20 21 17 11 15 23 29 38 17 24 34 48 55 51 98 95 73 82 82 83 86 95 89 66 27 18 26 37 30 28 43 42 44 55 95 96 96 99 79 89 93
30 29 24 22 22 24 23 17 13 18 29 44 21 18 30 33 42 82 68 67 69 81 78 88 88 85 90 73 26 17 25 29 31 29 44 42 43 52 54 72 76 97 100 98 100
36 28 27 26 24 28 27 21 18 18 26 45 30 17 21 39 56 65 70 72 87 76 100 100 99 99 84 82 30 15 17 22 26 32 48 60 48 55 54 56 65 76 96 98 96
39 36 29 29 28 33 35 29 22 20 24 38 47 20 16 34 56 59 64 75 98 100 100 96 91 88 95 82 46 24 16 16 18 25 30 52 47 41 51 63 85 91 94 94 97
44 42 34 33 32 35 40 33 26 16 24 29 46 48 13 20 45 50 67 86 97 97 100 99 90 96 98 89 66 52 20 14 14 14 12 19 23 21 40 40 67 95 97 99 98
48 45 42 36 37 35 41 37 33 25 15 22 31 50 38 14 30 57 52 66 75 89 85 75 83 86 95 83 85 74 44 23 16 14 12 12 13 16 35 46 44 59 92 89 82
49 49 47 43 40 37 42 44 39 28 16 15 24 42 55 29 18 60 62 68 60 77 92 81 85 100 97 94 79 69 65 46 32 24 16 13 12 13 18 35 34 34 30 43 58
50 51 50 52 42 40 46 47 42 31 25 19 14 26 44 62 34 46 79 74 68 87 91 88 96 93 81 84 86 83 80 63 54 43 32 29 23 20 19 22 30 26 24 22 18
55 52 51 56 43 43 49 45 42 39 33 25 17 14 25 33 72 63 72 86 91 100 100 97 96 88 87 81 83 87 87 84 77 61 51 43 40 32 33 30 28 34 41 31 22
57 57 54 58 46 48 47 42 41 42 39 31 17 13 13 25 31 81 77 100 100 97 100 98 86 86 94 92 83 81 76 75 68 54 49 47 40 39 31 38 41 60 51 38 33
58 57 57 59 52 52 50 46 39 42 43 36 23 18 11 9 27 38 60 92 91 89 82 94 93 84 90 80 78 85 92 89 77 62 44 40 27 32 30 44 59 55 42 44 39
58 55 57 58 56 54 52 43 37 40 41 33 23 20 13 8 14 32 54 61 66 74 99 83 67 69 73 62 49 51 75 58 35 41 45 30 30 30 38 63 77 56 50 54 52
61 56 56 57 54 52 47 38 37 40 38 30 24 17 11 11 7 25 50 82 84 63 100 100 100 100 90 70 65 50 43 44 35 43 32 38 38 40 56 61 68 49 58 61 57
68 61 60 62 58 53 46 42 41 41 32 26 22 16 12 13 12 8 64 65 95 90 63 90 100 100 100 100 72 68 79 80 88 96 63 65 31 88 53 55 63 58 57 63 68
78 70 64 66 59 55 52 46 40 35 29 25 21 19 11 12 14 46 98 100 98 100 100 79 68 86 98 100 99 61 99 99 92 92 96 72 91 81 74 63 60 58 59 73 73

GFSSW_500_rhum_084.txt.gz
RH
11 11 11 10 9 7 8 15 16 16 42 33 10 24 55 96 66 44 100 94 37 94 100 99 83 58 83 46 63 72 68 48 11 13 31 52 44 64 80 88 53 30 22 25 48
12 12 12 11 10 7 8 15 18 20 47 40 11 26 73 98 94 40 90 100 50 96 98 100 86 71 48 44 91 64 71 42 16 11 18 37 54 56 63 84 95 44 28 21 23
14 13 12 13 11 9 8 15 21 28 61 48 15 23 51 100 100 100 48 100 88 85 100 100 100 73 43 33 62 74 54 52 37 16 14 30 49 55 52 57 85 92 40 25 24
16 14 12 14 13 11 9 14 21 36 80 49 21 26 39 100 100 99 100 62 67 69 100 88 100 89 57 55 67 73 97 94 62 23 17 25 30 30 39 36 48 90 79 37 30
18 16 14 15 14 13 9 12 20 38 89 45 26 36 59 82 92 96 100 100 60 73 100 100 99 92 72 88 56 66 87 80 80 83 60 24 20 22 25 29 35 52 86 68 42
20 17 15 16 15 15 11 11 18 35 86 34 28 45 50 44 86 100 100 95 86 79 97 100 98 99 97 100 57 26 70 86 99 100 63 37 42 39 22 20 33 39 62 82 65
20 18 16 17 16 18 13 11 16 33 70 26 31 53 66 42 76 98 100 97 58 75 100 100 100 95 76 88 46 19 64 78 96 73 53 76 73 22 20 22 39 68 66 75 65
23 20 16 18 20 20 15 12 15 31 47 21 34 64 68 47 71 95 84 94 47 90 100 100 100 96 76 84 71 40 35 78 100 69 33 19 26 26 14 25 30 68 93 77 66
28 24 18 19 21 23 17 12 14 26 34 19 26 57 74 46 76 100 100 88 66 84 100 100 97 98 82 77 70 70 37 44 71 76 59 23 22 18 24 25 24 53 88 90 78
29 26 23 20 21 24 20 13 13 22 27 16 23 64 95 56 93 99 100 88 72 100 93 99 99 81 100 91 70 89 42 26 31 49 44 38 35 44 25 25 33 70 90 92 74
32 28 27 22 22 25 22 14 13 20 26 13 18 61 64 56 92 100 100 68 91 94 90 100 92 84 100 100 88 93 92 20 17 21 24 30 44 51 40 36 36 44 75 80 89
35 32 30 25 23 26 27 16 13 15 23 14 15 37 40 39 70 80 63 66 100 86 100 94 85 95 96 90 99 94 71 56 37 20 18 22 23 64 48 28 28 48 50 61 73
36 34 33 30 26 26 30 19 14 16 21 15 17 18 23 22 40 50 55 77 95 96 100 100 100 82 96 96 88 82 57 51 34 34 32 15 16 20 36 35 43 62 55 84 92
34 37 36 33 29 26 28 21 16 16 19 18 17 23 20 31 81 61 48 69 62 72 87 78 81 88 90 85 92 71 30 29 29 25 28 30 20 21 28 42 58 99 94 70 99
36 38 38 33 31 28 28 23 19 17 19 23 15 25 32 36 40 60 50 55 58 68 72 73 74 73 78 91 79 62 44 20 18 21 17 18 18 25 31 41 57 74 98 93 84
36 39 40 38 33 31 30 26 22 19 18 21 26 26 33 41 54 51 56 57 53 57 61 62 71 59 57 78 78 64 47 24 18 17 14 18 18 18 30 71 78 74 90 77 97
36 40 42 38 34 36 32 30 26 24 19 15 22 22 28 43 42 46 51 55 57 62 67 68 67 80 79 79 76 77 55 17 18 17 14 19 22 16 56 67 71 98 86 70 78
43 40 45 39 35 38 34 34 29 28 24 14 13 23 23 16 47 48 63 74 80 81 77 80 67 75 65 83 80 70 55 31 18 13 13 17 15 15 21 47 48 56 82 82 94
48 46 46 41 40 41 39 34 27 30 28 22 15 14 26 29 17 60 60 79 76 83 97 100 89 84 81 83 93 91 68 48 27 16 14 14 12 12 14 26 40 43 55 67 70
51 49 46 46 43 43 43 36 30 32 32 26 23 17 13 24 37 23 77 90 89 70 96 94 100 94 85 94 94 83 85 72 58 35 27 20 18 19 14 14 26 29 36 40 54
56 54 48 48 47 46 45 38 35 36 36 29 26 22 16 13 24 48 44 88 97 98 92 100 100 100 100 91 89 99 80 68 63 55 49 44 36 34 36 31 26 23 25 26 26
64 56 52 51 49 48 48 44 41 39 39 32 26 22 17 13 11 25 65 69 95 100 100 100 100 100 100 100 96 87 81 74 72 61 59 61 53 58 62 51 34 32 32 25 26
71 60 56 54 54 55 53 51 47 44 38 33 26 25 22 14 12 10 37 99 92 100 100 100 99 100 100 98 89 80 82 79 76 67 57 58 45 55 54 52 44 39 34 30 27
78 75 69 61 60 61 55 54 49 43 37 32 25 26 24 15 13 13 9 56 97 100 100 100 100 100 100 98 99 94 100 92 84 54 65 45 61 62 66 54 44 36 41 32 27
85 80 78 71 63 64 60 58 51 40 35 27 24 25 22 12 13 16 14 12 76 100 100 100 100 98 100 97 99 100 97 70 66 79 64 50 41 48 68 60 40 34 30 36 28
93 88 76 78 66 66 62 59 50 42 34 25 24 24 17 9 13 15 30 45 62 99 100 92 100 100 100 99 87 84 88 68 50 42 31 46 28 96 54 51 40 30 29 25 33
91 84 80 77 70 66 64 59 50 42 32 25 22 19 12 8 8 10 18 55 100 82 100 100 93 100 100 100 99 80 86 86 73 55 84 59 95 86 63 52 41 34 28 35 43

GFSSW_500_rhum_087.txt.gz
RH
14 12 8 8 8 10 10 7 9 19 33 49 20 18 28 46 100 100 75 61 65 80 100 96 75 68 96 72 44 34 59 35 39 100 81 53 88 95 84 77 82 30 26 51 72
15 10 8 9 9 10 11 7 9 20 44 37 17 24 32 81 99 100 80 100 72 94 100 100 96 64 86 98 88 40 62 71 31 100 93 31 96 98 97 91 90 52 28 29 55
16 12 8 9 10 10 11 7 8 24 44 19 16 30 32 94 100 99 80 100 87 80 100 100 98 87 97 97 98 93 61 83 97 57 93 55 82 86 97 95 94 94 42 28 26
20 15 9 10 10 9 12 8 8 19 36 14 21 42 32 82 100 93 100 100 100 53 87 100 97 92 94 86 98 97 69 98 92 98 30 37 40 94 89 74 83 89 91 50 29
21 17 11 11 10 10 12 8 7 15 22 11 31 52 44 77 100 87 100 99 100 72 56 73 97 98 86 83 98 98 63 92 93 84 94 25 28 72 77 54 57 77 88 89 48
21 18 14 13 10 11 12 8 6 9 10 10 29 54 52 61 98 99 100 94 100 100 59 64 100 96 82 72 91 100 100 94 93 98 82 42 20 29 51 41 42 35 61 75 86
23 20 18 14 12 11 12 9 7 6 7 9 27 38 46 48 83 100 90 52 59 98 83 91 100 84 95 64 60 80 100 98 86 98 96 71 19 13 35 27 29 21 25 44 55
25 23 21 16 13 12 12 10 7 6 6 7 20 34 20 48 72 100 100 80 41 50 76 81 95 93 87 83 44 48 77 84 98 100 85 64 30 15 20 18 15 12 11 20 37
27 23 24 18 16 12 12 11 9 6 5 6 12 27 20 36 75 96 84 82 99 52 95 100 100 92 93 80 92 61 89 96 99 96 90 85 66 45 29 16 14 11 12 14 16
29 26 26 20 17 14 13 12 10 7 5 8 7 19 30 40 96 97 73 62 80 100 100 99 95 99 99 86 89 94 75 75 93 87 74 97 72 67 26 14 16 17 14 14 13
31 30 26 21 18 17 15 14 12 9 6 6 6 13 35 63 65 75 52 36 44 98 91 99 90 79 94 88 99 100 89 62 58 79 84 89 71 65 41 56 36 16 14 17 16
33 33 29 22 20 20 17 15 14 11 8 7 7 7 50 64 69 79 49 36 26 60 97 95 99 97 99 96 80 87 95 55 36 34 71 89 67 50 27 24 23 15 18 17 15
34 34 33 26 22 22 19 16 16 13 10 10 10 8 12 36 49 40 35 34 43 66 87 82 58 74 73 87 86 97 100 95 59 37 42 42 44 56 38 18 15 19 18 16 18
36 37 35 30 24 25 22 19 18 16 14 12 15 13 14 14 20 30 24 39 55 81 99 76 69 66 62 73 99 97 100 91 92 50 31 22 21 27 33 38 36 30 25 24 19
40 37 37 31 30 29 24 23 21 18 18 15 15 21 19 19 17 14 30 45 71 81 67 67 60 59 77 100 92 93 92 98 97 84 50 34 30 16 15 19 20 28 49 47 45
49 43 40 35 34 31 29 26 26 22 19 17 14 16 36 31 31 24 47 57 75 85 68 69 76 73 92 91 98 97 96 84 52 40 81 37 28 27 20 16 19 23 20 28 35
54 50 43 39 38 35 33 30 29 28 23 20 14 15 17 28 38 37 35 35 52 61 63 59 62 59 59 67 78 95 94 73 50 34 40 31 22 18 18 23 29 28 19 23 32
57 55 48 42 42 39 38 35 35 35 29 24 20 15 13 17 16 41 40 46 53 52 57 61 59 58 66 60 64 74 82 64 47 55 43 29 22 15 23 30 35 26 26 19 52
60 61 53 46 43 43 42 41 41 40 33 29 23 20 20 14 18 25 40 48 54 59 73 95 82 96 99 82 83 79 65 65 55 50 40 29 19 15 20 16 30 28 27 46 66
64 66 54 46 46 45 46 46 45 43 36 32 26 25 24 20 14 17 41 49 63 86 78 90 100 90 100 100 100 96 100 91 73 49 27 26 17 15 15 13 15 21 35 39 51
72 71 57 51 49 50 51 47 47 44 37 35 27 27 24 18 15 12 19 62 79 99 100 94 96 100 100 90 96 99 98 97 99 76 55 97 64 22 21 17 14 13 16 25 41
81 77 71 60 56 56 57 52 48 45 40 35 27 26 26 19 14 13 11 90 94 100 100 100 100 100 100 100 100 98 99 100 99 93 81 63 65 50 53 38 31 26 20 17 21
92 82 78 71 68 60 60 55 53 46 41 36 29 27 25 19 13 14 13 13 51 100 100 96 100 100 100 100 92 80 87 98 100 100 83 76 68 71 83 80 72 57 44 31 24
94 88 80 74 67 63 62 56 57 50 43 38 31 28 23 18 13 14 13 48 23 94 100 94 95 100 100 100 98 100 100 100 100 85 90 67 80 73 98 100 94 74 54 43 34
96 92 80 77 70 66 63 55 57 53 47 40 32 26 22 16 12 13 10 16 94 74 97 100 95 92 100 100 100 94 100 98 82 86 72 79 68 87 98 66 61 66 49 53 43
97 93 81 77 70 72 64 61 59 56 50 40 32 25 21 13 9 10 10 15 66 91 74 100 100 100 100 100 100 97 100 100 92 85 67 68 66 80 66 51 38 37 50 43 33
96 97 84 78 77 79 74 68 64 62 53 40 33 26 18 12 8 9 10 8 22 66 76 99 100 84 97 100 100 87 61 68 69 89 90 50 56 60 65 52 43 32 26 39 32

GFSSW_500_rhum_090.txt.gz
RH
29 24 14 11 7 8 8 7 6 4 4 6 9 18 24 24 50 77 100 56 73 89 84 88 75 54 88 92 67 56 60 54 44 99 82 80 59 51 80 88 83 56 38 85 99
31 24 14 12 8 8 8 7 6 5 4 6 11 27 24 34 75 86 100 70 76 78 100 100 84 66 60 94 98 69 65 45 55 78 98 87 60 78 82 92 94 69 44 54 87
36 24 15 13 9 8 8 8 7 5 4 5 10 23 22 54 100 100 100 98 81 72 100 94 94 86 59 79 97 97 52 57 73 76 95 90 71 76 92 96 92 87 53 49 69
33 25 17 13 10 9 9 8 8 6 5 4 8 21 22 81 100 95 99 100 73 69 100 95 83 77 58 52 94 96 69 78 99 70 84 77 67 54 78 84 90 93 91 56 42
33 27 19 14 11 9 9 8 8 6 5 4 7 19 25 79 99 86 80 100 75 99 97 100 100 94 78 57 76 100 91 86 97 85 97 94 79 48 59 45 83 78 89 89 56
33 29 20 15 12 10 10 9 9 7 5 4 6 15 75 63 92 84 82 100 91 90 100 97 100 100 84 73 96 93 98 91 98 88 74 99 97 43 35 36 84 84 83 94 92
37 30 24 15 13 11 11 10 10 8 6 4 4 9 13 76 87 86 88 100 78 85 90 96 100 96 70 69 78 99 98 98 98 99 96 66 79 50 42 44 67 78 81 88 93
38 32 27 17 14 12 12 10 10 9 6 4 4 8 26 83 73 100 78 98 82 85 75 78 88 82 90 69 59 98 100 97 96 97 94 99 93 79 56 32 33 70 64 78 80
40 34 30 20 16 14 14 12 11 10 8 5 4 10 63 66 63 62 69 89 98 68 53 48 70 84 94 92 83 87 86 97 99 98 100 99 99 88 83 21 36 44 55 48 52
41 35 31 24 19 17 16 14 12 12 9 7 5 13 54 64 76 63 40 45 54 60 47 31 41 66 97 89 79 78 97 99 95 99 97 97 85 77 78 28 14 20 32 30 22
42 36 34 28 22 20 18 17 14 12 12 9 6 6 23 43 50 60 50 36 23 54 54 58 70 39 62 81 100 68 61 89 78 94 98 100 98 93 83 39 13 12 14 18 16
43 38 37 29 26 23 21 19 16 14 13 11 8 6 13 23 36 39 38 100 24 48 63 61 76 80 49 71 67 83 76 61 100 93 99 73 90 92 83 48 31 11 12 15 14
49 40 41 33 29 25 24 22 19 16 15 14 13 8 8 14 22 27 21 46 77 65 74 52 60 57 67 52 54 75 98 100 84 96 81 82 84 70 77 59 43 26 14 15 14
56 48 43 38 32 28 27 26 22 18 18 18 17 16 12 9 9 11 13 18 71 50 72 66 70 64 73 76 85 78 98 88 92 77 61 65 71 72 65 65 64 44 30 25 25
60 55 50 44 38 34 30 30 26 21 19 21 19 15 17 23 12 8 8 12 30 63 61 70 62 50 46 67 74 84 77 100 95 84 76 57 48 50 49 38 40 44 37 37 35
68 61 56 48 43 38 36 34 32 26 21 22 22 18 14 16 28 18 10 15 21 44 68 66 61 54 61 54 76 77 88 87 96 100 78 68 50 37 35 29 26 36 32 27 17
74 63 58 53 48 43 40 38 37 32 28 24 23 22 17 16 16 27 34 22 34 51 65 72 68 61 64 80 82 90 100 100 99 95 64 82 70 47 37 28 18 19 25 32 31
78 68 61 57 50 46 44 41 42 36 33 29 25 25 24 19 14 15 24 46 39 56 62 64 71 68 62 64 86 94 100 99 100 93 76 58 64 57 43 34 31 26 20 15 16
86 73 65 60 52 50 49 45 45 41 36 34 28 28 26 23 16 12 14 32 55 54 58 68 61 72 70 75 61 79 81 100 99 91 73 60 46 40 35 30 23 20 19 18 16
93 80 72 59 56 55 53 51 50 46 39 36 31 29 28 25 17 13 12 15 45 69 76 76 70 80 88 74 68 84 100 94 84 86 68 59 53 53 42 24 20 19 19 23 30
95 84 76 68 67 61 58 55 55 53 43 39 33 31 28 25 17 15 12 12 21 55 92 100 100 98 93 82 83 100 94 100 97 94 84 71 67 49 34 18 15 14 15 19 23
95 92 81 73 74 70 63 57 54 55 47 44 36 33 29 24 16 15 11 14 25 98 96 100 100 100 100 100 100 100 100 100 99 91 100 100 76 88 57 24 20 18 14 14 16
96 95 90 76 76 71 65 56 54 54 49 47 38 34 30 24 14 14 10 11 17 81 100 89 100 100 100 100 98 91 100 100 98 100 84 94 82 78 85 73 65 43 41 31 19
97 94 90 81 75 74 67 57 59 61 56 49 40 35 29 22 14 10 10 9 14 39 91 100 82 96 99 99 97 97 100 100 100 97 93 91 100 100 98 96 83 68 64 40 40
96 96 93 84 77 72 68 65 64 69 64 53 42 36 26 19 13 10 9 8 10 26 84 100 100 72 85 100 100 99 100 100 95 90 88 90 93 100 100 94 86 74 72 51 49
98 97 100 84 81 80 78 77 72 75 61 51 41 37 28 18 12 8 8 9 7 11 84 98 99 100 100 91 96 87 100 93 86 94 81 88 81 100 96 89 86 70 62 56 51
97 96 97 93 92 86 76 70 70 65 58 50 43 37 26 18 12 8 7 9 7 8 36 90 91 100 100 100 100 100 100 91 95 100 96 77 96 98 84 64 47 44 43 37 32

GFSSW_500_rhum_093.txt.gz
RH
44 36 31 25 14 9 10 8 6 4 4 3 4 8 13 15 29 51 100 94 100 97 94 89 96 65 83 97 94 82 86 74 77 100 85 72 67 75 65 83 64 46 54 90 99
41 36 32 25 14 11 10 9 6 4 4 3 4 7 12 24 100 96 92 84 100 100 98 91 100 76 83 96 94 99 91 92 78 100 98 78 72 72 67 80 91 66 60 90 82
41 38 33 26 14 12 11 9 6 5 4 3 4 8 10 63 95 100 99 77 99 100 94 84 88 82 75 97 90 98 96 96 98 100 100 81 77 86 69 71 94 87 62 74 97
44 39 36 28 14 13 12 10 7 5 4 3 4 8 12 58 90 77 92 67 94 99 100 100 68 76 63 92 98 94 99 97 98 98 90 96 79 79 79 75 78 89 82 78 84
49 43 37 30 15 15 14 10 8 6 5 4 4 8 11 56 62 75 82 58 90 85 98 99 100 64 62 75 97 87 97 98 99 96 90 95 92 72 60 70 74 83 85 89 72
52 48 38 32 17 16 15 11 9 7 5 4 4 6 11 50 60 80 81 59 93 100 100 100 99 84 51 57 94 98 99 97 98 95 96 87 82 91 55 46 62 79 73 84 93
55 50 39 33 20 19 16 12 10 8 6 5 4 6 11 35 59 76 75 58 83 98 100 100 100 91 58 39 64 100 98 99 95 96 87 91 80 87 64 45 44 71 87 92 81
58 52 40 34 23 21 18 14 12 10 7 6 5 8 18 55 62 84 68 65 62 88 100 100 100 98 71 42 54 92 98 98 95 97 98 92 74 99 82 58 48 46 69 92 93
59 54 43 37 25 23 19 17 13 12 9 8 6 10 20 37 66 82 39 45 63 91 98 90 98 97 85 61 55 57 80 92 94 96 96 92 97 76 98 77 61 48 41 64 90
62 55 44 38 28 23 22 20 14 14 12 9 8 8 15 26 41 61 33 25 40 64 87 83 94 78 89 81 61 54 85 96 98 99 91 94 89 98 99 57 59 38 33 46 64
69 59 45 40 31 25 24 22 17 16 14 11 10 6 8 14 28 35 44 27 23 28 52 50 56 62 66 88 62 66 98 100 98 99 97 97 94 90 89 74 56 62 33 26 37
79 64 50 44 35 29 27 25 21 17 18 14 12 9 6 6 16 22 28 29 18 13 19 22 27 44 59 80 84 79 90 100 99 98 100 97 97 97 98 86 81 67 60 29 22
90 70 60 50 42 34 32 29 24 19 19 17 15 12 10 7 8 16 25 13 15 12 21 22 20 22 38 47 65 73 79 93 98 99 97 94 91 85 92 68 68 63 53 26 17
93 78 68 58 48 40 37 33 27 21 21 21 18 16 14 15 9 8 14 21 15 19 22 22 44 53 49 34 31 59 71 85 92 86 99 81 77 82 86 69 63 74 58 38 18
96 87 77 65 55 46 41 37 31 26 22 24 22 19 14 12 18 14 10 15 20 59 37 35 52 54 46 54 54 50 53 59 88 77 82 69 57 66 87 77 57 47 47 55 47
96 94 87 70 61 52 44 41 36 32 26 27 27 24 20 14 13 19 21 15 15 30 58 63 58 53 58 56 71 78 84 82 82 88 93 88 76 47 64 55 65 58 45 38 48
96 96 88 74 69 55 47 47 42 37 32 30 29 29 25 19 13 13 19 35 25 22 29 46 51 50 56 49 49 62 63 93 95 92 77 90 80 44 63 51 45 52 43 34 34
96 97 92 88 86 57 50 50 47 43 37 37 33 32 28 22 15 13 12 20 46 41 29 57 73 75 75 76 80 90 98 99 89 75 71 100 74 45 66 70 54 42 37 32 26
97 97 94 96 91 58 52 53 51 50 41 40 37 34 30 25 17 15 11 10 21 57 68 78 79 95 97 100 91 96 85 95 94 94 89 88 69 64 70 72 68 50 40 30 21
96 96 95 96 91 63 56 54 52 49 45 40 38 37 30 24 17 14 12 10 11 22 68 77 83 100 100 99 95 94 98 95 92 94 88 75 75 72 60 50 68 68 47 28 26
96 96 96 96 93 74 65 58 52 50 47 43 41 38 34 25 18 14 12 11 10 14 29 78 93 88 86 73 81 99 83 79 86 98 89 76 71 61 59 57 51 42 26 21 23
95 97 96 96 94 78 69 59 52 58 56 50 44 40 35 27 19 13 12 10 11 23 79 99 92 100 100 98 99 100 99 100 93 86 78 70 64 53 54 50 44 23 18 18 17
96 98 96 96 95 88 72 63 60 64 61 54 43 41 35 26 16 13 11 10 10 17 79 99 93 83 100 97 100 98 95 92 98 91 91 86 69 80 80 89 60 34 18 15 14
97 96 97 98 95 92 78 69 66 64 59 48 41 39 34 26 18 12 10 9 9 12 28 79 100 100 88 100 100 99 100 100 100 98 80 77 96 98 91 98 87 60 48 21 16
97 96 96 98 96 93 83 77 70 64 48 45 42 39 32 23 18 13 9 8 8 8 12 29 87 100 100 98 100 100 100 99 94 98 96 86 94 100 100 100 91 91 70 51 35
96 97 99 98 94 86 83 76 61 53 46 46 41 37 30 23 17 12 9 8 9 7 9 13 57 100 100 100 85 92 97 100 100 100 94 88 78 100 97 98 95 94 91 71 46
97 96 98 100 93 89 80 72 61 49 50 43 38 35 29 24 18 12 8 8 9 8 7 13 61 98 81 100 98 85 91 100 100 98 92 78 95 99 84 87 92 86 75 70 65

GFSSW_500_rhum_096.txt.gz
RH
46 51 50 39 35 31 14 14 10 6 4 3 3 3 4 16 33 51 99 100 100 100 100 52 90 44 96 91 78 90 94 85 76 100 95 72 95 86 80 74 52 58 72 96 82
48 53 53 41 38 32 16 15 10 6 4 3 3 3 6 28 52 65 87 100 98 100 100 42 90 75 97 97 98 80 91 84 98 100 84 69 96 92 71 60 60 68 70 75 87
49 54 56 44 40 33 17 15 10 7 5 4 3 4 8 33 55 58 76 100 100 100 60 71 83 93 99 100 99 96 99 92 98 99 94 84 80 95 94 74 58 68 84 77 80
49 58 59 47 40 34 19 15 11 7 6 4 4 3 9 40 50 59 72 80 82 100 100 74 76 76 96 98 99 98 100 97 100 100 96 92 72 85 87 96 96 89 75 78 94
49 58 62 48 41 34 21 16 11 8 7 5 4 4 7 22 38 62 62 81 97 100 100 76 67 82 100 99 94 80 98 93 97 91 90 85 72 58 68 81 89 94 90 67 65
47 57 68 51 43 34 23 18 12 10 8 5 4 4 8 11 52 67 66 69 99 86 71 60 60 74 83 89 99 98 99 92 94 91 99 90 73 68 56 70 74 91 81 87 82
52 58 74 53 47 33 23 20 14 12 9 6 5 5 10 28 47 55 62 83 93 100 100 63 42 46 54 71 99 99 97 98 96 97 96 74 80 90 76 68 75 78 79 72 79
78 61 76 57 48 33 23 22 15 14 10 8 6 6 11 19 43 50 65 85 100 100 98 100 62 35 48 56 90 94 98 99 98 90 86 98 73 75 71 70 68 74 83 82 78
73 74 81 61 49 35 24 24 16 16 12 10 7 8 11 18 31 42 64 77 82 81 80 99 85 64 38 45 75 96 97 96 99 98 96 91 99 83 65 63 56 48 51 70 78
94 72 89 68 51 39 28 27 19 18 15 12 9 8 9 12 12 39 59 72 74 68 78 82 76 63 61 40 40 85 96 96 97 97 97 98 98 95 84 60 53 67 64 54 52
97 85 93 76 54 44 33 31 23 19 18 14 11 8 6 7 10 14 34 50 64 53 56 59 63 70 61 39 33 54 96 98 98 97 98 99 99 98 84 98 93 75 46 40 40
96 94 95 81 62 50 38 36 29 20 20 18 13 10 8 6 7 10 15 24 28 47 62 56 45 47 52 38 29 39 51 92 94 96 99 97 97 98 98 81 99 93 76 63 51
97 91 96 88 72 55 44 40 34 24 23 22 17 12 11 9 7 7 10 15 21 30 35 44 38 30 40 57 52 41 46 66 81 93 88 98 98 96 92 92 91 83 75 63 63
92 89 96 97 78 63 49 45 38 30 25 25 20 16 12 12 11 9 8 8 20 20 19 19 28 31 22 42 62 55 58 50 72 95 98 98 91 96 100 84 75 83 86 85 77
97 95 96 97 87 77 69 48 42 35 31 28 26 20 17 12 12 12 12 9 7 8 15 19 17 19 20 30 46 49 55 53 57 92 97 93 86 90 90 75 53 53 66 71 73
94 88 96 96 94 92 79 51 47 41 35 34 32 27 22 16 12 12 16 18 14 11 9 18 34 49 64 60 50 44 39 44 77 64 72 69 87 87 76 84 98 86 83 66 58
98 78 94 96 95 94 73 54 48 47 38 36 34 31 26 20 15 11 11 12 19 21 23 29 32 47 78 72 72 67 79 80 74 91 81 68 69 68 71 60 58 68 56 55 51
98 85 96 97 97 95 67 56 53 48 44 39 39 35 30 24 17 13 11 10 10 16 32 40 91 72 88 77 77 82 100 100 84 78 85 96 62 48 56 48 42 44 43 40 34
97 89 96 97 96 96 68 59 56 51 46 42 42 38 34 27 19 15 13 10 10 10 17 42 36 56 77 79 88 75 75 97 100 91 80 76 60 49 56 78 55 51 50 46 40
92 91 96 97 96 97 66 64 56 49 48 47 45 40 34 26 19 14 13 10 9 11 15 23 47 65 86 100 93 88 100 100 99 99 89 76 59 46 58 80 79 65 54 49 48
97 90 96 97 96 97 72 72 60 53 56 50 47 41 32 25 18 14 12 10 8 10 14 25 28 66 98 98 100 100 100 97 99 100 94 85 73 76 80 75 80 74 53 64 58
99 96 97 97 96 97 78 76 62 60 57 49 45 40 35 27 20 14 12 10 9 9 15 42 76 65 95 96 100 100 100 100 100 79 81 97 84 94 92 94 82 80 54 52 66
96 96 94 97 96 98 89 78 64 63 55 46 44 38 35 28 20 14 12 10 9 9 16 32 94 100 94 98 99 90 79 78 81 83 69 80 77 98 80 80 68 59 53 40 47
94 94 92 97 96 98 92 80 70 67 53 49 42 38 34 27 20 14 11 9 10 8 9 16 43 100 100 92 95 97 100 96 96 92 73 64 75 86 97 92 90 76 61 46 28
97 90 96 97 97 97 95 86 77 60 52 50 42 37 34 27 21 15 11 8 9 8 7 13 20 66 92 88 100 99 96 100 99 96 94 87 81 100 100 93 90 94 81 53 36
96 97 95 98 97 97 96 92 72 62 53 48 42 36 31 25 20 15 11 9 9 8 6 6 10 18 87 99 91 96 98 96 98 100 80 84 88 100 100 96 85 76 87 77 50
96 96 96 97 97 96 93 90 72 57 52 50 45 37 29 25 21 16 11 10 9 8 7 6 9 18 57 100 82 62 70 94 99 98 89 74 80 100 99 89 100 99 70 64 68

GFSSW_500_rhum_099.txt.gz
RH
76 60 46 49 58 56 44 34 21 14 8 5 3 3 2 4 16 39 57 70 100 100 98 100 69 35 28 22 71 97 99 90 64 68 88 87 68 96 76 68 94 90 96 92 95
84 66 51 49 59 56 45 36 20 13 8 5 3 3 2 4 19 50 65 90 100 100 97 97 79 42 23 18 98 95 97 88 66 70 100 87 74 70 76 80 92 86 96 92 65
68 77 48 47 62 56 44 36 20 13 9 5 4 3 3 4 22 47 69 80 99 100 98 86 100 43 20 75 99 79 88 98 86 89 100 94 88 72 96 88 95 94 93 96 100
74 90 56 45 64 57 45 33 20 14 10 6 4 3 3 4 8 46 54 71 93 100 86 95 96 58 18 96 98 100 98 98 93 100 92 97 88 79 91 94 100 96 95 90 84
72 93 76 44 66 59 48 30 21 14 11 7 4 3 4 6 16 47 62 90 100 99 100 89 93 24 14 93 98 100 97 98 98 94 94 96 87 75 76 96 90 94 95 94 92
69 72 89 61 70 60 49 28 22 16 13 8 5 4 5 12 29 38 56 90 75 80 84 60 93 63 98 99 100 98 77 82 98 99 88 92 90 81 69 80 88 86 86 90 84
71 75 91 92 84 64 49 28 24 17 14 9 6 5 7 18 31 41 40 50 54 83 65 43 92 58 99 99 98 97 97 80 91 93 90 92 83 73 68 67 83 94 88 81 96
72 92 99 86 94 72 50 30 27 18 16 11 7 6 10 32 32 32 80 62 54 32 44 52 47 86 99 98 99 100 97 100 100 94 82 86 84 76 67 62 62 80 92 88 95
74 85 97 96 95 80 53 33 30 19 18 13 8 6 10 27 50 50 60 74 68 38 41 27 27 44 61 96 95 97 100 100 100 99 87 98 85 72 66 60 55 59 76 88 90
70 90 100 91 95 86 55 37 34 21 20 16 11 7 6 15 27 39 46 56 35 33 36 40 27 32 38 70 90 99 100 96 97 97 99 91 84 77 68 65 54 51 60 66 74
74 96 97 95 96 88 59 41 38 26 22 20 14 9 7 6 23 32 35 37 42 32 22 24 30 23 20 26 70 87 94 94 98 98 92 98 93 88 75 69 53 48 49 55 60
97 98 96 95 96 92 66 47 42 32 23 24 17 11 9 7 6 10 31 29 23 31 35 18 16 21 25 17 19 36 47 90 96 96 96 92 96 97 87 69 71 67 51 44 52
99 93 97 93 96 95 68 53 46 36 26 27 21 15 11 10 8 6 8 29 32 38 40 30 26 18 18 35 17 17 22 73 93 99 98 98 93 96 97 100 96 72 66 55 46
98 97 95 94 94 96 71 60 51 41 30 29 27 18 14 12 11 9 8 7 24 30 32 31 31 29 27 28 32 23 20 27 64 86 92 100 92 100 99 89 84 77 81 67 56
98 99 94 92 94 96 81 84 56 48 36 32 31 24 18 15 12 10 11 9 8 14 17 21 25 29 28 22 25 32 27 31 36 34 49 81 87 81 89 92 92 88 84 94 88
98 99 97 95 92 97 89 94 60 49 45 37 34 30 23 18 15 12 9 10 12 10 10 17 22 25 28 28 28 28 54 51 48 43 36 46 65 82 84 98 95 86 86 89 72
99 98 97 97 88 97 95 93 58 54 46 43 38 35 28 21 16 14 12 9 9 10 14 15 11 19 28 26 27 27 42 51 57 75 50 44 50 67 98 98 86 75 74 76 71
100 99 97 98 87 97 96 91 62 59 55 48 43 39 33 25 20 16 13 10 9 9 10 13 24 35 50 57 80 92 90 73 61 57 79 68 59 58 89 97 87 75 74 68 78
99 99 97 95 95 97 97 89 60 64 58 50 46 44 36 28 21 16 13 10 9 8 10 12 19 38 79 97 92 85 96 83 100 73 68 57 58 50 77 83 92 93 73 61 86
100 100 96 96 97 95 97 93 62 66 61 54 51 46 38 29 20 16 13 10 9 8 8 12 16 33 59 77 100 100 99 95 83 100 99 66 77 76 63 77 72 78 70 64 43
100 99 97 97 97 95 97 89 66 70 62 59 54 46 40 30 22 16 12 10 9 8 8 11 14 31 76 83 88 96 95 86 85 90 78 67 66 66 73 69 80 66 64 58 48
99 99 98 93 94 96 97 93 77 71 66 64 54 44 41 32 23 16 12 10 9 7 8 10 18 32 66 98 100 100 100 100 100 97 94 79 61 68 78 77 77 73 78 68 68
96 100 97 94 97 96 97 94 80 70 69 64 55 45 39 31 22 17 13 10 9 8 7 9 21 35 95 90 93 100 100 100 100 100 84 83 52 67 92 98 98 90 82 79 73
98 95 96 97 97 97 97 94 82 75 71 60 53 47 43 31 24 18 13 10 9 8 6 7 14 23 72 100 100 100 100 100 100 99 69 60 57 72 95 100 100 99 97 95 80
98 95 98 98 98 97 97 96 80 83 72 56 50 46 42 31 25 18 12 10 9 7 6 5 8 12 51 100 100 99 93 97 92 90 82 62 65 94 100 100 99 95 93 84 75
91 100 98 99 93 95 97 97 86 84 67 60 55 47 40 30 25 18 13 10 9 7 5 5 5 7 16 91 100 95 100 100 100 100 83 85 79 100 100 86 82 78 67 62 60
85 98 97 97 98 97 97 96 91 83 66 60 55 49 40 29 25 18 14 10 9 7 6 4 4 8 10 42 90 86 100 100 96 100 99 100 92 100 96 84 73 74 86 71 65

GFSSW_500_rhum_102.txt.gz
RH
90 76 67 65 78 61 50 61 55 36 21 12 8 4 4 2 4 13 54 80 94 100 100 86 98 69 69 51 28 25 97 55 90 95 98 83 95 72 67 74 80 96 96 96 95
43 77 72 69 70 77 52 69 53 31 19 13 6 4 4 2 6 35 51 59 83 70 80 100 88 81 71 37 24 26 98 96 71 99 100 100 83 75 72 66 75 93 96 96 96
12 68 74 80 87 82 69 84 52 27 17 13 6 4 3 3 10 40 46 48 44 63 72 100 80 92 58 32 29 24 78 92 99 98 99 96 86 95 69 69 77 89 94 95 98
12 48 71 74 87 94 80 89 51 25 16 13 6 4 3 4 15 37 33 81 60 70 90 97 75 84 47 26 43 60 66 73 96 90 95 94 84 84 86 84 100 91 90 96 96
10 49 78 83 86 89 95 90 48 26 17 14 7 4 4 7 29 46 52 70 89 50 86 93 62 70 21 18 66 99 81 96 99 74 86 97 89 74 83 80 96 87 89 93 97
10 17 78 91 96 94 94 88 46 27 18 15 8 5 5 11 27 29 34 53 74 71 81 94 88 57 27 23 75 100 100 70 97 98 97 99 100 72 86 80 75 91 99 96 96
14 15 52 92 97 96 94 85 44 29 19 17 9 5 6 8 34 36 30 40 64 92 64 72 78 78 33 32 84 99 98 92 98 95 97 89 92 92 75 68 60 70 91 94 86
34 17 56 92 91 96 95 84 47 31 20 20 10 6 7 12 21 42 42 50 56 54 47 65 96 76 35 88 99 100 92 99 100 98 94 97 86 87 73 68 66 67 85 96 95
34 25 93 95 87 98 95 87 50 35 22 22 12 8 8 14 17 32 56 43 47 50 28 42 52 36 31 86 96 95 98 98 98 100 94 97 83 79 77 65 66 71 85 96 97
22 35 66 99 94 97 96 93 52 38 25 23 15 9 7 6 11 23 32 26 23 19 19 20 28 42 43 93 100 100 100 100 96 98 98 91 89 75 69 72 65 67 69 83 92
14 33 28 98 97 93 96 94 52 41 32 24 21 12 8 6 7 17 34 22 19 10 13 22 26 52 58 85 87 91 95 94 97 99 99 96 92 72 65 60 72 67 62 61 71
10 18 40 95 97 96 97 95 56 43 34 25 26 16 11 8 7 7 24 31 20 16 12 14 17 23 30 27 28 60 92 99 98 100 98 99 92 94 80 70 67 79 62 61 52
6 12 40 98 99 93 97 96 58 47 37 27 28 20 15 10 8 7 6 14 24 19 16 12 14 14 18 16 14 18 54 82 94 98 99 96 97 87 83 64 65 63 68 66 64
6 10 51 98 98 96 96 96 64 51 40 31 30 25 20 14 11 8 8 7 8 23 18 14 8 13 14 15 16 14 16 44 58 90 94 100 100 95 83 78 57 51 59 73 73
7 12 40 100 99 97 96 97 92 54 42 35 33 29 25 20 15 12 9 8 8 8 27 22 17 15 18 21 23 22 25 20 15 35 70 87 94 97 99 84 84 61 65 63 70
7 16 39 99 98 97 98 97 95 56 48 43 38 36 32 24 19 14 12 9 9 8 8 14 22 22 20 22 22 22 21 25 26 26 26 43 63 94 94 98 97 98 96 90 89
8 16 71 100 96 97 98 96 96 54 46 45 44 41 37 29 22 17 14 11 9 8 8 8 10 11 11 15 22 26 27 32 55 60 32 38 37 52 85 94 95 91 94 90 94
8 17 81 100 98 96 98 96 96 56 56 54 51 46 42 33 25 19 14 11 9 9 8 8 9 10 16 15 18 25 33 36 38 51 50 53 31 33 44 82 83 83 87 97 99
9 18 98 100 98 96 97 97 96 62 57 60 56 50 45 39 28 21 15 10 9 8 6 7 10 12 13 32 32 45 82 87 68 58 50 47 35 32 45 42 45 55 87 85 82
9 20 99 100 98 96 97 98 97 62 62 60 59 54 47 42 31 22 15 10 9 8 5 6 10 13 16 37 73 74 87 100 100 100 97 54 30 29 59 63 59 54 91 92 81
8 65 100 100 98 95 99 98 97 63 63 61 63 61 50 42 31 22 16 10 9 7 4 4 6 15 27 82 94 94 100 100 100 100 83 71 60 55 64 100 94 75 68 91 84
9 82 100 100 97 97 99 98 97 63 66 66 68 61 52 40 31 22 16 11 9 7 4 4 4 14 37 61 97 100 100 100 100 97 92 72 75 65 71 80 99 100 98 84 83
19 96 100 98 99 98 99 99 95 69 67 70 72 60 50 39 28 22 16 11 8 6 4 4 4 8 22 86 80 100 100 99 100 93 79 72 54 68 67 78 68 73 90 90 83
54 93 100 99 99 98 99 99 97 82 70 76 75 58 47 39 28 22 16 11 9 6 4 4 5 6 12 66 93 88 100 100 100 100 95 80 69 66 74 76 94 97 89 76 79
70 98 100 100 98 98 99 100 97 80 78 84 70 54 46 38 28 23 16 11 9 6 5 4 4 5 9 22 89 94 77 83 100 85 97 74 78 91 86 73 79 95 98 91 82
85 100 100 98 96 98 98 99 97 83 88 85 64 54 46 38 28 23 17 11 9 7 6 4 4 5 8 12 58 68 87 100 99 90 75 70 70 82 100 90 81 100 100 93 81
94 100 98 97 99 99 99 97 97 90 89 76 62 54 46 35 27 23 19 13 10 7 6 5 5 5 6 12 28 80 98 98 100 100 90 78 89 100 90 73 76 86 88 87 85

GFSSW_500_rhum_105.txt.gz
RH
15 14 13 11 33 73 84 94 91 84 81 36 15 11 5 4 3 5 28 42 42 40 55 70 74 72 62 71 86 84 74 95 97 98 99 100 99 96 93 78 56 88 86 89 96
16 16 14 14 23 78 79 91 96 85 81 28 14 9 4 3 3 8 38 49 50 42 75 59 80 70 75 92 92 86 65 100 90 97 98 97 98 93 96 83 66 83 96 96 79
18 16 18 14 19 78 81 89 94 94 67 24 16 7 4 3 6 11 50 53 51 46 61 64 83 85 100 98 100 79 55 100 93 98 98 97 92 98 85 75 53 57 91 95 70
20 18 20 18 18 80 90 93 94 95 50 24 17 8 5 4 9 16 38 62 61 66 100 57 69 97 94 87 83 75 67 95 100 98 93 98 84 74 72 67 74 48 80 95 97
20 19 24 22 13 52 97 95 86 96 44 26 17 8 5 5 8 23 44 69 58 75 100 62 70 100 86 74 70 52 69 96 98 99 98 99 98 74 66 70 75 81 69 96 99
22 20 23 34 27 64 100 81 90 92 39 26 18 8 5 6 10 30 47 48 63 66 89 88 64 98 79 59 42 39 44 98 82 93 96 92 95 80 73 72 76 71 87 94 95
22 21 19 29 32 51 83 83 93 79 39 26 19 9 6 5 10 37 49 37 58 58 64 98 65 67 55 32 19 16 32 42 100 76 76 96 98 90 82 70 72 94 91 88 92
23 21 19 17 34 71 99 72 95 89 40 28 20 10 6 5 10 28 36 36 70 41 33 52 67 59 52 34 38 74 100 100 92 98 94 64 72 66 68 83 77 85 82 79 86
27 22 18 17 22 34 91 98 98 94 42 30 22 11 8 6 6 14 34 29 72 61 23 24 37 43 28 61 95 97 100 100 96 95 98 66 58 77 61 69 79 92 97 91 95
34 20 19 17 16 31 43 98 97 96 45 33 24 15 9 7 6 7 14 27 25 24 18 18 25 32 38 57 70 93 98 96 99 98 99 71 55 64 67 70 79 95 96 96 96
31 30 22 17 16 26 62 97 99 97 45 36 26 20 11 8 7 5 7 12 17 15 17 23 32 35 43 75 83 92 98 96 93 97 99 77 75 61 64 68 61 81 90 92 95
12 17 24 18 12 12 34 98 98 90 45 39 27 26 15 10 8 6 5 7 10 11 15 18 23 26 42 55 62 71 59 78 91 97 99 93 82 87 62 65 72 67 68 75 84
7 7 8 11 13 10 53 98 98 95 48 41 29 30 20 12 10 8 7 5 5 6 12 14 17 22 29 42 48 39 38 46 64 96 97 93 75 66 77 68 68 77 74 77 69
16 12 8 10 12 11 17 88 98 96 47 42 31 30 26 18 13 10 8 7 7 6 6 9 13 14 11 14 17 20 28 31 54 90 94 99 98 76 74 86 80 76 73 77 75
16 13 9 6 7 55 63 94 98 97 44 40 34 32 30 24 18 13 11 9 8 7 6 6 9 8 14 13 14 20 17 17 20 46 96 96 95 95 81 64 67 79 91 94 75
24 28 16 7 58 93 95 98 98 97 48 42 36 35 34 28 23 17 13 10 9 8 7 6 6 8 18 19 17 20 25 26 23 18 76 75 85 96 94 84 100 100 93 93 95
24 33 14 7 100 79 92 99 97 98 54 47 44 40 38 32 26 19 15 10 9 8 7 7 7 8 9 18 24 24 24 21 22 20 22 33 42 69 98 92 94 92 94 91 87
47 30 14 8 24 87 98 98 98 98 54 52 47 44 41 36 29 21 16 10 8 7 4 6 6 7 8 10 14 19 31 40 25 25 24 24 31 36 49 58 66 100 100 93 99
52 29 15 12 48 100 97 98 98 98 65 60 55 50 46 38 31 22 16 10 8 5 4 4 4 6 10 9 17 37 80 98 84 46 29 26 22 33 41 48 43 78 91 98 95
61 35 15 12 62 98 95 98 99 97 60 62 61 53 49 41 34 23 17 10 7 5 3 4 4 5 11 15 30 91 97 100 99 100 78 37 29 29 40 36 35 40 45 93 99
61 51 13 18 88 88 98 98 99 98 60 62 61 61 56 44 35 24 18 11 8 4 4 4 4 5 9 17 22 50 88 100 100 100 99 86 51 39 34 36 58 46 52 59 78
56 44 10 25 75 99 99 98 99 98 65 65 65 67 58 47 36 24 18 12 8 5 5 4 5 5 6 12 26 98 99 100 98 97 100 94 82 83 82 52 63 71 64 93 81
51 38 11 82 97 99 98 97 100 98 64 71 73 72 60 44 34 24 18 12 9 6 5 5 5 6 6 10 40 72 100 94 100 100 70 85 78 76 80 93 84 99 86 84 85
52 21 25 82 100 98 99 98 100 97 65 76 78 76 55 43 30 24 18 13 9 7 6 6 6 7 6 6 13 53 88 100 79 100 100 90 79 88 83 80 80 81 72 94 100
49 14 25 95 98 97 99 99 100 88 78 84 84 73 53 42 29 24 19 14 10 7 6 6 7 7 6 6 10 43 65 76 89 87 93 100 80 71 95 93 90 80 78 74 70
20 17 63 99 99 94 100 99 99 96 90 90 87 70 52 41 29 25 20 16 11 8 7 7 7 8 8 6 8 49 59 66 69 73 95 92 99 100 100 88 86 80 85 100 98
24 46 94 99 98 100 100 99 99 95 95 93 80 66 52 38 28 25 22 18 12 10 8 8 8 9 9 7 10 45 53 73 73 70 64 70 62 95 98 90 74 84 80 73 81

GFSSW_500_rhum_108.txt.gz
RH
20 20 17 18 19 18 14 13 30 74 78 83 85 63 21 12 4 3 5 10 29 34 54 54 55 59 68 86 96 79 100 96 83 100 100 100 98 96 98 100 58 65 68 84 96
23 23 21 19 17 22 18 20 49 79 82 93 83 40 19 8 4 5 8 18 30 46 68 79 75 79 92 78 100 91 97 99 98 100 99 100 94 98 91 97 75 62 59 77 86
32 27 23 21 18 20 24 27 34 71 87 95 79 27 18 5 4 8 11 30 34 52 80 65 83 86 88 91 100 100 100 100 100 100 97 100 83 98 78 73 90 57 63 72 96
36 33 29 26 20 18 26 33 21 75 80 96 79 24 14 4 6 10 17 33 48 57 76 48 62 89 90 75 100 100 96 97 100 99 94 97 99 80 98 56 82 79 70 81 84
36 40 33 28 20 19 42 69 56 84 81 97 56 23 11 5 5 12 22 38 53 74 53 53 69 93 92 81 90 100 96 100 99 98 96 97 97 86 95 67 57 76 64 69 91
40 49 40 30 23 20 56 66 45 22 84 86 37 24 11 5 5 11 24 37 56 53 55 59 61 98 90 88 89 97 88 97 99 99 100 99 91 96 73 64 54 64 68 64 85
54 61 48 37 24 22 24 40 76 85 96 96 37 25 11 6 6 8 22 36 52 46 47 53 63 73 84 72 79 79 86 98 99 96 97 93 91 73 71 51 60 66 92 72 82
51 63 63 52 27 21 22 28 40 86 96 100 39 25 12 6 7 9 18 32 55 32 26 36 41 46 62 54 55 58 75 95 99 91 98 80 78 81 66 56 64 76 70 90 92
51 60 64 63 37 22 22 18 32 58 95 100 41 26 13 7 7 8 13 32 36 28 20 22 29 24 25 24 29 40 46 70 86 98 94 82 70 75 67 55 67 77 82 90 87
32 31 42 56 47 28 20 18 18 41 94 99 43 26 14 8 7 7 12 20 33 28 27 25 28 40 51 36 41 59 96 95 94 97 98 98 68 52 62 56 68 85 88 92 94
9 8 9 12 40 30 24 18 17 35 97 98 40 28 17 9 6 7 9 12 16 20 25 27 30 38 50 61 65 83 97 95 91 97 95 95 61 66 55 61 63 76 89 96 94
11 10 9 10 16 30 23 20 15 67 85 94 41 29 21 11 8 6 6 8 9 11 18 24 24 33 45 58 58 76 73 72 68 79 92 89 66 47 54 66 78 75 88 96 97
25 33 26 18 10 21 27 22 13 40 93 64 40 30 24 14 10 8 7 6 7 8 10 15 23 24 28 37 46 49 56 56 52 53 87 89 78 68 59 76 63 68 76 90 93
44 36 37 25 14 11 21 13 13 19 77 57 41 31 28 17 12 10 9 8 6 5 5 6 11 17 22 20 24 34 47 45 35 29 75 98 87 78 76 72 71 70 66 76 95
59 44 40 14 13 9 10 8 13 20 92 52 42 31 33 24 16 12 10 9 8 5 5 4 4 7 10 14 18 20 21 26 24 20 63 89 96 88 97 86 81 65 60 62 78
75 54 35 22 11 8 8 10 14 69 98 50 37 34 37 31 22 16 12 9 8 5 4 4 4 4 4 7 12 18 21 20 18 21 28 52 66 88 90 100 100 98 91 87 72
97 64 33 30 12 9 15 35 75 99 93 48 41 44 46 40 29 22 16 10 8 5 4 4 5 5 6 6 8 12 19 27 24 19 21 26 46 69 100 99 97 97 97 95 94
100 63 32 30 10 15 61 68 96 99 96 51 49 51 52 44 33 25 18 11 8 4 4 4 5 5 7 7 10 39 31 72 55 27 19 19 36 71 83 83 93 82 84 94 94
100 63 31 25 13 89 93 77 94 100 75 51 54 58 57 48 38 27 18 11 7 5 4 5 6 5 6 8 10 64 66 88 88 58 32 22 18 49 68 44 65 96 80 76 84
97 72 35 26 38 99 73 82 100 99 68 55 60 62 57 50 40 27 17 10 7 5 5 6 6 6 6 8 14 71 85 100 99 91 92 42 24 30 66 50 48 74 92 79 57
93 77 52 80 29 41 82 100 100 98 84 57 63 63 59 52 39 25 16 10 7 6 6 6 7 6 6 8 18 30 91 100 100 90 93 80 56 45 33 31 35 46 58 62 50
100 90 47 26 17 38 98 100 100 99 86 60 66 66 62 52 34 24 15 10 8 6 6 7 8 7 7 8 14 41 81 94 97 100 100 86 94 92 68 50 38 42 51 73 98
93 100 59 15 15 68 100 100 100 98 71 62 70 66 60 46 31 24 16 11 9 7 7 7 8 8 8 8 9 31 79 98 87 86 88 100 93 100 100 89 65 68 64 75 99
83 65 34 14 33 85 100 100 98 100 64 67 73 64 54 40 28 24 17 13 10 8 8 8 9 8 9 8 7 17 47 77 96 100 100 89 96 85 95 98 100 90 85 85 77
72 47 19 22 61 96 100 100 95 100 64 75 75 64 49 37 27 24 19 16 12 10 9 9 9 9 9 10 8 10 25 59 69 87 87 91 99 76 96 98 91 100 87 94 100
56 19 27 74 96 100 100 99 93 99 72 82 76 62 46 35 27 24 21 18 14 11 10 10 10 10 9 10 10 10 34 36 51 55 71 74 93 100 82 88 100 96 94 74 71
30 25 65 89 98 100 100 97 94 94 90 90 75 58 45 33 27 24 23 20 15 12 11 10 11 11 10 10 10 11 20 54 51 51 60 64 72 84 94 100 100 100 93 88 76

GFSSW_500_rhum_111.txt.gz
RH
28 26 28 29 28 23 21 18 16 17 18 34 70 63 95 94 40 15 7 6 6 7 7 8 13 28 50 65 66 74 92 92 89 99 86 99 97 97 99 97 98 89 97 58 39
29 32 33 32 31 29 26 23 19 20 22 16 69 80 96 66 22 11 8 8 7 9 11 20 22 36 61 79 91 91 99 99 100 98 90 98 100 94 94 98 88 90 82 45 31
33 36 35 32 31 34 31 24 21 19 26 19 87 82 94 49 19 10 9 8 11 17 30 39 40 58 73 78 84 96 100 100 93 100 97 95 100 99 96 78 88 73 84 59 37
40 44 42 37 44 43 40 28 22 29 51 60 79 95 92 30 16 11 8 12 16 24 42 48 45 68 85 78 95 91 100 95 100 95 99 99 98 96 97 82 59 53 90 85 28
45 35 33 41 51 59 49 36 26 38 75 46 46 96 70 20 14 11 9 18 22 28 52 56 52 75 100 91 83 88 100 100 100 92 95 97 99 93 89 92 86 96 97 51 37
36 32 25 32 56 70 60 43 30 22 32 35 83 88 35 15 11 10 10 22 32 31 62 62 77 82 87 79 86 78 100 98 96 99 100 100 99 84 98 99 99 95 93 69 42
38 30 20 25 48 70 67 49 36 24 27 51 95 91 33 15 11 10 10 24 31 35 42 48 62 69 66 58 64 92 93 95 97 100 98 97 98 82 90 98 94 78 96 83 60
38 28 22 27 33 68 71 59 42 25 22 33 92 87 33 13 11 8 10 23 30 31 31 37 57 49 39 46 59 65 75 81 96 96 96 100 96 89 65 78 100 84 80 68 82
43 30 23 27 28 50 65 65 46 24 20 23 96 87 33 13 12 8 10 17 23 27 30 30 38 28 30 38 46 60 85 98 93 97 96 99 96 100 91 81 96 79 73 100 91
39 31 14 13 11 18 38 48 52 27 20 28 94 85 30 13 11 9 9 13 17 20 29 33 40 31 24 30 38 55 69 93 94 99 96 83 96 88 92 66 87 98 94 78 100
35 13 11 11 12 10 11 14 48 33 19 39 97 89 28 11 12 8 8 9 11 14 22 29 33 48 31 30 38 66 74 92 90 89 83 78 90 88 83 63 69 93 96 74 89
20 16 19 26 20 12 8 11 24 30 19 42 93 53 28 14 11 8 8 8 8 9 11 22 26 33 42 54 59 63 66 67 64 54 65 69 72 82 100 86 84 76 82 76 100
19 28 46 38 32 25 9 9 19 22 19 52 95 42 28 18 12 8 7 7 8 8 8 9 17 26 32 37 38 48 50 51 58 59 53 58 59 80 89 78 68 65 62 78 89
48 55 61 52 38 31 18 10 16 17 33 62 79 37 28 22 14 10 8 6 6 5 5 6 7 8 15 26 28 30 32 38 43 54 51 47 54 55 86 85 82 70 66 76 98
88 76 78 69 50 33 25 12 12 17 42 56 59 38 29 27 18 12 10 8 5 4 4 4 4 4 5 7 13 20 23 27 27 30 42 46 51 62 71 81 67 69 69 77 81
100 100 98 86 47 22 19 12 12 26 41 88 49 36 32 33 23 16 11 9 5 4 4 5 6 6 6 6 7 10 16 24 23 23 26 30 40 82 95 95 90 90 88 84 81
100 100 100 61 25 16 13 16 18 31 60 80 45 33 36 37 27 20 12 9 5 5 5 6 6 6 6 6 7 18 22 64 35 23 26 24 36 74 70 91 93 82 70 77 86
100 100 96 32 32 14 16 15 19 37 97 62 37 34 42 41 32 22 13 8 5 5 5 7 6 6 7 8 8 77 97 91 99 98 55 25 30 69 68 67 71 93 89 75 74
100 100 63 35 23 43 46 28 62 100 99 49 40 43 48 43 34 23 14 9 6 5 6 7 7 7 7 8 11 45 69 90 100 100 98 51 26 36 43 65 82 98 92 71 79
100 87 37 66 62 99 68 63 100 100 96 49 48 50 54 47 36 23 14 9 6 6 7 8 7 7 7 8 15 24 100 97 99 100 100 89 47 79 25 43 56 63 83 97 96
98 66 38 35 100 100 99 92 100 100 79 50 52 57 56 47 34 21 12 9 7 7 8 8 8 7 8 7 8 35 74 90 100 90 100 100 92 49 29 32 60 67 52 77 99
100 81 98 80 62 100 100 100 100 100 57 53 57 61 56 46 28 19 12 9 8 8 8 8 8 9 8 7 6 17 35 74 100 100 94 100 100 86 59 40 48 84 67 59 75
100 93 100 86 84 81 100 100 100 100 75 56 63 65 58 42 26 18 13 10 9 8 9 9 9 9 8 8 8 9 30 59 86 96 100 97 100 100 91 78 78 67 76 67 63
95 61 39 65 42 84 100 100 100 100 73 62 67 69 57 38 25 19 15 12 10 9 10 10 10 10 10 10 8 9 18 46 61 77 90 93 100 91 100 100 99 100 100 79 63
90 71 42 23 40 96 100 98 100 100 56 67 74 71 52 34 26 21 17 15 12 10 10 11 12 11 10 10 10 9 14 34 52 52 68 85 80 86 88 97 98 96 91 99 100
59 30 30 32 88 100 100 100 98 80 60 78 78 66 46 31 25 22 20 18 14 12 11 12 12 13 11 11 11 10 10 22 50 61 62 76 79 69 98 81 99 100 90 97 93
21 21 39 72 97 100 93 99 89 69 74 84 77 58 44 29 26 23 21 19 15 13 12 13 13 14 12 12 13 12 11 12 18 26 40 54 56 55 66 75 85 85 94 100 98

GFSSW_500_rhum_114.txt.gz
RH
33 32 30 28 29 34 35 35 32 29 28 25 23 21 17 38 90 95 75 27 15 8 5 4 6 8 6 6 6 7 12 15 29 41 25 20 16 24 18 14 89 79 31 52 96
34 34 33 34 37 40 44 41 37 36 36 28 24 23 21 32 87 96 53 18 9 6 7 15 15 12 17 24 30 25 34 43 65 79 58 66 74 100 94 92 98 98 68 97 71
38 39 40 44 49 47 38 32 39 42 47 38 27 27 54 77 90 76 32 11 8 12 22 23 15 18 42 48 63 69 84 88 91 88 100 100 100 96 100 96 99 100 94 91 98
45 45 48 54 44 36 34 30 37 49 57 44 34 57 80 51 90 44 19 9 12 24 26 22 22 33 54 61 53 71 78 79 81 94 98 100 100 99 99 94 97 96 97 90 47
53 54 60 54 40 38 30 26 41 60 63 42 30 56 48 79 77 32 13 9 15 24 24 25 24 40 52 69 88 75 80 79 87 99 92 97 90 99 100 100 98 97 67 71 95
64 64 54 41 48 40 26 24 50 68 66 42 28 23 35 95 71 26 11 9 19 24 23 31 31 51 80 74 84 90 69 82 84 96 94 88 95 90 98 90 83 90 62 46 99
74 69 55 62 61 42 25 27 46 69 66 48 25 24 46 98 50 24 9 10 22 22 26 31 26 77 85 50 52 69 96 97 97 96 100 100 100 100 86 80 74 56 56 56 99
86 84 76 85 60 40 25 25 40 65 66 53 25 21 77 96 34 20 8 12 20 22 32 35 27 44 47 43 41 59 81 94 99 97 92 92 100 90 73 78 80 59 70 72 95
88 96 100 95 55 41 21 17 28 56 67 54 26 25 91 82 34 16 9 12 17 21 29 36 29 30 39 39 49 73 80 91 97 99 87 89 100 85 99 59 74 90 68 89 96
100 98 100 75 51 28 14 13 12 39 58 49 24 37 89 76 26 12 9 9 12 15 23 33 32 29 40 47 58 63 70 90 81 72 94 76 88 100 98 78 90 93 92 95 97
99 89 74 55 32 18 16 12 12 17 37 42 20 54 96 60 22 11 9 8 9 10 16 25 35 38 33 30 37 54 60 66 79 60 65 64 76 91 95 69 81 85 70 84 76
50 39 35 30 26 20 29 22 14 12 20 43 24 81 94 33 20 10 10 8 8 8 9 14 23 29 39 46 50 53 62 64 65 59 55 54 58 72 87 74 47 56 59 73 73
81 92 79 55 31 47 37 18 12 10 21 28 45 92 57 27 16 10 9 8 6 6 5 7 7 10 17 26 33 43 47 54 52 49 56 56 47 63 76 72 65 67 80 91 95
82 100 99 90 72 54 32 20 10 9 26 39 66 83 36 23 15 10 8 6 5 4 5 5 5 5 6 8 11 24 29 37 37 37 44 53 40 48 68 85 99 88 79 76 98
98 100 100 100 82 46 34 23 9 10 30 41 78 62 32 22 15 10 8 5 4 5 6 6 6 6 6 6 7 9 13 27 35 30 31 38 43 73 58 67 76 66 77 90 79
100 100 100 100 68 45 30 17 10 20 43 65 73 53 29 24 16 12 9 5 5 6 7 7 7 7 7 8 8 8 12 13 25 40 31 31 39 90 81 89 74 74 75 77 95
100 100 100 92 55 36 21 34 20 27 52 81 67 38 30 26 20 16 10 5 5 6 7 7 7 7 8 9 10 13 36 66 85 72 40 34 36 100 81 99 83 82 82 90 88
96 99 100 53 32 18 47 83 44 40 61 96 47 35 33 30 26 18 10 6 6 7 7 7 7 7 6 8 16 25 86 100 100 99 93 44 66 66 73 83 97 96 95 68 76
100 100 41 35 20 57 100 98 59 54 83 68 44 33 37 36 32 19 10 6 6 8 8 8 8 7 7 8 17 43 91 100 100 100 100 100 63 44 48 71 91 98 93 89 98
87 36 38 25 30 100 96 77 70 63 94 43 36 37 43 40 32 16 10 7 7 8 8 9 9 8 7 7 15 40 96 100 100 93 93 100 93 52 45 50 71 83 89 89 84
40 96 76 97 100 100 100 100 99 100 54 41 42 46 47 42 31 16 10 7 8 9 9 10 9 9 8 7 10 29 95 96 92 97 100 100 82 57 65 49 38 58 78 100 95
39 67 100 100 100 100 98 100 100 76 50 47 49 50 48 46 26 14 9 8 9 10 10 10 10 10 9 8 7 18 34 65 95 86 100 100 95 86 67 49 63 47 55 67 92
65 58 96 100 100 97 83 97 97 73 51 53 53 53 51 42 23 13 10 10 10 11 10 11 11 10 10 10 8 8 21 47 89 82 85 98 100 76 74 65 49 55 48 63 60
60 60 88 99 97 94 89 98 94 56 53 57 56 54 52 33 22 15 13 12 12 12 11 11 12 11 12 12 11 8 10 37 64 72 85 86 100 100 100 100 78 62 76 68 69
54 68 74 81 83 86 87 90 95 65 56 60 58 56 47 30 22 17 16 14 13 12 11 11 13 11 13 13 13 12 9 16 26 49 69 73 90 82 76 87 100 99 91 100 81
56 61 67 73 72 71 79 84 86 72 58 60 62 54 40 27 22 20 18 15 13 12 12 11 12 12 12 12 14 14 13 10 16 27 32 48 58 60 58 58 48 71 89 96 98
50 57 67 74 74 74 77 78 79 59 58 63 59 47 35 26 23 21 19 16 14 13 12 12 13 12 11 12 13 15 15 14 10 9 14 42 50 60 65 61 56 59 61 68 81

GFSSW_500_rhum_117.txt.gz
RH
59 52 46 39 37 35 34 33 34 37 43 45 40 33 31 32 27 20 23 60 92 54 17 8 6 8 14 17 11 9 5 3 4 3 5 6 7 8 11 12 7 6 6 6 5
56 50 43 39 40 40 41 40 42 48 41 34 31 33 34 39 32 25 65 76 78 22 11 8 17 22 24 20 16 15 15 12 12 6 4 3 3 3 4 6 7 5 5 4 6
55 53 47 48 52 50 49 50 52 44 40 34 31 37 40 45 32 58 76 79 24 12 7 23 25 26 26 18 23 35 47 46 45 39 31 9 6 5 3 3 4 9 5 9 5
51 52 48 50 59 65 62 62 57 43 42 29 32 48 49 42 58 67 84 55 17 9 11 25 27 34 22 28 36 50 56 63 70 72 76 75 74 56 49 26 32 14 12 42 16
58 54 56 64 74 74 72 55 45 55 40 26 42 62 53 36 38 58 94 28 11 9 20 25 35 30 31 45 51 55 55 55 74 73 84 95 88 98 82 100 94 73 58 94 57
89 93 89 84 87 96 91 60 68 52 30 30 49 66 50 30 44 53 69 17 8 15 19 29 33 25 43 44 54 51 56 60 74 71 76 80 70 64 99 94 100 100 81 70 98
90 95 99 97 97 99 100 89 78 42 28 34 64 60 41 26 29 78 28 10 10 19 21 35 27 28 28 34 39 54 77 92 99 100 100 89 80 98 99 89 100 97 73 97 54
100 98 100 100 99 98 99 99 67 40 26 39 68 55 34 23 46 59 17 8 10 19 26 32 28 28 34 44 46 68 90 98 98 92 86 88 100 100 90 68 86 74 98 95 67
98 100 100 100 100 100 100 87 54 38 23 41 67 55 27 26 90 37 12 8 11 17 22 32 37 32 33 47 66 79 85 90 97 98 83 88 100 100 76 80 77 70 95 96 81
100 100 98 95 98 100 100 94 54 26 15 42 67 48 23 51 84 21 9 8 10 12 17 30 27 38 43 52 53 61 63 66 87 74 93 93 94 96 67 47 61 76 82 90 96
56 63 67 57 59 81 96 77 32 15 12 30 51 34 27 71 52 14 10 8 8 8 10 16 24 36 44 44 45 40 50 60 70 61 56 56 73 96 84 68 63 85 77 97 94
100 100 100 100 66 42 41 27 18 18 13 17 46 22 34 84 23 10 8 7 6 5 6 7 8 11 20 31 40 34 43 57 58 65 57 55 60 75 74 74 78 56 57 84 79
100 97 99 100 99 46 31 27 25 20 14 18 38 23 78 44 17 9 7 6 5 5 6 6 6 6 7 8 9 27 44 52 48 54 48 53 87 75 77 72 66 51 76 91 82
100 100 100 100 100 61 30 33 25 18 14 24 24 42 71 26 14 10 6 5 5 6 6 6 7 7 7 8 8 11 12 22 32 37 42 39 58 59 83 91 72 61 74 89 94
98 99 100 100 91 71 38 21 13 12 23 24 43 78 33 19 12 9 6 5 6 7 7 7 7 7 8 9 10 12 11 11 19 30 35 36 99 100 100 100 99 100 82 90 79
98 100 100 95 54 32 17 10 10 23 35 36 68 56 26 16 12 8 5 5 7 8 8 8 7 7 8 11 11 14 17 15 14 20 36 39 100 98 93 99 96 91 87 98 97
89 96 61 39 31 21 11 13 45 33 58 64 66 34 24 16 11 7 5 6 8 8 8 8 8 7 9 14 20 23 36 43 56 30 52 33 76 92 69 100 100 100 100 88 98
82 62 39 25 21 70 96 56 59 78 84 76 53 30 23 18 12 8 6 7 8 8 9 8 8 8 8 17 50 68 93 100 100 91 77 51 45 100 65 95 100 98 97 99 85
76 32 22 35 100 100 90 58 65 87 80 52 35 28 26 22 16 9 6 8 9 9 10 9 9 8 8 18 47 78 100 100 100 100 92 98 63 73 49 81 98 98 95 85 80
36 25 22 99 97 62 68 57 79 94 53 40 31 30 28 26 18 9 7 9 10 10 10 10 10 9 8 14 38 59 92 90 99 99 100 88 86 62 44 68 93 100 97 93 85
21 19 78 90 61 72 58 67 86 68 44 35 33 33 33 29 18 9 8 10 10 10 11 10 10 10 8 7 19 62 66 73 71 67 100 84 62 57 43 44 64 90 97 98 97
27 53 56 58 49 50 61 69 79 45 38 35 38 38 36 27 14 9 10 11 11 10 11 10 11 11 9 8 8 25 53 57 67 100 96 73 73 77 61 39 44 57 73 95 91
40 44 37 50 64 71 65 70 57 39 38 40 43 41 35 22 13 10 12 12 11 10 10 9 9 12 11 9 8 16 44 44 65 78 81 92 61 53 52 49 33 42 47 56 63
24 36 45 49 50 54 61 59 43 37 40 40 43 39 32 21 14 13 14 12 11 10 10 8 9 11 13 12 10 8 14 32 36 53 63 80 74 64 61 56 53 38 34 44 48
35 36 37 41 46 50 50 44 38 37 39 39 40 36 26 21 16 16 15 12 11 10 9 9 8 9 11 13 12 11 9 9 21 38 44 46 74 96 78 67 58 68 58 43 37
30 26 29 34 39 46 47 35 35 35 36 37 39 32 24 21 19 18 16 12 11 10 10 8 8 9 11 11 12 13 12 11 10 11 12 17 42 59 64 63 55 46 50 71 80
42 32 25 26 32 38 43 35 32 31 34 35 34 28 22 20 19 19 16 13 11 10 9 9 8 9 10 11 11 13 14 12 11 11 10 9 8 12 32 49 61 59 56 53 59

GFSSW_500_rhum_120.txt.gz
RH
70 73 63 55 50 59 50 45 42 40 40 38 36 37 43 42 39 31 30 28 26 23 27 74 66 20 9 15 22 20 14 12 10 13 17 16 20 15 23 32 23 24 24 17 12
85 80 71 57 55 63 59 50 52 49 49 49 48 49 44 40 32 30 30 28 26 32 55 66 22 12 26 29 25 17 14 9 7 6 6 8 12 10 11 14 17 12 16 14 11
88 89 86 80 70 73 71 66 70 68 60 58 58 50 46 37 29 35 34 33 34 62 49 18 9 24 26 27 20 20 20 12 13 8 5 4 4 5 7 13 10 7 8 6 5
96 95 94 93 90 86 92 94 95 89 79 69 53 48 46 34 37 40 42 47 47 79 41 10 17 25 22 27 23 27 31 32 32 25 16 8 6 5 4 4 4 7 7 7 7
98 98 98 98 99 100 99 98 97 98 80 53 58 55 40 28 52 43 35 39 66 55 12 13 26 25 28 26 32 38 44 52 52 49 48 36 44 35 22 18 6 3 4 5 5
98 99 100 99 98 99 99 99 98 98 92 68 77 47 21 55 43 44 38 38 69 17 11 22 32 25 28 38 41 48 53 48 56 73 72 58 64 46 65 60 44 22 10 5 4
100 100 100 100 100 100 100 99 98 99 95 84 49 22 39 52 42 30 30 61 22 10 21 30 29 26 30 40 48 57 65 68 76 87 96 89 80 77 98 71 77 90 66 36 16
100 100 100 100 100 100 100 100 100 99 96 67 29 23 69 48 27 28 71 30 11 11 25 28 30 23 30 49 55 67 80 91 84 87 77 70 100 97 96 92 80 56 86 56 57
100 100 100 100 100 100 100 100 100 100 91 42 25 52 62 32 24 80 41 13 9 15 21 24 28 28 25 34 62 74 76 91 97 96 89 92 100 100 94 90 100 93 70 84 70
100 100 100 100 83 100 100 91 100 98 52 26 41 69 47 28 63 53 12 10 9 12 13 16 30 35 34 39 43 50 69 69 80 81 73 92 85 100 95 79 99 86 83 95 99
100 95 90 100 100 70 95 100 100 63 43 21 42 61 35 43 84 16 10 7 6 6 7 9 9 10 24 36 41 44 38 44 55 72 91 93 86 99 100 79 94 83 83 99 81
73 90 80 100 100 69 97 100 95 39 23 18 50 50 24 65 29 9 7 6 6 6 6 7 7 7 8 9 10 20 41 39 46 57 87 92 96 98 93 83 98 100 96 94 94
94 100 100 99 99 69 74 100 58 19 14 21 46 28 34 62 13 9 7 6 5 6 6 7 7 7 8 10 10 10 14 28 44 51 48 69 80 100 88 97 96 98 93 96 97
100 92 91 93 99 61 50 32 17 18 15 32 31 26 78 21 10 7 6 6 7 7 7 8 8 8 10 11 10 13 13 11 21 34 40 48 78 100 100 100 96 99 98 100 85
98 100 100 95 55 34 30 22 21 20 24 35 35 60 32 15 8 7 6 7 8 8 8 9 9 10 15 15 17 22 17 14 14 36 41 54 92 97 100 100 99 98 98 95 99
78 73 59 51 42 36 30 26 20 20 27 36 66 50 19 12 9 6 6 8 9 9 9 9 9 13 16 20 31 28 20 16 15 38 37 99 91 99 99 98 98 95 95 98 98
34 33 30 29 26 20 17 15 25 25 46 68 46 22 16 11 6 6 8 8 10 10 9 7 9 14 23 50 54 53 39 26 30 49 46 71 100 97 98 89 100 99 92 88 92
20 28 13 10 10 14 26 32 32 50 60 50 26 19 16 8 6 7 9 10 11 10 8 7 7 10 27 56 62 86 100 100 45 100 64 50 100 70 95 98 78 99 89 89 97
49 42 14 26 42 40 42 49 52 60 39 25 21 19 14 9 7 8 10 11 11 10 9 7 7 9 27 41 85 99 100 100 98 84 79 52 92 91 88 97 96 88 100 91 97
31 36 36 43 60 67 72 54 49 35 27 23 20 18 13 10 8 9 10 11 10 10 10 8 8 8 12 39 70 79 98 99 93 85 92 68 50 81 50 90 100 98 90 94 98
31 33 44 51 54 66 63 40 27 21 20 22 21 18 14 10 8 11 10 10 10 10 10 9 8 8 9 13 46 55 64 67 67 74 58 62 56 46 40 53 85 98 100 97 98
28 32 39 39 52 59 49 27 17 16 18 22 24 22 14 9 10 12 11 9 10 10 10 10 9 8 8 10 21 30 45 56 55 53 55 61 56 47 35 32 46 75 95 97 100
32 27 30 32 44 44 28 22 17 15 19 22 25 21 15 10 12 12 11 10 9 8 7 9 8 8 8 9 10 28 43 60 53 46 42 40 41 37 35 31 29 27 37 63 87
26 21 23 25 30 28 23 20 19 18 20 22 22 20 16 13 14 12 11 10 9 7 8 8 8 9 9 10 9 9 10 22 40 54 53 52 50 50 43 35 32 32 31 36 44
24 22 21 18 16 20 19 18 18 18 20 22 22 19 17 15 15 13 11 10 9 8 6 7 8 8 10 10 10 10 10 9 8 10 15 22 31 34 51 46 41 32 38 30 33
23 26 23 20 15 13 15 18 19 17 21 23 21 19 17 16 15 12 11 10 9 8 6 5 7 8 8 9 9 11 11 10 10 9 7 7 8 9 18 39 39 42 47 34 36
21 26 30 26 20 16 16 16 17 16 19 22 22 19 18 16 15 13 11 10 10 9 8 6 6 7 8 9 9 9 11 11 11 10 10 9 8 7 6 6 11 28 37 34 32